LY385 / 4X-EKH 7700 Squawk Report (3rd of August, 2022)

Aircraft B738 Reg No. 4X-EKH Age 13 years old
Model 737 Jet engines 2 First flight 06-04-09
Registered 17-04-09 Rollout 25-03-09 Delivered 17-04-09
Construction No. 35485 Line No. 2871 Series 85P
ADSHEX 73806D Airline name EL AL Israel Airlines Owner N/A
Airfield based Tel Aviv-Ben Gurion~Tel Aviv~4X First tracked N/A

Flight history for 4X-EKH

Route Flight No Date Playback
Ben Gurion (TLV) - Provence (MRS) LY321 2022-08-12 03:14:00
Tbilisi (TBS) - Ben Gurion (TLV) LY692 2022-08-12 02:43:00
Ben Gurion (TLV) - Tbilisi (TBS) LY691 2022-08-11 21:42:00
Larnaca International Airport (LCA) - Ben Gurion (TLV) LY2432 2022-08-11 17:54:00
Ben Gurion (TLV) - Larnaca International Airport (LCA) LY2431 2022-08-11 15:22:00
Venezia Tessera (VCE) - Ben Gurion (TLV) LY290 2022-08-11 13:28:00
Ben Gurion (TLV) - Venezia Tessera (VCE) LY289 2022-08-11 08:19:00
Munich Airport (MUC) - Ben Gurion (TLV) LY352 2022-08-11 03:11:00
Ben Gurion (TLV) - Munich Airport (MUC) LY351 2022-08-10 16:51:00
Budapest Ferenc Liszt (BUD) - Ben Gurion (TLV) LY2366 2022-08-10 13:00:00
Ben Gurion (TLV) - Budapest Ferenc Liszt (BUD) LY2365 2022-08-10 07:16:00
Sofia (SOF) - Ben Gurion (TLV) LY552 2022-08-10 04:14:00
Ben Gurion (TLV) - Sofia (SOF) LY551 2022-08-09 18:01:00
Schwechat (VIE) - Ben Gurion (TLV) LY362 2022-08-09 14:25:00
Ben Gurion (TLV) - Schwechat (VIE) LY361 2022-08-09 07:47:00
Zurich (ZRH) - Ben Gurion (TLV) LY344 2022-08-09 04:24:00
Ben Gurion (TLV) - Zurich (ZRH) LY343 2022-08-08 19:24:00
Sofia (SOF) - Ben Gurion (TLV) LY552 2022-08-08 13:52:00
Ben Gurion (TLV) - Sofia (SOF) LY551 2022-08-08 08:09:00
Barcelona–El Prat (BCN) - Ben Gurion (TLV) LY392 2022-08-08 04:35:00
Time Lat Lon Altitude Heading Speed Vertical Rate
2022-08-03 08:18:29 GMT 41.796043 12.243321 0 275 0 0
2022-08-03 08:18:14 GMT 41.796043 12.243368 0 275 0 0
2022-08-03 08:18:09 GMT 41.796043 12.243389 0 275 0 0
2022-08-03 08:17:19 GMT 41.796043 12.243384 0 278 0 0
2022-08-03 08:17:08 GMT 41.796043 12.243389 0 278 0 0
2022-08-03 08:16:58 GMT 41.796043 12.243420 0 275 3 0
2022-08-03 08:16:47 GMT 41.796009 12.243795 0 275 8 0
2022-08-03 08:16:37 GMT 41.795998 12.244279 0 219 9 0
2022-08-03 08:16:27 GMT 41.796375 12.244325 0 160 14 0
2022-08-03 08:16:17 GMT 41.796970 12.244029 0 160 15 0
2022-08-03 08:16:07 GMT 41.797638 12.243704 0 160 14 0
2022-08-03 08:16:03 GMT 41.797863 12.243576 0 149 13 0
2022-08-03 08:15:54 GMT 41.798138 12.243081 0 70 15 0
2022-08-03 08:15:49 GMT 41.798080 12.242702 0 70 15 0
2022-08-03 08:15:46 GMT 41.798000 12.242437 0 70 19 0
2022-08-03 08:15:43 GMT 41.797886 12.242015 0 70 22 0
2022-08-03 08:15:35 GMT 41.797638 12.241101 0 70 25 0
2022-08-03 08:15:31 GMT 41.797451 12.240446 0 70 25 0
2022-08-03 08:15:26 GMT 41.797253 12.239712 0 70 23 0
2022-08-03 08:15:21 GMT 41.797066 12.239009 0 70 20 0
2022-08-03 08:15:15 GMT 41.796913 12.238482 0 67 17 0
2022-08-03 08:15:08 GMT 41.796707 12.237891 0 39 13 0
2022-08-03 08:15:05 GMT 41.796566 12.237732 0 14 13 0
2022-08-03 08:14:59 GMT 41.796204 12.237732 0 343 16 0
2022-08-03 08:14:54 GMT 41.795868 12.237875 0 343 22 0
2022-08-03 08:14:44 GMT 41.794853 12.238306 0 340 21 0
2022-08-03 08:14:33 GMT 41.794041 12.238674 0 345 15 0
2022-08-03 08:14:30 GMT 41.793720 12.238723 0 19 14 0
2022-08-03 08:14:23 GMT 41.793461 12.238514 0 61 13 0
2022-08-03 08:14:14 GMT 41.793400 12.237880 0 120 9 0
2022-08-03 08:14:03 GMT 41.793594 12.237537 0 132 6 0
2022-08-03 08:13:53 GMT 41.793777 12.237287 0 132 10 0
2022-08-03 08:13:42 GMT 41.794296 12.236518 0 132 24 0
2022-08-03 08:13:37 GMT 41.794830 12.235820 0 137 30 0
2022-08-03 08:13:30 GMT 41.795528 12.235113 0 149 34 0
2022-08-03 08:13:22 GMT 41.796696 12.234322 0 157 39 0
2022-08-03 08:13:15 GMT 41.798035 12.233729 0 163 48 0
2022-08-03 08:13:09 GMT 41.799187 12.233228 0 163 56 0
2022-08-03 08:13:01 GMT 41.801617 12.232215 0 163 90 0
2022-08-03 08:12:58 GMT 41.802979 12.231653 -75 162 97 0
2022-08-03 08:12:50 GMT 41.807587 12.229699 -75 162 139 -64
2022-08-03 08:12:40 GMT 41.813278 12.227346 -50 162 153 -512
2022-08-03 08:12:37 GMT 41.815224 12.226506 0 162 153 -576
2022-08-03 08:12:29 GMT 41.820969 12.224038 100 162 152 -832
2022-08-03 08:12:18 GMT 41.828247 12.221042 250 162 154 -768
2022-08-03 08:12:09 GMT 41.834885 12.218233 400 162 156 -768
2022-08-03 08:11:57 GMT 41.842758 12.214924 550 162 157 -768
2022-08-03 08:11:47 GMT 41.849854 12.211928 675 162 156 -768
2022-08-03 08:11:37 GMT 41.856140 12.209260 800 162 153 -640
2022-08-03 08:11:30 GMT 41.861446 12.207152 900 163 152 -704
2022-08-03 08:11:27 GMT 41.863216 12.206385 925 162 152 -576
2022-08-03 08:11:21 GMT 41.867294 12.204687 1,000 161 151 -768
2022-08-03 08:11:18 GMT 41.869923 12.203511 1,050 162 151 -768
2022-08-03 08:11:11 GMT 41.873932 12.201878 1,125 163 151 -768
2022-08-03 08:11:08 GMT 41.877789 12.200254 1,200 162 151 -768
2022-08-03 08:11:01 GMT 41.880489 12.199104 1,250 161 151 -768
2022-08-03 08:10:56 GMT 41.883774 12.197696 1,300 162 152 -768
2022-08-03 08:10:47 GMT 41.890495 12.194888 1,450 162 154 -768
2022-08-03 08:10:45 GMT 41.891289 12.194505 1,475 162 158 -768
2022-08-03 08:10:39 GMT 41.895943 12.192589 1,550 162 158 -768
2022-08-03 08:10:36 GMT 41.897339 12.192014 1,575 162 158 -768
2022-08-03 08:10:31 GMT 41.901577 12.190161 1,650 162 160 -832
2022-08-03 08:10:26 GMT 41.904648 12.188894 1,725 163 163 -832
2022-08-03 08:10:19 GMT 41.910095 12.186776 1,875 163 172 -768
2022-08-03 08:10:16 GMT 41.912144 12.185946 1,875 163 172 -768
2022-08-03 08:10:08 GMT 41.918011 12.183710 2,000 166 178 -896
2022-08-03 08:10:05 GMT 41.920338 12.182880 2,025 166 178 -896
2022-08-03 08:10:01 GMT 41.924435 12.181538 2,100 166 182 -1024
2022-08-03 08:09:58 GMT 41.926109 12.180964 2,150 163 182 -1024
2022-08-03 08:09:55 GMT 41.929138 12.179780 2,200 161 182 -960
2022-08-03 08:09:50 GMT 41.932434 12.178033 2,275 153 183 -896
2022-08-03 08:09:46 GMT 41.936691 12.174724 2,350 144 186 -832
2022-08-03 08:09:41 GMT 41.940166 12.171319 2,400 143 188 -768
2022-08-03 08:09:38 GMT 41.941658 12.169913 2,475 143 189 -832
2022-08-03 08:09:35 GMT 41.943707 12.167869 2,750 143 194 -832
2022-08-03 08:09:28 GMT 41.948593 12.163079 2,600 143 191 -960
2022-08-03 08:09:24 GMT 41.950920 12.160843 2,625 143 191 -960
2022-08-03 08:09:20 GMT 41.954407 12.157433 2,700 143 193 -832
2022-08-03 08:09:17 GMT 41.956604 12.155248 2,750 143 194 -832
2022-08-03 08:09:14 GMT 41.958527 12.153376 3,200 178 211 -512
2022-08-03 08:09:07 GMT 41.963654 12.148320 2,900 143 197 -832
2022-08-03 08:09:04 GMT 41.965771 12.146152 2,900 142 199 -704
2022-08-03 08:08:56 GMT 41.971916 12.140148 3,000 147 203 -832
2022-08-03 08:08:53 GMT 41.974293 12.138168 3,025 153 204 -704
2022-08-03 08:08:49 GMT 41.978027 12.136085 3,100 167 207 -576
2022-08-03 08:08:45 GMT 41.981094 12.135211 3,125 173 209 -576
2022-08-03 08:08:42 GMT 41.984161 12.134974 3,200 178 211 -512
2022-08-03 08:08:36 GMT 41.991001 12.136763 3,175 201 217 -256
2022-08-03 08:08:33 GMT 41.993237 12.138040 3,200 227 227 -256
2022-08-03 08:08:26 GMT 41.998543 12.143022 3,225 222 225 -320
2022-08-03 08:08:23 GMT 42.001198 12.146983 3,225 234 230 -192
2022-08-03 08:08:15 GMT 42.005447 12.157059 3,250 257 240 -320
2022-08-03 08:08:12 GMT 42.006271 12.160332 3,250 255 239 -320
2022-08-03 08:08:07 GMT 42.007416 12.168045 3,325 271 246 -640
2022-08-03 08:08:04 GMT 42.007507 12.174287 3,350 273 247 -640
2022-08-03 08:08:01 GMT 42.007370 12.176784 3,400 290 255 -512
2022-08-03 08:07:55 GMT 42.005760 12.186904 3,425 295 259 -512
2022-08-03 08:07:52 GMT 42.004669 12.190767 3,475 295 259 -512
2022-08-03 08:07:45 GMT 42.000320 12.202565 3,550 298 266 -896
2022-08-03 08:07:42 GMT 41.998947 12.205998 3,600 298 266 -1344
2022-08-03 08:07:34 GMT 41.994690 12.216984 3,900 298 267 -1920
2022-08-03 08:07:31 GMT 41.993134 12.220917 3,900 298 267 -1920
2022-08-03 08:07:28 GMT 41.990936 12.226660 4,050 298 267 -2048
2022-08-03 08:07:24 GMT 41.988876 12.231965 4,225 298 267 -2048
2022-08-03 08:07:20 GMT 41.986725 12.237521 4,300 298 267 -2048
2022-08-03 08:07:14 GMT 41.983017 12.247197 4,575 298 267 -1920
2022-08-03 08:07:11 GMT 41.981277 12.251629 4,600 298 267 -1920
2022-08-03 08:07:04 GMT 41.977688 12.260934 4,850 298 268 -1920
2022-08-03 08:07:01 GMT 41.975601 12.266423 4,925 298 268 -1856
2022-08-03 08:06:53 GMT 41.971436 12.277034 5,225 298 268 -1984
2022-08-03 08:06:50 GMT 41.969559 12.281779 5,275 298 268 -1984
2022-08-03 08:06:47 GMT 41.967819 12.286228 5,375 298 268 -1984
2022-08-03 08:06:44 GMT 41.965584 12.291913 5,500 298 268 -2048
2022-08-03 08:06:40 GMT 41.963654 12.296885 5,600 298 268 -2048
2022-08-03 08:06:32 GMT 41.958416 12.310436 5,925 298 269 -2048
2022-08-03 08:06:29 GMT 41.957626 12.312416 5,975 298 269 -2048
2022-08-03 08:06:25 GMT 41.955231 12.318608 6,100 298 268 -2048
2022-08-03 08:06:22 GMT 41.952850 12.324787 6,250 298 269 -1984
2022-08-03 08:06:19 GMT 41.951855 12.327363 6,300 298 269 -1920
2022-08-03 08:06:13 GMT 41.948135 12.336835 6,525 298 269 -2112
2022-08-03 08:06:09 GMT 41.945892 12.342578 6,650 298 268 -2112
2022-08-03 08:06:05 GMT 41.943378 12.349016 6,800 298 269 -2048
2022-08-03 08:06:01 GMT 41.941193 12.354509 6,925 299 269 -2048
2022-08-03 08:05:58 GMT 41.939758 12.358121 7,125 299 269 -2048
2022-08-03 08:05:55 GMT 41.937469 12.363864 7,150 299 270 -2048
2022-08-03 08:05:51 GMT 41.935047 12.369967 7,275 299 269 -1920
2022-08-03 08:05:48 GMT 41.933743 12.373097 7,350 299 270 -1856
2022-08-03 08:05:43 GMT 41.929962 12.382341 7,525 299 272 -1728
2022-08-03 08:05:38 GMT 41.927414 12.388682 7,650 299 272 -1792
2022-08-03 08:05:35 GMT 41.925339 12.393702 7,750 299 273 -1920
2022-08-03 08:05:31 GMT 41.922638 12.400256 7,900 299 273 -1984
2022-08-03 08:05:28 GMT 41.921173 12.403948 7,975 299 274 -1664
2022-08-03 08:05:25 GMT 41.919205 12.408683 8,075 299 275 -1472
2022-08-03 08:05:22 GMT 41.917728 12.412315 8,125 299 275 -1472
2022-08-03 08:05:17 GMT 41.914471 12.420363 8,250 299 275 -1536
2022-08-03 08:05:14 GMT 41.912842 12.424260 8,325 299 276 -1600
2022-08-03 08:05:10 GMT 41.910370 12.430406 8,425 299 276 -1600
2022-08-03 08:05:05 GMT 41.907490 12.437609 8,575 299 276 -1472
2022-08-03 08:05:02 GMT 41.905380 12.442766 8,650 298 277 -1408
2022-08-03 08:04:59 GMT 41.903824 12.446761 8,700 298 277 -1408
2022-08-03 08:04:55 GMT 41.901299 12.453195 8,850 298 277 -1472
2022-08-03 08:04:51 GMT 41.899063 12.458815 8,900 298 278 -1472
2022-08-03 08:04:47 GMT 41.896408 12.465612 9,000 298 278 -1472
2022-08-03 08:04:44 GMT 41.894531 12.470419 9,075 298 279 -1472
2022-08-03 08:04:40 GMT 41.891647 12.477909 9,200 298 280 -1408
2022-08-03 08:04:34 GMT 41.888535 12.485899 9,325 298 281 -1344
2022-08-03 08:04:31 GMT 41.887024 12.489832 9,375 298 281 -1344
2022-08-03 08:04:28 GMT 41.885376 12.494138 9,450 298 282 -1408
2022-08-03 08:04:24 GMT 41.882812 12.500756 9,550 298 282 -1664
2022-08-03 08:04:21 GMT 41.880768 12.505954 9,650 298 281 -1856
2022-08-03 08:04:18 GMT 41.879196 12.509870 9,725 299 280 -1920
2022-08-03 08:04:13 GMT 41.876297 12.517196 9,875 299 280 -1600
2022-08-03 08:04:10 GMT 41.874527 12.521667 9,950 298 281 -1152
2022-08-03 08:04:03 GMT 41.869858 12.533340 10,075 299 285 -1088
2022-08-03 08:03:58 GMT 41.863678 12.549008 10,475 298 286 -1344
2022-08-03 08:03:53 GMT 41.863678 12.549008 10,300 298 287 -1408
2022-08-03 08:03:49 GMT 41.861168 12.555265 10,475 298 289 -1408
2022-08-03 08:03:45 GMT 41.858284 12.562611 10,500 298 289 -1408
2022-08-03 08:03:41 GMT 41.855667 12.569233 10,625 298 289 -1344
2022-08-03 08:03:38 GMT 41.854607 12.571936 10,625 298 289 -1344
2022-08-03 08:03:33 GMT 41.851501 12.579970 10,750 298 292 -1344
2022-08-03 08:03:30 GMT 41.849205 12.585861 10,825 298 292 -1408
2022-08-03 08:03:26 GMT 41.847473 12.590207 10,875 298 292 -1536
2022-08-03 08:03:22 GMT 41.844543 12.597698 11,000 298 293 -1600
2022-08-03 08:03:18 GMT 41.841934 12.604377 11,125 298 293 -1536
2022-08-03 08:03:13 GMT 41.838043 12.614177 11,275 298 293 -1600
2022-08-03 08:03:09 GMT 41.836170 12.618948 12,050 298 294 -1664
2022-08-03 08:03:02 GMT 41.831726 12.630095 11,550 299 293 -1664
2022-08-03 08:02:59 GMT 41.830025 12.634277 11,650 299 293 -1728
2022-08-03 08:02:56 GMT 41.827972 12.639458 11,725 299 294 -1728
2022-08-03 08:02:52 GMT 41.825043 12.646699 11,850 299 294 -1664
2022-08-03 08:02:48 GMT 41.822670 12.652418 12,050 297 294 -1664
2022-08-03 08:02:42 GMT 41.818588 12.662243 12,100 298 294 -1664
2022-08-03 08:02:38 GMT 41.816338 12.667939 12,200 296 294 -1664
2022-08-03 08:02:32 GMT 41.812683 12.679346 12,375 289 295 -1408
2022-08-03 08:02:28 GMT 41.811172 12.685632 12,450 286 296 -1344
2022-08-03 08:02:21 GMT 41.809170 12.697896 12,575 279 298 -1536
2022-08-03 08:02:18 GMT 41.808655 12.704190 12,725 273 299 -1536
2022-08-03 08:02:12 GMT 41.808609 12.716051 12,850 268 302 -1216
2022-08-03 08:02:07 GMT 41.809170 12.735390 13,175 268 304 -1088
2022-08-03 08:02:01 GMT 41.809170 12.735390 13,050 268 306 -960
2022-08-03 08:01:57 GMT 41.809341 12.742206 13,100 268 308 -640
2022-08-03 08:01:54 GMT 41.809479 12.747824 13,125 268 311 -640
2022-08-03 08:01:51 GMT 41.809681 12.754871 13,175 268 314 -704
2022-08-03 08:01:47 GMT 41.809891 12.763055 13,275 268 320 -768
2022-08-03 08:01:43 GMT 41.810101 12.770010 13,275 268 320 -768
2022-08-03 08:01:39 GMT 41.810379 12.779846 13,300 268 323 -768
2022-08-03 08:01:36 GMT 41.810429 12.783104 13,350 268 326 -768
2022-08-03 08:01:30 GMT 41.810806 12.795327 13,400 268 329 -704
2022-08-03 08:01:26 GMT 41.810989 12.803379 13,450 268 332 -640
2022-08-03 08:01:20 GMT 41.811405 12.816574 13,500 268 338 -448
2022-08-03 08:01:15 GMT 41.811722 12.827787 13,550 268 346 -448
2022-08-03 08:01:10 GMT 41.812012 12.838419 13,575 268 350 -448
2022-08-03 08:01:06 GMT 41.812271 12.846576 13,600 268 355 -512
2022-08-03 08:01:00 GMT 41.812683 12.860558 13,650 268 362 -512
2022-08-03 08:00:56 GMT 41.812912 12.868736 13,700 268 366 -576
2022-08-03 08:00:49 GMT 41.813408 12.883897 13,800 268 375 -704
2022-08-03 08:00:46 GMT 41.813690 12.892456 13,800 268 377 -704
2022-08-03 08:00:38 GMT 41.814285 12.912806 13,900 268 387 -704
2022-08-03 08:00:35 GMT 41.814384 12.916409 14,075 268 391 -704
2022-08-03 08:00:29 GMT 41.814880 12.932906 14,025 268 397 -1088
2022-08-03 08:00:25 GMT 41.815128 12.941320 14,275 268 401 -2240
2022-08-03 08:00:21 GMT 41.815430 12.952319 14,275 268 402 -2432
2022-08-03 08:00:17 GMT 41.815750 12.962681 14,450 268 403 -2432
2022-08-03 08:00:14 GMT 41.815933 12.969360 14,550 268 403 -2496
2022-08-03 08:00:08 GMT 41.816338 12.984179 14,875 269 405 -2496
2022-08-03 08:00:05 GMT 41.816570 12.992483 14,925 269 405 -2496
2022-08-03 07:59:58 GMT 41.817032 13.009311 15,275 268 407 -2496
2022-08-03 07:59:54 GMT 41.817719 13.035278 16,275 269 415 -2432
2022-08-03 07:59:48 GMT 41.818016 13.044476 15,700 268 409 -2496
2022-08-03 07:59:44 GMT 41.818016 13.044476 15,800 268 410 -2496
2022-08-03 07:59:37 GMT 41.818588 13.065054 16,125 268 412 -2432
2022-08-03 07:59:34 GMT 41.818680 13.069486 16,200 268 413 -2432
2022-08-03 07:59:30 GMT 41.819000 13.080971 16,375 268 414 -2432
2022-08-03 07:59:26 GMT 41.819225 13.090274 16,525 268 414 -2432
2022-08-03 07:59:23 GMT 41.819412 13.096853 16,625 269 415 -2432
2022-08-03 07:59:14 GMT 41.820053 13.122420 17,050 268 418 -2560
2022-08-03 07:59:08 GMT 41.820480 13.137413 17,275 268 419 -2880
2022-08-03 07:59:04 GMT 41.820740 13.148512 17,525 268 421 -2944
2022-08-03 07:58:59 GMT 41.821060 13.159873 17,775 268 427 -2496
2022-08-03 07:58:56 GMT 41.821289 13.169049 17,925 268 424 -2752
2022-08-03 07:58:53 GMT 41.821507 13.176184 18,175 268 425 -2688
2022-08-03 07:58:50 GMT 41.821747 13.186091 18,175 268 426 -2560
2022-08-03 07:58:46 GMT 41.821972 13.195219 18,325 268 429 -2752
2022-08-03 07:58:43 GMT 41.822205 13.203007 18,450 268 429 -2624
2022-08-03 07:58:39 GMT 41.822433 13.212308 18,625 269 430 -2816
2022-08-03 07:58:36 GMT 41.822716 13.223132 18,825 269 432 -2688
2022-08-03 07:58:33 GMT 41.822857 13.229839 19,075 269 435 -2496
2022-08-03 07:58:29 GMT 41.823166 13.240897 21,000 269 436 -2560
2022-08-03 07:58:24 GMT 41.823486 13.253257 19,275 269 437 -2624
2022-08-03 07:58:21 GMT 41.823669 13.260498 19,400 269 438 -2752
2022-08-03 07:58:18 GMT 41.823879 13.268674 19,550 269 439 -2752
2022-08-03 07:58:15 GMT 41.824112 13.278191 19,750 269 441 -2688
2022-08-03 07:58:12 GMT 41.824356 13.288089 19,850 269 443 -2496
2022-08-03 07:58:08 GMT 41.824532 13.295693 19,975 269 444 -2496
2022-08-03 07:58:05 GMT 41.824814 13.305976 20,225 269 446 -2816
2022-08-03 07:58:02 GMT 41.825226 13.323545 20,600 269 449 -2496
2022-08-03 07:57:58 GMT 41.825226 13.323545 20,425 269 449 -2496
2022-08-03 07:57:55 GMT 41.825455 13.333907 20,600 269 453 -1984
2022-08-03 07:57:51 GMT 41.825695 13.343598 20,700 269 454 -1984
2022-08-03 07:57:49 GMT 41.825882 13.351008 20,775 269 455 -2240
2022-08-03 07:57:44 GMT 41.826160 13.362696 20,975 269 458 -2880
2022-08-03 07:57:41 GMT 41.826416 13.374232 21,150 269 460 -2560
2022-08-03 07:57:35 GMT 41.826782 13.391647 21,400 269 465 -1984
2022-08-03 07:57:30 GMT 41.827057 13.403133 21,525 269 466 -2048
2022-08-03 07:57:28 GMT 41.827240 13.410124 21,625 269 469 -2368
2022-08-03 07:57:23 GMT 41.827511 13.424526 21,850 269 471 -3072
2022-08-03 07:57:19 GMT 41.827789 13.435960 22,325 269 472 -3264
2022-08-03 07:57:16 GMT 41.828117 13.450395 22,975 269 482 -3392
2022-08-03 07:57:14 GMT 41.828117 13.450395 22,325 269 474 -2816
2022-08-03 07:57:11 GMT 41.828339 13.459376 22,650 269 477 -2944
2022-08-03 07:57:08 GMT 41.828537 13.468663 22,625 269 477 -3008
2022-08-03 07:57:04 GMT 41.828815 13.480927 22,825 269 479 -3200
2022-08-03 07:57:01 GMT 41.828934 13.487091 23,100 269 480 -3200
2022-08-03 07:56:58 GMT 41.829437 13.511373 23,650 269 482 -3392
2022-08-03 07:56:53 GMT 41.829437 13.511373 23,375 269 482 -3392
2022-08-03 07:56:50 GMT 41.829605 13.520018 23,775 269 484 -3200
2022-08-03 07:56:47 GMT 41.829838 13.529919 23,700 269 484 -3072
2022-08-03 07:56:43 GMT 41.830070 13.540969 23,975 269 488 -2880
2022-08-03 07:56:40 GMT 41.830303 13.551252 24,150 269 488 -2880
2022-08-03 07:56:37 GMT 41.830490 13.560188 24,325 269 491 -2944
2022-08-03 07:56:34 GMT 41.830723 13.571437 24,375 269 492 -2944
2022-08-03 07:56:30 GMT 41.830948 13.581786 24,525 269 494 -2880
2022-08-03 07:56:27 GMT 41.831131 13.589152 24,875 269 497 -2752
2022-08-03 07:56:23 GMT 41.831406 13.603197 24,875 269 497 -2752
2022-08-03 07:56:20 GMT 41.831654 13.612827 25,000 269 498 -2688
2022-08-03 07:56:16 GMT 41.831909 13.624982 25,375 269 499 -2496
2022-08-03 07:56:13 GMT 41.832138 13.634408 25,325 269 499 -2496
2022-08-03 07:56:09 GMT 41.832401 13.646936 25,475 269 498 -2496
2022-08-03 07:56:05 GMT 41.832630 13.657794 25,625 269 499 -2432
2022-08-03 07:56:03 GMT 41.832825 13.665681 25,750 269 499 -2432
2022-08-03 07:55:59 GMT 41.833099 13.676254 25,875 269 498 -2432
2022-08-03 07:55:53 GMT 41.833557 13.696705 26,150 269 497 -2496
2022-08-03 07:55:49 GMT 41.833797 13.707744 26,300 269 496 -2560
2022-08-03 07:55:46 GMT 41.833981 13.715600 26,450 269 495 -2560
2022-08-03 07:55:42 GMT 41.834263 13.728503 26,675 269 493 -2560
2022-08-03 07:55:39 GMT 41.834518 13.739402 26,750 269 493 -2560
2022-08-03 07:55:36 GMT 41.834633 13.745749 26,850 269 493 -2624
2022-08-03 07:55:32 GMT 41.834930 13.758940 27,175 269 492 -2624
2022-08-03 07:55:26 GMT 41.835564 13.790588 27,450 269 493 -2432
2022-08-03 07:55:22 GMT 41.835564 13.790588 27,450 269 493 -2432
2022-08-03 07:55:17 GMT 41.835842 13.805279 27,650 269 493 -2432
2022-08-03 07:55:11 GMT 41.836170 13.824505 27,900 269 495 -2368
2022-08-03 07:55:06 GMT 41.836403 13.838686 28,100 269 496 -2368
2022-08-03 07:55:03 GMT 41.836533 13.846831 28,200 269 497 -2368
2022-08-03 07:55:01 GMT 41.836670 13.854571 28,300 269 498 -2368
2022-08-03 07:54:57 GMT 41.836868 13.865129 28,450 269 498 -2368
2022-08-03 07:54:54 GMT 41.836990 13.875171 28,575 269 498 -2368
2022-08-03 07:54:50 GMT 41.837219 13.886906 28,725 269 498 -2368
2022-08-03 07:54:47 GMT 41.837379 13.896428 28,850 269 498 -2432
2022-08-03 07:54:44 GMT 41.837566 13.907222 29,000 269 499 -2368
2022-08-03 07:54:40 GMT 41.837769 13.918554 29,125 269 498 -2432
2022-08-03 07:54:38 GMT 41.837952 13.926107 29,325 269 499 -2368
2022-08-03 07:54:35 GMT 41.838123 13.934944 29,350 269 500 -2368
2022-08-03 07:54:31 GMT 41.838360 13.946760 29,725 269 501 -2368
2022-08-03 07:54:26 GMT 41.838638 13.961324 29,675 269 501 -2368
2022-08-03 07:54:20 GMT 41.839050 13.980914 29,950 269 501 -2368
2022-08-03 07:54:15 GMT 41.839523 14.004758 30,350 269 500 -2368
2022-08-03 07:54:12 GMT 41.839523 14.004758 30,250 269 500 -2560
2022-08-03 07:54:09 GMT 41.839706 14.014786 30,375 269 500 -2560
2022-08-03 07:54:04 GMT 41.839989 14.029988 30,600 269 499 -2688
2022-08-03 07:54:00 GMT 41.840240 14.043336 30,800 269 498 -2688
2022-08-03 07:53:56 GMT 41.840454 14.053494 30,950 269 498 -2688
2022-08-03 07:53:54 GMT 41.840637 14.062053 31,075 269 497 -2752
2022-08-03 07:53:49 GMT 41.840919 14.076808 31,275 269 497 -2688
2022-08-03 07:53:46 GMT 41.841057 14.085750 31,425 269 496 -2688
2022-08-03 07:53:44 GMT 41.841198 14.092201 31,525 269 496 -2752
2022-08-03 07:53:40 GMT 41.841431 14.106570 31,725 269 496 -2752
2022-08-03 07:53:34 GMT 41.841705 14.123611 31,975 269 495 -2752
2022-08-03 07:53:31 GMT 41.841896 14.134231 32,175 269 495 -2688
2022-08-03 07:53:28 GMT 41.841988 14.138318 32,200 269 495 -2624
2022-08-03 07:53:25 GMT 41.842129 14.149369 32,350 269 494 -2432
2022-08-03 07:53:18 GMT 41.842484 14.170990 32,600 269 494 -2432
2022-08-03 07:53:15 GMT 41.842640 14.181050 32,925 269 494 -2432
2022-08-03 07:53:11 GMT 41.842873 14.195039 33,025 269 493 -2432
2022-08-03 07:53:08 GMT 41.842987 14.203013 33,075 269 493 -2432
2022-08-03 07:53:06 GMT 41.843124 14.212438 33,325 269 493 -2432
2022-08-03 07:53:01 GMT 41.843292 14.223462 33,350 269 492 -2432
2022-08-03 07:52:58 GMT 41.843433 14.231000 33,450 269 491 -2496
2022-08-03 07:52:55 GMT 41.843571 14.240006 33,575 269 491 -2496
2022-08-03 07:52:53 GMT 41.843666 14.248757 33,700 269 490 -2496
2022-08-03 07:52:48 GMT 41.843903 14.262439 33,875 269 490 -2496
2022-08-03 07:52:46 GMT 41.843990 14.268813 33,975 269 490 -2496
2022-08-03 07:52:42 GMT 41.844177 14.280949 34,125 269 490 -2496
2022-08-03 07:52:38 GMT 41.844410 14.296087 34,350 269 491 -2560
2022-08-03 07:52:35 GMT 41.844498 14.302139 34,425 269 491 -2560
2022-08-03 07:52:32 GMT 41.844635 14.310754 34,550 269 491 -2560
2022-08-03 07:52:28 GMT 41.844864 14.324861 34,725 269 492 -2560
2022-08-03 07:52:26 GMT 41.844955 14.329605 34,800 269 492 -2496
2022-08-03 07:52:24 GMT 41.845062 14.335497 34,875 269 493 -2304
2022-08-03 07:52:20 GMT 41.845276 14.347333 35,025 269 493 -2112
2022-08-03 07:52:17 GMT 41.845482 14.359322 35,175 269 493 -2304
2022-08-03 07:52:12 GMT 41.845669 14.372417 35,325 269 493 -2304
2022-08-03 07:52:09 GMT 41.845806 14.381423 35,450 269 492 -2304
2022-08-03 07:52:06 GMT 41.845901 14.387619 35,550 269 492 -1984
2022-08-03 07:52:03 GMT 41.846085 14.399627 35,650 269 492 -1856
2022-08-03 07:51:56 GMT 41.846317 14.421216 35,800 270 492 -1024
2022-08-03 07:51:53 GMT 41.846458 14.430286 35,850 270 493 -960
2022-08-03 07:51:48 GMT 41.846603 14.444400 36,000 270 494 -960
2022-08-03 07:51:43 GMT 41.846783 14.461202 36,025 270 495 -896
2022-08-03 07:51:37 GMT 41.847015 14.480730 36,125 269 496 -896
2022-08-03 07:51:30 GMT 41.847298 14.499462 36,200 269 497 -960
2022-08-03 07:51:26 GMT 41.847481 14.511534 36,275 269 497 -960
2022-08-03 07:51:22 GMT 41.847668 14.525778 36,350 269 497 -960
2022-08-03 07:51:16 GMT 41.847977 14.546211 36,475 269 497 -960
2022-08-03 07:51:11 GMT 41.848133 14.557204 36,500 269 497 -960
2022-08-03 07:51:07 GMT 41.848320 14.570809 36,575 269 497 -896
2022-08-03 07:51:03 GMT 41.848572 14.586473 36,600 269 496 -896
2022-08-03 07:51:00 GMT 41.848644 14.591888 36,675 269 496 -896
2022-08-03 07:50:54 GMT 41.848938 14.610318 36,775 269 494 -896
2022-08-03 07:50:50 GMT 41.849121 14.621367 36,825 269 493 -960
2022-08-03 07:50:46 GMT 41.849304 14.635350 36,900 269 492 -960
2022-08-03 07:50:43 GMT 41.849392 14.641709 36,950 269 491 -960
2022-08-03 07:50:40 GMT 41.849533 14.651579 37,000 269 490 -960
2022-08-03 07:50:33 GMT 41.849857 14.676329 37,150 269 488 -896
2022-08-03 07:50:29 GMT 41.849995 14.685208 37,150 269 488 -896
2022-08-03 07:50:25 GMT 41.850136 14.697535 37,225 270 485 -960
2022-08-03 07:50:22 GMT 41.850311 14.713128 37,425 279 470 -1088
2022-08-03 07:50:20 GMT 41.850311 14.713128 37,300 270 485 -960
2022-08-03 07:50:16 GMT 41.850494 14.726424 37,800 269 483 -960
2022-08-03 07:50:14 GMT 41.850586 14.730793 37,400 269 484 -896
2022-08-03 07:50:11 GMT 41.850723 14.740718 37,475 269 483 -960
2022-08-03 07:50:08 GMT 41.850880 14.750934 37,800 276 473 -1024
2022-08-03 07:50:04 GMT 41.850925 14.760643 37,550 272 479 -960
2022-08-03 07:49:59 GMT 41.850601 14.775781 37,625 274 476 -1024
2022-08-03 07:49:53 GMT 41.849670 14.792654 37,725 276 473 -1024
2022-08-03 07:49:51 GMT 41.848984 14.800831 37,775 278 471 -1088
2022-08-03 07:49:47 GMT 41.847809 14.812445 37,850 280 469 -1024
2022-08-03 07:49:44 GMT 41.846924 14.819683 37,900 281 468 -1024
2022-08-03 07:49:40 GMT 41.845341 14.830457 37,975 283 466 -704
2022-08-03 07:49:37 GMT 41.843582 14.841218 37,975 284 465 -384
2022-08-03 07:49:34 GMT 41.842270 14.848214 38,000 286 464 -128
2022-08-03 07:49:32 GMT 41.841248 14.853391 38,000 287 463 -64
2022-08-03 07:49:30 GMT 41.840080 14.858881 38,000 287 463 -64
2022-08-03 07:49:27 GMT 41.837631 14.869371 38,000 289 462 0
2022-08-03 07:49:24 GMT 41.835842 14.876255 38,000 291 460 0
2022-08-03 07:49:22 GMT 41.833515 14.884558 38,000 292 458 0
2022-08-03 07:49:18 GMT 41.831238 14.892159 38,000 293 458 0
2022-08-03 07:49:14 GMT 41.827927 14.902642 38,000 293 458 0
2022-08-03 07:49:09 GMT 41.824207 14.914388 38,000 293 458 0
2022-08-03 07:49:05 GMT 41.820786 14.925114 38,000 293 458 64
2022-08-03 07:49:01 GMT 41.817352 14.935976 38,000 293 458 0
2022-08-03 07:48:59 GMT 41.813034 14.949518 38,000 294 458 0
2022-08-03 07:48:56 GMT 41.813034 14.949518 38,000 294 458 0
2022-08-03 07:48:53 GMT 41.810257 14.958198 38,000 294 458 0
2022-08-03 07:48:51 GMT 41.808701 14.963067 38,000 294 458 0
2022-08-03 07:48:46 GMT 41.804626 14.975863 38,000 294 458 -64
2022-08-03 07:48:44 GMT 41.803116 14.980607 38,000 294 458 -64
2022-08-03 07:48:41 GMT 41.799820 14.990907 38,000 294 458 0
2022-08-03 07:48:37 GMT 41.797344 14.998573 38,000 294 458 0
2022-08-03 07:48:33 GMT 41.793823 15.009634 38,000 294 458 0
2022-08-03 07:48:30 GMT 41.791573 15.016714 38,000 294 459 -64
2022-08-03 07:48:27 GMT 41.788872 15.025145 38,000 294 459 -64
2022-08-03 07:48:24 GMT 41.786266 15.033193 38,000 294 459 -64
2022-08-03 07:48:20 GMT 41.783295 15.042468 38,000 294 459 0
2022-08-03 07:48:18 GMT 41.781738 15.047275 38,000 294 459 0
2022-08-03 07:48:14 GMT 41.777985 15.059072 38,000 294 458 64
2022-08-03 07:48:08 GMT 41.772766 15.075302 38,000 294 459 0
2022-08-03 07:48:04 GMT 41.769321 15.086017 38,000 294 459 0
2022-08-03 07:47:56 GMT 41.763107 15.105452 38,000 294 458 0
2022-08-03 07:47:53 GMT 41.760544 15.113442 38,000 294 458 0
2022-08-03 07:47:47 GMT 41.755966 15.127737 38,000 294 458 0
2022-08-03 07:47:42 GMT 41.751537 15.141651 38,000 293 458 0
2022-08-03 07:47:40 GMT 41.746651 15.156981 38,000 294 458 0
2022-08-03 07:47:33 GMT 41.744183 15.164774 38,000 293 458 0
2022-08-03 07:47:25 GMT 41.737427 15.186039 38,000 293 458 0
2022-08-03 07:47:15 GMT 41.726212 15.221246 38,000 293 458 0
2022-08-03 07:47:08 GMT 41.722073 15.234205 38,000 294 457 64
2022-08-03 07:47:04 GMT 41.720306 15.239785 38,000 294 457 64
2022-08-03 07:47:01 GMT 41.717789 15.247650 38,000 294 457 0
2022-08-03 07:46:57 GMT 41.714310 15.258574 38,000 294 457 0
2022-08-03 07:46:52 GMT 41.710152 15.271443 38,000 294 457 0
2022-08-03 07:46:46 GMT 41.705219 15.286965 38,000 294 456 0
2022-08-03 07:46:42 GMT 41.701904 15.297338 38,000 294 456 0
2022-08-03 07:46:37 GMT 41.697922 15.309760 38,000 294 455 0
2022-08-03 07:46:33 GMT 41.693069 15.324867 38,000 294 455 0
2022-08-03 07:46:28 GMT 41.688995 15.337601 38,000 294 454 -64
2022-08-03 07:46:22 GMT 41.684784 15.350772 38,000 294 454 -64
2022-08-03 07:46:18 GMT 41.681396 15.361259 38,000 294 453 0
2022-08-03 07:46:12 GMT 41.677380 15.373769 38,000 294 452 0
2022-08-03 07:46:07 GMT 41.672352 15.389355 38,000 294 452 0
2022-08-03 07:46:04 GMT 41.670364 15.395653 38,000 294 452 0
2022-08-03 07:46:01 GMT 41.667557 15.404365 38,000 294 452 -64
2022-08-03 07:45:57 GMT 41.664139 15.415129 38,000 294 452 0
2022-08-03 07:45:51 GMT 41.658966 15.431172 38,000 294 451 0
2022-08-03 07:45:47 GMT 41.655853 15.440910 38,000 294 451 0
2022-08-03 07:45:40 GMT 41.650890 15.456295 38,000 294 451 0
2022-08-03 07:45:34 GMT 41.645737 15.472246 38,000 294 451 0
2022-08-03 07:45:30 GMT 41.642532 15.482171 38,000 294 451 0
2022-08-03 07:45:24 GMT 41.637680 15.497215 38,000 294 450 0
2022-08-03 07:45:21 GMT 41.634506 15.507011 38,000 294 451 0
2022-08-03 07:45:15 GMT 41.630318 15.519977 38,000 294 451 0
2022-08-03 07:45:11 GMT 41.625710 15.534157 38,000 294 451 0
2022-08-03 07:45:05 GMT 41.621658 15.546485 38,000 294 451 64
2022-08-03 07:45:02 GMT 41.619049 15.554518 38,000 294 451 0
2022-08-03 07:44:59 GMT 41.616398 15.562581 38,000 294 451 0
2022-08-03 07:44:54 GMT 41.611679 15.577053 38,000 294 451 0
2022-08-03 07:44:49 GMT 41.608578 15.586598 38,000 294 451 0
2022-08-03 07:44:45 GMT 41.604900 15.597839 38,000 294 451 0
2022-08-03 07:44:39 GMT 41.600372 15.611760 38,000 294 451 0
2022-08-03 07:44:35 GMT 41.596161 15.624681 38,000 294 451 0
2022-08-03 07:44:30 GMT 41.591820 15.638144 38,000 294 451 0
2022-08-03 07:44:24 GMT 41.587692 15.650773 38,000 294 451 0
2022-08-03 07:44:18 GMT 41.582794 15.665880 38,000 294 451 -64
2022-08-03 07:44:15 GMT 41.579453 15.676242 38,000 294 451 -64
2022-08-03 07:44:08 GMT 41.574326 15.691847 38,000 294 451 0
2022-08-03 07:44:04 GMT 41.570824 15.702529 38,000 294 451 -64
2022-08-03 07:44:00 GMT 41.567936 15.711407 38,000 294 451 0
2022-08-03 07:43:58 GMT 41.566216 15.716581 38,000 294 451 0
2022-08-03 07:43:54 GMT 41.562149 15.729051 38,000 294 451 64
2022-08-03 07:43:49 GMT 41.557278 15.743919 38,000 294 451 64
2022-08-03 07:43:44 GMT 41.554066 15.753756 38,000 294 451 0
2022-08-03 07:43:38 GMT 41.549149 15.768627 38,000 294 451 -64
2022-08-03 07:43:33 GMT 41.545212 15.780674 38,000 294 451 0
2022-08-03 07:43:27 GMT 41.540222 15.795968 38,000 294 451 0
2022-08-03 07:43:24 GMT 41.536652 15.806835 38,000 294 451 0
2022-08-03 07:43:17 GMT 41.528042 15.833087 38,000 294 451 -64
2022-08-03 07:43:13 GMT 41.528042 15.833087 38,000 294 451 0
2022-08-03 07:43:08 GMT 41.523293 15.847587 38,000 294 452 64
2022-08-03 07:43:03 GMT 41.519848 15.858190 38,000 294 452 0
2022-08-03 07:42:56 GMT 41.514038 15.875931 38,000 294 452 64
2022-08-03 07:42:52 GMT 41.510818 15.885847 38,000 294 452 64
2022-08-03 07:42:47 GMT 41.506348 15.899580 38,000 294 452 64
2022-08-03 07:42:43 GMT 41.502625 15.911077 38,000 294 452 -64
2022-08-03 07:42:36 GMT 41.497284 15.927367 38,000 294 453 -64
2022-08-03 07:42:32 GMT 41.494152 15.936883 38,000 294 452 0
2022-08-03 07:42:27 GMT 41.488861 15.952835 38,000 294 452 -64
2022-08-03 07:42:21 GMT 41.485153 15.963946 38,000 294 452 -128
2022-08-03 07:42:16 GMT 41.480373 15.978401 38,000 294 451 64
2022-08-03 07:42:12 GMT 41.477066 15.988365 38,000 294 451 64
2022-08-03 07:42:05 GMT 41.471237 16.005770 38,000 294 451 0
2022-08-03 07:42:02 GMT 41.468082 16.015320 38,000 294 451 64
2022-08-03 07:41:54 GMT 41.462215 16.032949 38,000 294 452 64
2022-08-03 07:41:51 GMT 41.459290 16.041723 38,000 294 452 0
2022-08-03 07:41:46 GMT 41.454529 16.056082 38,000 294 452 -64
2022-08-03 07:41:40 GMT 41.450298 16.068718 38,000 294 451 -64
2022-08-03 07:41:35 GMT 41.445736 16.082451 38,000 294 451 64
2022-08-03 07:41:30 GMT 41.441547 16.095161 38,000 294 451 64
2022-08-03 07:41:25 GMT 41.437263 16.107874 38,000 294 451 0
2022-08-03 07:41:20 GMT 41.432373 16.122561 38,000 294 451 0
2022-08-03 07:41:14 GMT 41.428207 16.135109 38,000 294 451 0
2022-08-03 07:41:09 GMT 41.424137 16.147284 38,000 294 452 0
2022-08-03 07:41:05 GMT 41.419693 16.160702 38,000 294 452 0
2022-08-03 07:41:00 GMT 41.416443 16.170502 38,000 294 452 0
2022-08-03 07:40:54 GMT 41.411381 16.185673 38,000 294 452 0
2022-08-03 07:40:50 GMT 41.407837 16.196344 38,000 294 453 0
2022-08-03 07:40:44 GMT 41.402767 16.211670 38,000 294 453 0
2022-08-03 07:40:40 GMT 41.399277 16.222208 38,000 294 453 0
2022-08-03 07:40:33 GMT 41.393459 16.239838 38,000 294 453 0
2022-08-03 07:40:30 GMT 41.390060 16.250120 38,000 294 453 0
2022-08-03 07:40:24 GMT 41.385086 16.265137 38,000 294 453 0
2022-08-03 07:40:18 GMT 41.381447 16.276182 38,000 294 453 0
2022-08-03 07:40:13 GMT 41.376419 16.291351 38,000 294 453 64
2022-08-03 07:40:08 GMT 41.372955 16.301697 38,000 294 453 0
2022-08-03 07:40:02 GMT 41.367764 16.317320 38,000 294 453 0
2022-08-03 07:39:59 GMT 41.364319 16.327620 38,000 294 453 0
2022-08-03 07:39:52 GMT 41.359104 16.343287 38,000 294 453 0
2022-08-03 07:39:48 GMT 41.355743 16.353333 38,000 295 452 0
2022-08-03 07:39:43 GMT 41.350304 16.369505 38,000 295 452 -64
2022-08-03 07:39:37 GMT 41.343155 16.390869 38,000 294 451 0
2022-08-03 07:39:32 GMT 41.341507 16.395784 38,000 294 451 0
2022-08-03 07:39:22 GMT 41.330891 16.427557 38,000 294 451 0
2022-08-03 07:39:13 GMT 41.326797 16.439854 38,000 295 452 0
2022-08-03 07:39:09 GMT 41.321640 16.455261 38,000 295 452 0
2022-08-03 07:39:02 GMT 41.316605 16.470215 38,000 295 452 0
2022-08-03 07:38:57 GMT 41.312550 16.482239 38,000 295 451 0
2022-08-03 07:38:54 GMT 41.309803 16.490479 38,000 295 451 0
2022-08-03 07:38:47 GMT 41.303970 16.507812 38,000 295 451 64
2022-08-03 07:38:42 GMT 41.299934 16.519817 38,000 295 451 64
2022-08-03 07:38:38 GMT 41.295914 16.531799 38,000 295 451 0
2022-08-03 07:38:33 GMT 41.291702 16.544189 38,000 295 449 0
2022-08-03 07:38:27 GMT 41.286621 16.559448 38,000 295 449 0
2022-08-03 07:38:22 GMT 41.280476 16.577682 38,000 295 449 -64
2022-08-03 07:38:16 GMT 41.277077 16.587795 38,000 295 448 -64
2022-08-03 07:38:09 GMT 41.270096 16.608582 38,000 295 448 0
2022-08-03 07:38:03 GMT 41.266663 16.618713 38,000 295 448 0
2022-08-03 07:37:56 GMT 41.260738 16.636297 38,000 295 448 0
2022-08-03 07:37:53 GMT 41.258331 16.643433 38,000 295 448 0
2022-08-03 07:37:46 GMT 41.252197 16.661560 38,000 295 447 0
2022-08-03 07:37:43 GMT 41.249542 16.669373 38,000 295 447 64
2022-08-03 07:37:37 GMT 41.243546 16.687195 38,000 295 447 0
2022-08-03 07:37:34 GMT 41.241074 16.694519 38,000 295 447 0
2022-08-03 07:37:24 GMT 41.233692 16.716261 38,000 295 446 0
2022-08-03 07:37:13 GMT 41.224365 16.743713 38,000 295 444 0
2022-08-03 07:37:04 GMT 41.215897 16.768677 38,000 295 444 0
2022-08-03 07:36:56 GMT 41.209213 16.788330 38,000 295 444 0
2022-08-03 07:36:53 GMT 41.207520 16.793335 38,000 295 444 0
2022-08-03 07:36:48 GMT 41.201523 16.811096 38,000 295 442 0
2022-08-03 07:36:45 GMT 41.200607 16.813782 38,000 295 442 0
2022-08-03 07:36:42 GMT 41.198273 16.820740 38,000 295 442 0
2022-08-03 07:36:35 GMT 41.192398 16.837984 38,000 295 442 0
2022-08-03 07:36:32 GMT 41.190304 16.844288 38,000 295 441 0
2022-08-03 07:36:23 GMT 41.181564 16.870117 38,000 295 440 0
2022-08-03 07:36:14 GMT 41.174881 16.889709 38,000 295 440 0
2022-08-03 07:36:11 GMT 41.172752 16.895973 38,000 295 440 0
2022-08-03 07:36:04 GMT 41.166504 16.914246 38,000 295 439 0
2022-08-03 07:36:01 GMT 41.164032 16.921448 38,000 295 439 0
2022-08-03 07:35:52 GMT 41.155994 16.944975 38,000 295 439 0
2022-08-03 07:35:48 GMT 41.151573 16.957958 38,000 295 438 0
2022-08-03 07:35:41 GMT 41.147095 16.971069 38,000 295 438 0
2022-08-03 07:35:33 GMT 41.140541 16.990232 38,000 295 437 0
2022-08-03 07:35:30 GMT 41.138214 16.996973 38,000 295 437 0
2022-08-03 07:35:24 GMT 41.132488 17.013578 38,000 295 436 0
2022-08-03 07:35:20 GMT 41.129974 17.020882 38,000 295 436 0
2022-08-03 07:35:11 GMT 41.121361 17.045912 38,000 295 435 0
2022-08-03 07:35:00 GMT 41.112190 17.072691 38,000 295 434 0
2022-08-03 07:34:52 GMT 41.106583 17.089172 38,000 295 434 0
2022-08-03 07:34:49 GMT 41.103951 17.096973 38,000 295 434 0
2022-08-03 07:34:42 GMT 41.097759 17.115076 38,000 295 433 0
2022-08-03 07:34:38 GMT 41.095245 17.122379 38,000 295 433 0
2022-08-03 07:34:31 GMT 41.089462 17.139221 38,000 295 432 0
2022-08-03 07:34:28 GMT 41.086624 17.147583 38,000 295 432 0
2022-08-03 07:34:21 GMT 41.081184 17.163391 38,000 295 431 64
2022-08-03 07:34:17 GMT 41.077507 17.174065 38,000 295 431 0
2022-08-03 07:34:11 GMT 41.072853 17.187611 38,000 295 430 -64
2022-08-03 07:34:07 GMT 41.069363 17.197723 38,000 295 430 -64
2022-08-03 07:34:02 GMT 41.064148 17.212830 38,000 295 430 0
2022-08-03 07:33:57 GMT 41.061028 17.221819 38,000 295 429 0
2022-08-03 07:33:50 GMT 41.055450 17.238098 38,000 295 429 0
2022-08-03 07:33:46 GMT 41.051998 17.248222 38,000 295 429 0
2022-08-03 07:33:40 GMT 41.047348 17.261719 38,000 295 428 0
2022-08-03 07:33:36 GMT 41.044052 17.271362 38,000 295 428 0
2022-08-03 07:33:30 GMT 41.039242 17.285301 38,000 295 428 0
2022-08-03 07:33:26 GMT 41.035538 17.296082 38,000 295 426 0
2022-08-03 07:33:21 GMT 41.030960 17.309509 38,000 295 426 0
2022-08-03 07:33:17 GMT 41.028397 17.316950 38,000 295 426 0
2022-08-03 07:33:14 GMT 41.026348 17.323006 38,000 295 426 0
2022-08-03 07:33:10 GMT 41.022400 17.334412 38,000 295 426 0
2022-08-03 07:33:05 GMT 41.018295 17.346352 38,000 295 426 0
2022-08-03 07:33:00 GMT 41.014114 17.358459 38,000 295 426 0
2022-08-03 07:32:54 GMT 41.009995 17.370422 38,000 295 425 0
2022-08-03 07:32:49 GMT 41.005508 17.383362 38,000 295 425 0
2022-08-03 07:32:45 GMT 41.002560 17.391981 38,000 295 425 0
2022-08-03 07:32:42 GMT 40.998882 17.402470 38,000 295 425 0
2022-08-03 07:32:35 GMT 40.994411 17.415327 38,000 295 425 0
2022-08-03 07:32:31 GMT 40.990547 17.426439 38,000 295 425 0
2022-08-03 07:32:25 GMT 40.985661 17.440296 38,000 295 425 0
2022-08-03 07:32:21 GMT 40.982357 17.449785 38,000 295 425 0
2022-08-03 07:32:18 GMT 40.979919 17.456787 38,000 295 425 0
2022-08-03 07:32:15 GMT 40.977173 17.464661 38,000 295 425 0
2022-08-03 07:32:11 GMT 40.973885 17.474068 38,000 295 425 0
2022-08-03 07:32:08 GMT 40.971371 17.481182 38,000 295 425 0
2022-08-03 07:32:05 GMT 40.969254 17.487244 38,000 295 425 0
2022-08-03 07:32:02 GMT 40.966827 17.494141 38,000 295 425 0
2022-08-03 07:31:59 GMT 40.963760 17.502991 38,000 295 425 0
2022-08-03 07:31:55 GMT 40.960800 17.511333 38,000 295 425 0
2022-08-03 07:31:51 GMT 40.957581 17.520508 38,000 295 425 0
2022-08-03 07:31:48 GMT 40.955109 17.527527 38,000 295 425 0
2022-08-03 07:31:44 GMT 40.952042 17.536316 38,000 295 425 0
2022-08-03 07:31:41 GMT 40.948326 17.546850 38,000 295 425 0
2022-08-03 07:31:34 GMT 40.941204 17.567202 38,000 295 425 0
2022-08-03 07:31:31 GMT 40.941204 17.567202 38,000 295 425 0
2022-08-03 07:31:27 GMT 40.937946 17.576565 38,000 295 425 0
2022-08-03 07:31:23 GMT 40.932816 17.591370 38,000 295 425 0
2022-08-03 07:31:18 GMT 40.929565 17.600647 38,000 295 425 0
2022-08-03 07:31:13 GMT 40.926353 17.610023 38,000 295 425 0
2022-08-03 07:31:10 GMT 40.923794 17.617327 38,000 295 425 64
2022-08-03 07:31:07 GMT 40.921646 17.623596 38,000 295 425 0
2022-08-03 07:31:03 GMT 40.917892 17.634399 38,000 295 425 0
2022-08-03 07:31:00 GMT 40.915695 17.640869 38,000 295 425 -64
2022-08-03 07:30:57 GMT 40.913177 17.648100 38,000 296 425 0
2022-08-03 07:30:53 GMT 40.909927 17.656921 38,000 297 425 0
2022-08-03 07:30:50 GMT 40.906475 17.665892 38,000 299 426 0
2022-08-03 07:30:47 GMT 40.904114 17.671692 38,000 300 427 0
2022-08-03 07:30:41 GMT 40.898666 17.684082 38,000 302 427 0
2022-08-03 07:30:36 GMT 40.893219 17.695435 38,000 303 428 0
2022-08-03 07:30:33 GMT 40.889603 17.702820 38,000 303 428 -64
2022-08-03 07:30:26 GMT 40.882233 17.717957 38,000 303 428 64
2022-08-03 07:30:22 GMT 40.877987 17.726690 38,000 303 428 0
2022-08-03 07:30:16 GMT 40.871655 17.739674 38,000 303 428 64
2022-08-03 07:30:12 GMT 40.867310 17.748535 38,000 303 428 -64
2022-08-03 07:30:06 GMT 40.860626 17.762146 38,000 303 428 0
2022-08-03 07:30:02 GMT 40.856918 17.769714 38,000 303 426 0
2022-08-03 07:29:59 GMT 40.849319 17.785278 38,000 303 426 0
2022-08-03 07:29:56 GMT 40.849319 17.785278 38,000 303 427 0
2022-08-03 07:29:52 GMT 40.844925 17.794189 38,000 303 427 0
2022-08-03 07:29:49 GMT 40.841949 17.800232 38,000 303 428 0
2022-08-03 07:29:45 GMT 40.838745 17.806885 38,000 303 428 0
2022-08-03 07:29:41 GMT 40.834305 17.815918 38,000 303 427 0
2022-08-03 07:29:35 GMT 40.827393 17.829956 38,000 303 427 0
2022-08-03 07:29:30 GMT 40.822449 17.840050 38,000 303 426 0
2022-08-03 07:29:25 GMT 40.816635 17.851990 38,000 303 426 0
2022-08-03 07:29:21 GMT 40.812424 17.860535 38,000 303 426 0
2022-08-03 07:29:14 GMT 40.805237 17.875244 38,000 303 427 0
2022-08-03 07:29:10 GMT 40.800941 17.884119 38,000 303 427 64
2022-08-03 07:29:07 GMT 40.797543 17.891048 38,000 303 427 64
2022-08-03 07:29:04 GMT 40.793930 17.898499 38,000 303 427 0
2022-08-03 07:29:00 GMT 40.791183 17.904175 38,000 303 427 0
2022-08-03 07:28:57 GMT 40.786606 17.913584 38,000 303 427 -64
2022-08-03 07:28:53 GMT 40.783390 17.920198 38,000 303 426 -64
2022-08-03 07:28:49 GMT 40.779060 17.929064 38,000 303 427 0
2022-08-03 07:28:44 GMT 40.773148 17.941040 38,000 303 427 0
2022-08-03 07:28:40 GMT 40.768078 17.951410 38,000 303 427 0
2022-08-03 07:28:36 GMT 40.764912 17.957840 38,000 303 427 0
2022-08-03 07:28:33 GMT 40.761513 17.964769 38,000 303 427 0
2022-08-03 07:28:30 GMT 40.758068 17.971699 38,000 303 427 64
2022-08-03 07:28:27 GMT 40.754654 17.978699 38,000 303 427 -64
2022-08-03 07:28:23 GMT 40.750340 17.987366 38,000 303 427 0
2022-08-03 07:28:18 GMT 40.746101 17.996042 38,000 303 427 -64
2022-08-03 07:28:13 GMT 40.740005 18.008465 38,000 303 427 0
2022-08-03 07:28:09 GMT 40.735165 18.018328 38,000 303 427 0
2022-08-03 07:28:03 GMT 40.729156 18.030518 38,000 303 427 0
2022-08-03 07:27:57 GMT 40.722885 18.043213 38,000 303 427 0
2022-08-03 07:27:52 GMT 40.717896 18.053406 38,000 303 427 0
2022-08-03 07:27:49 GMT 40.714027 18.061150 38,000 303 427 -64
2022-08-03 07:27:45 GMT 40.710163 18.069014 38,000 303 427 0
2022-08-03 07:27:41 GMT 40.706207 18.077129 38,000 303 427 64
2022-08-03 07:27:37 GMT 40.701187 18.087341 38,000 303 427 0
2022-08-03 07:27:31 GMT 40.695732 18.098415 38,000 303 427 -64
2022-08-03 07:27:26 GMT 40.690056 18.109962 38,000 303 427 0
2022-08-03 07:27:21 GMT 40.684326 18.121635 38,000 303 427 64
2022-08-03 07:27:17 GMT 40.679947 18.130432 38,000 303 426 0
2022-08-03 07:27:11 GMT 40.673527 18.143545 38,000 303 426 0
2022-08-03 07:27:06 GMT 40.668827 18.153034 38,000 303 426 -64
2022-08-03 07:27:00 GMT 40.661518 18.167891 38,000 303 426 0
2022-08-03 07:26:57 GMT 40.657791 18.175383 38,000 303 426 0
2022-08-03 07:26:53 GMT 40.652626 18.185806 38,000 303 426 0
2022-08-03 07:26:50 GMT 40.651184 18.188740 38,000 303 426 0
2022-08-03 07:26:45 GMT 40.646393 18.198547 38,000 303 426 0
2022-08-03 07:26:37 GMT 40.637032 18.217518 38,000 303 426 -64
2022-08-03 07:26:34 GMT 40.633820 18.224072 38,000 303 426 -64
2022-08-03 07:26:29 GMT 40.628311 18.235291 38,000 303 426 0
2022-08-03 07:26:24 GMT 40.616966 18.258280 38,000 304 424 0
2022-08-03 07:26:18 GMT 40.616966 18.258280 38,000 304 425 0
2022-08-03 07:26:15 GMT 40.613617 18.265015 38,000 304 425 0
2022-08-03 07:26:08 GMT 40.606064 18.280273 38,000 304 425 0
2022-08-03 07:26:05 GMT 40.602676 18.287054 38,000 304 426 0
2022-08-03 07:25:58 GMT 40.595459 18.301600 38,000 304 425 0
2022-08-03 07:25:55 GMT 40.590340 18.311836 38,000 304 425 0
2022-08-03 07:25:45 GMT 40.579910 18.332748 38,000 304 425 0
2022-08-03 07:25:37 GMT 40.572929 18.346668 38,000 304 424 0
2022-08-03 07:25:33 GMT 40.568893 18.354797 38,000 304 424 0
2022-08-03 07:25:26 GMT 40.561569 18.369390 38,000 304 424 0
2022-08-03 07:25:23 GMT 40.557678 18.377197 38,000 304 424 0
2022-08-03 07:25:19 GMT 40.553143 18.386244 38,000 304 424 0
2022-08-03 07:25:16 GMT 40.550674 18.391174 38,000 304 423 0
2022-08-03 07:25:13 GMT 40.547287 18.397949 38,000 304 423 0
2022-08-03 07:25:07 GMT 40.540855 18.410713 38,000 304 423 -64
2022-08-03 07:25:04 GMT 40.536209 18.419983 38,000 304 424 0
2022-08-03 07:24:53 GMT 40.525166 18.442238 38,000 303 422 0
2022-08-03 07:24:45 GMT 40.516937 18.458862 38,000 303 422 0
2022-08-03 07:24:42 GMT 40.514191 18.464417 38,000 303 422 0
2022-08-03 07:24:33 GMT 40.502869 18.487181 38,000 304 422 0
2022-08-03 07:24:22 GMT 40.492447 18.508240 38,000 304 422 0
2022-08-03 07:24:14 GMT 40.483795 18.525574 38,000 304 421 0
2022-08-03 07:24:11 GMT 40.481094 18.531006 38,000 304 421 0
2022-08-03 07:24:02 GMT 40.471493 18.550228 38,000 304 421 0
2022-08-03 07:23:59 GMT 40.467819 18.557495 38,000 304 421 0
2022-08-03 07:23:52 GMT 40.459625 18.573853 38,000 304 421 64
2022-08-03 07:23:42 GMT 40.449600 18.593689 38,000 304 422 0
2022-08-03 07:23:31 GMT 40.437469 18.617615 38,000 304 421 64
2022-08-03 07:23:22 GMT 40.427963 18.636620 38,000 304 421 -64
2022-08-03 07:23:18 GMT 40.423496 18.645609 38,000 304 421 -64
2022-08-03 07:23:10 GMT 40.415161 18.662212 38,000 304 420 0
2022-08-03 07:23:00 GMT 40.404556 18.683411 38,000 304 419 0
2022-08-03 07:22:49 GMT 40.393524 18.705566 38,000 304 419 0
2022-08-03 07:22:40 GMT 40.382298 18.727882 38,000 304 419 64
2022-08-03 07:22:30 GMT 40.372707 18.746983 38,000 304 419 0
2022-08-03 07:22:27 GMT 40.370148 18.752102 38,000 304 419 0
2022-08-03 07:22:18 GMT 40.360153 18.771851 38,000 304 419 0
2022-08-03 07:22:09 GMT 40.349804 18.792301 38,000 304 419 0
2022-08-03 07:21:58 GMT 40.338818 18.813900 38,000 304 419 0
2022-08-03 07:21:48 GMT 40.328110 18.835060 38,000 304 419 0
2022-08-03 07:21:38 GMT 40.316940 18.857178 38,000 304 420 0
2022-08-03 07:21:33 GMT 40.311493 18.867920 38,000 304 420 0
2022-08-03 07:21:27 GMT 40.304352 18.882080 38,000 304 420 -64
2022-08-03 07:21:16 GMT 40.293457 18.903748 38,000 304 420 0
2022-08-03 07:21:08 GMT 40.284851 18.920715 38,000 304 420 0
2022-08-03 07:21:05 GMT 40.282425 18.925598 38,000 304 420 0
2022-08-03 07:20:57 GMT 40.272171 18.946045 38,000 304 421 0
2022-08-03 07:20:46 GMT 40.261551 18.967102 38,000 304 420 -64
2022-08-03 07:20:35 GMT 40.249718 18.990368 38,000 304 421 0
2022-08-03 07:20:24 GMT 40.239010 19.013214 38,000 300 418 0
2022-08-03 07:20:15 GMT 40.229698 19.034250 38,000 301 418 0
2022-08-03 07:20:04 GMT 40.219460 19.057283 38,000 300 418 0
2022-08-03 07:19:53 GMT 40.209354 19.080193 38,000 301 419 -64
2022-08-03 07:19:43 GMT 40.199207 19.102978 38,000 301 419 0
2022-08-03 07:19:33 GMT 40.189316 19.125244 38,000 301 419 0
2022-08-03 07:19:22 GMT 40.179016 19.148376 38,000 301 420 64
2022-08-03 07:19:14 GMT 40.170685 19.167114 38,000 301 420 0
2022-08-03 07:19:11 GMT 40.168076 19.172913 38,000 301 420 0
2022-08-03 07:19:02 GMT 40.158646 19.194092 38,000 301 420 0
2022-08-03 07:18:54 GMT 40.151138 19.210938 38,000 301 420 0
2022-08-03 07:18:51 GMT 40.148697 19.216461 38,000 301 420 0
2022-08-03 07:18:44 GMT 40.141251 19.233215 38,000 301 421 0
2022-08-03 07:18:41 GMT 40.138363 19.239620 38,000 301 421 0
2022-08-03 07:18:30 GMT 40.128170 19.262466 38,000 301 421 -64
2022-08-03 07:18:20 GMT 40.117905 19.285400 38,000 301 421 0
2022-08-03 07:18:12 GMT 40.109665 19.303772 38,000 301 422 0
2022-08-03 07:18:09 GMT 40.107651 19.308350 38,000 301 422 0
2022-08-03 07:18:02 GMT 40.100327 19.324646 38,000 301 422 0
2022-08-03 07:17:59 GMT 40.097031 19.332092 38,000 301 422 0
2022-08-03 07:17:52 GMT 40.089569 19.348816 38,000 300 422 0
2022-08-03 07:17:49 GMT 40.087509 19.353455 38,000 300 422 0
2022-08-03 07:17:41 GMT 40.079708 19.371080 38,000 301 422 0
2022-08-03 07:17:38 GMT 40.076866 19.377386 38,000 301 422 0
2022-08-03 07:17:31 GMT 40.070160 19.392517 38,000 301 422 0
2022-08-03 07:17:28 GMT 40.066681 19.400269 38,000 301 422 0
2022-08-03 07:17:20 GMT 40.059631 19.416077 38,000 301 423 0
2022-08-03 07:17:17 GMT 40.056152 19.423891 38,000 301 423 0
2022-08-03 07:17:10 GMT 40.049122 19.439560 38,000 301 423 0
2022-08-03 07:17:07 GMT 40.046402 19.445679 38,000 301 423 0
2022-08-03 07:17:00 GMT 40.039116 19.461843 38,000 301 423 0
2022-08-03 07:16:57 GMT 40.036041 19.468710 38,000 301 423 0
2022-08-03 07:16:49 GMT 40.029053 19.484253 38,000 301 423 0
2022-08-03 07:16:46 GMT 40.026123 19.490784 38,000 301 423 0
2022-08-03 07:16:39 GMT 40.017563 19.509766 38,000 301 423 0
2022-08-03 07:16:36 GMT 40.015560 19.514215 38,000 301 423 0
2022-08-03 07:16:29 GMT 40.005131 19.537312 38,000 301 424 0
2022-08-03 07:16:25 GMT 40.005131 19.537312 38,000 301 424 0
2022-08-03 07:16:18 GMT 39.997730 19.553728 38,000 301 424 0
2022-08-03 07:16:15 GMT 39.994904 19.559998 38,000 301 424 0
2022-08-03 07:16:09 GMT 39.988232 19.574827 38,000 301 423 -64
2022-08-03 07:16:05 GMT 39.984833 19.582317 38,000 301 423 0
2022-08-03 07:15:58 GMT 39.977783 19.597961 38,000 301 423 64
2022-08-03 07:15:54 GMT 39.974316 19.605726 38,000 301 423 64
2022-08-03 07:15:47 GMT 39.967518 19.620771 38,000 301 423 0
2022-08-03 07:15:44 GMT 39.964119 19.628325 38,000 301 423 0
2022-08-03 07:15:37 GMT 39.957367 19.643250 38,000 301 423 0
2022-08-03 07:15:33 GMT 39.953644 19.651421 38,000 301 423 0
2022-08-03 07:15:28 GMT 39.946930 19.666199 38,000 301 423 0
2022-08-03 07:15:23 GMT 39.943401 19.674017 38,000 301 423 0
2022-08-03 07:15:17 GMT 39.937073 19.687937 38,000 301 422 0
2022-08-03 07:15:13 GMT 39.933022 19.696863 38,000 301 422 0
2022-08-03 07:15:07 GMT 39.926922 19.710346 38,000 301 422 0
2022-08-03 07:15:02 GMT 39.922806 19.719482 38,000 301 422 0
2022-08-03 07:14:56 GMT 39.915890 19.734619 38,000 301 422 0
2022-08-03 07:14:51 GMT 39.911774 19.743805 38,000 301 422 0
2022-08-03 07:14:46 GMT 39.906784 19.754732 38,000 301 422 0
2022-08-03 07:14:41 GMT 39.902069 19.765181 38,000 301 422 0
2022-08-03 07:14:36 GMT 39.891724 19.787989 38,000 301 422 0
2022-08-03 07:14:31 GMT 39.891724 19.787989 38,000 301 422 0
2022-08-03 07:14:26 GMT 39.886608 19.799316 38,000 301 422 64
2022-08-03 07:14:20 GMT 39.881332 19.810917 38,000 301 422 0
2022-08-03 07:14:16 GMT 39.875530 19.823730 38,000 301 422 0
2022-08-03 07:14:10 GMT 39.870941 19.833784 38,000 301 422 0
2022-08-03 07:14:04 GMT 39.865036 19.846861 38,000 301 422 0
2022-08-03 07:14:00 GMT 39.861008 19.855759 38,000 301 422 0
2022-08-03 07:13:55 GMT 39.856155 19.866505 38,000 301 421 0
2022-08-03 07:13:49 GMT 39.850616 19.878687 38,000 301 421 0
2022-08-03 07:13:44 GMT 39.845581 19.889732 38,000 301 421 0
2022-08-03 07:13:38 GMT 39.839493 19.903286 38,000 301 421 0
2022-08-03 07:13:34 GMT 39.835354 19.912354 38,000 301 421 0
2022-08-03 07:13:28 GMT 39.829258 19.925720 38,000 301 421 0
2022-08-03 07:13:22 GMT 39.823437 19.938538 38,000 301 421 0
2022-08-03 07:13:16 GMT 39.817200 19.952209 38,000 301 421 0
2022-08-03 07:13:13 GMT 39.814686 19.957764 38,000 301 421 0
2022-08-03 07:13:07 GMT 39.809006 19.970093 38,000 301 421 0
2022-08-03 07:13:04 GMT 39.804657 19.979712 38,000 301 420 -64
2022-08-03 07:12:56 GMT 39.797367 19.995728 38,000 301 420 0
2022-08-03 07:12:52 GMT 39.793579 20.004013 38,000 301 420 0
2022-08-03 07:12:47 GMT 39.788570 20.014954 38,000 301 420 0
2022-08-03 07:12:43 GMT 39.784607 20.023539 38,000 301 420 0
2022-08-03 07:12:36 GMT 39.777924 20.038227 38,000 301 420 -64
2022-08-03 07:12:33 GMT 39.774948 20.044676 38,000 301 420 0
2022-08-03 07:12:26 GMT 39.767761 20.060377 38,000 301 420 0
2022-08-03 07:12:20 GMT 39.762177 20.072632 38,000 301 420 0
2022-08-03 07:12:15 GMT 39.757099 20.083679 38,000 301 420 0
2022-08-03 07:12:11 GMT 39.753113 20.092442 38,000 301 420 0
2022-08-03 07:12:05 GMT 39.747093 20.105591 38,000 301 421 0
2022-08-03 07:12:02 GMT 39.744019 20.112305 38,000 301 421 0
2022-08-03 07:11:55 GMT 39.737000 20.127609 38,000 301 421 0
2022-08-03 07:11:51 GMT 39.732559 20.137283 38,000 301 421 0
2022-08-03 07:11:43 GMT 39.725327 20.152987 38,000 301 421 64
2022-08-03 07:11:39 GMT 39.719742 20.165167 38,000 301 421 0
2022-08-03 07:11:34 GMT 39.715851 20.173645 38,000 301 421 0
2022-08-03 07:11:29 GMT 39.711201 20.183777 38,000 301 421 0
2022-08-03 07:11:23 GMT 39.705872 20.195438 38,000 301 421 0
2022-08-03 07:11:17 GMT 39.698502 20.211439 38,000 301 421 0
2022-08-03 07:11:13 GMT 39.694931 20.219202 38,000 301 421 -64
2022-08-03 07:11:07 GMT 39.689552 20.230896 38,000 301 421 0
2022-08-03 07:11:03 GMT 39.685226 20.240339 38,000 301 421 64
2022-08-03 07:11:00 GMT 39.682068 20.247206 38,000 301 421 64
2022-08-03 07:10:49 GMT 39.671814 20.269596 38,000 301 421 0
2022-08-03 07:10:42 GMT 39.664368 20.285767 38,000 301 422 0
2022-08-03 07:10:38 GMT 39.660366 20.294556 38,000 301 422 0
2022-08-03 07:10:30 GMT 39.652126 20.312439 38,000 301 422 0
2022-08-03 07:10:18 GMT 39.639908 20.338858 38,000 301 422 0
2022-08-03 07:10:09 GMT 39.631485 20.357069 38,000 301 424 0
2022-08-03 07:09:59 GMT 39.621048 20.379639 38,000 301 424 0
2022-08-03 07:09:49 GMT 39.611767 20.399719 38,000 301 424 0
2022-08-03 07:09:46 GMT 39.607948 20.407898 38,000 301 424 0
2022-08-03 07:09:42 GMT 39.604130 20.416138 38,000 301 425 0
2022-08-03 07:09:37 GMT 39.598251 20.428839 38,000 301 425 0
2022-08-03 07:09:32 GMT 39.594040 20.437914 38,000 301 425 0
2022-08-03 07:09:28 GMT 39.589874 20.446930 38,000 301 425 0
2022-08-03 07:09:21 GMT 39.582916 20.461857 38,000 302 426 0
2022-08-03 07:09:18 GMT 39.579529 20.469082 38,000 302 426 0
2022-08-03 07:09:11 GMT 39.573128 20.482849 38,000 302 426 0
2022-08-03 07:09:07 GMT 39.569000 20.491711 38,000 302 427 0
2022-08-03 07:09:01 GMT 39.562744 20.505066 38,000 302 427 0
2022-08-03 07:08:56 GMT 39.556648 20.518127 38,000 302 427 64
2022-08-03 07:08:51 GMT 39.552155 20.527716 38,000 302 427 0
2022-08-03 07:08:48 GMT 39.549152 20.534119 38,000 302 427 0
2022-08-03 07:08:45 GMT 39.545986 20.540894 38,000 302 428 0
2022-08-03 07:08:40 GMT 39.540894 20.551838 38,000 302 428 0
2022-08-03 07:08:36 GMT 39.536682 20.560852 38,000 302 428 0
2022-08-03 07:08:26 GMT 39.526154 20.583435 38,000 301 427 0
2022-08-03 07:08:15 GMT 39.515625 20.606112 38,000 301 427 0
2022-08-03 07:08:05 GMT 39.504913 20.629160 38,000 302 428 0
2022-08-03 07:07:55 GMT 39.495392 20.649521 38,000 302 428 0
2022-08-03 07:07:49 GMT 39.489239 20.662781 38,000 302 428 0
2022-08-03 07:07:45 GMT 39.483810 20.674479 38,000 302 428 0
2022-08-03 07:07:39 GMT 39.478317 20.686180 38,000 302 427 0
2022-08-03 07:07:33 GMT 39.473038 20.697510 38,000 302 427 0
2022-08-03 07:07:29 GMT 39.468338 20.707617 38,000 302 427 0
2022-08-03 07:07:24 GMT 39.463348 20.718185 38,000 302 427 0
2022-08-03 07:07:20 GMT 39.459686 20.726126 38,000 302 427 0
2022-08-03 07:07:14 GMT 39.452602 20.741211 38,000 302 427 0
2022-08-03 07:07:03 GMT 39.442108 20.763742 38,000 301 427 0
2022-08-03 07:06:53 GMT 39.431606 20.786316 38,000 302 427 64
2022-08-03 07:06:42 GMT 39.420959 20.809179 38,000 302 427 0
2022-08-03 07:06:38 GMT 39.416340 20.819092 38,000 302 427 0
2022-08-03 07:06:31 GMT 39.409634 20.833374 38,000 302 427 0
2022-08-03 07:06:27 GMT 39.405762 20.841602 38,000 302 427 0
2022-08-03 07:06:23 GMT 39.400928 20.851929 38,000 302 427 0
2022-08-03 07:06:20 GMT 39.398090 20.857971 38,000 302 427 0
2022-08-03 07:06:17 GMT 39.394913 20.864710 38,000 302 427 0
2022-08-03 07:06:12 GMT 39.390564 20.874023 38,000 302 427 0
2022-08-03 07:06:07 GMT 39.384636 20.886597 38,000 302 428 0
2022-08-03 07:06:01 GMT 39.378571 20.899578 38,000 302 428 0
2022-08-03 07:05:58 GMT 39.375465 20.906067 38,000 302 428 0
2022-08-03 07:05:55 GMT 39.372757 20.911819 38,000 302 428 0
2022-08-03 07:05:50 GMT 39.366989 20.924120 38,000 302 428 0
2022-08-03 07:05:44 GMT 39.361732 20.935242 38,000 302 428 0
2022-08-03 07:05:41 GMT 39.358383 20.942389 38,000 302 428 0
2022-08-03 07:05:36 GMT 39.353165 20.953495 38,000 302 428 0
2022-08-03 07:05:29 GMT 39.346138 20.968323 38,000 302 428 0
2022-08-03 07:05:20 GMT 39.336685 20.988365 38,000 302 428 0
2022-08-03 07:05:14 GMT 39.329285 21.004089 38,000 302 428 0
2022-08-03 07:05:08 GMT 39.324257 21.014832 38,000 302 428 0
2022-08-03 07:05:03 GMT 39.319016 21.025982 38,000 302 428 0
2022-08-03 07:04:59 GMT 39.312107 21.040649 38,000 302 428 0
2022-08-03 07:04:50 GMT 39.305172 21.055359 38,000 302 428 0
2022-08-03 07:04:38 GMT 39.293488 21.080139 38,000 302 428 0
2022-08-03 07:04:30 GMT 39.285095 21.097811 38,000 302 428 0
2022-08-03 07:04:27 GMT 39.282120 21.104080 38,000 302 428 0
2022-08-03 07:04:19 GMT 39.274261 21.120728 38,000 302 428 64
2022-08-03 07:04:16 GMT 39.270721 21.128141 38,000 302 428 64
2022-08-03 07:04:09 GMT 39.262531 21.145386 38,000 302 428 0
2022-08-03 07:03:59 GMT 39.253189 21.165043 38,000 302 428 0
2022-08-03 07:03:56 GMT 39.249680 21.172546 38,000 302 428 0
2022-08-03 07:03:47 GMT 39.241287 21.190298 38,000 302 428 -64
2022-08-03 07:03:37 GMT 39.230530 21.212929 38,000 302 428 0
2022-08-03 07:03:27 GMT 39.219749 21.235535 38,000 302 427 0
2022-08-03 07:03:18 GMT 39.210754 21.254543 38,000 302 427 0
2022-08-03 07:03:11 GMT 39.200363 21.276398 38,000 302 427 0
2022-08-03 07:03:06 GMT 39.198257 21.280815 38,000 302 427 0
2022-08-03 07:02:56 GMT 39.187859 21.302612 38,000 302 427 0
2022-08-03 07:02:45 GMT 39.176651 21.326195 38,000 302 426 0
2022-08-03 07:02:37 GMT 39.168228 21.343868 38,000 302 426 0
2022-08-03 07:02:32 GMT 39.160069 21.360962 38,000 302 426 0
2022-08-03 07:02:24 GMT 39.155369 21.370850 38,000 302 426 0
2022-08-03 07:02:14 GMT 39.144707 21.393066 38,000 302 426 0
2022-08-03 07:02:03 GMT 39.133667 21.416235 38,000 302 426 0
2022-08-03 07:01:53 GMT 39.120358 21.444092 38,000 302 426 0
2022-08-03 07:01:46 GMT 39.115631 21.454029 38,000 302 426 0
2022-08-03 07:01:43 GMT 39.112610 21.460299 38,000 302 426 0
2022-08-03 07:01:35 GMT 39.104439 21.477356 38,000 302 426 0
2022-08-03 07:01:32 GMT 39.102062 21.482422 38,000 302 426 0
2022-08-03 07:01:25 GMT 39.093594 21.500122 38,000 302 426 0
2022-08-03 07:01:22 GMT 39.091217 21.505066 38,000 302 426 0
2022-08-03 07:01:15 GMT 39.083908 21.520325 38,000 302 427 0
2022-08-03 07:01:12 GMT 39.080933 21.526575 38,000 302 427 0
2022-08-03 07:01:04 GMT 39.072502 21.544128 38,000 302 426 0
2022-08-03 07:01:01 GMT 39.069897 21.549500 38,000 302 426 0
2022-08-03 07:00:54 GMT 39.061703 21.566650 38,000 302 427 -64
2022-08-03 07:00:51 GMT 39.058960 21.572311 38,000 302 427 -64
2022-08-03 07:00:43 GMT 39.050716 21.589539 38,000 302 426 0
2022-08-03 07:00:40 GMT 39.048065 21.595060 38,000 302 426 0
2022-08-03 07:00:34 GMT 39.040428 21.610962 38,000 302 426 64
2022-08-03 07:00:31 GMT 39.038055 21.616028 38,000 302 426 64
2022-08-03 07:00:22 GMT 39.029396 21.634094 38,000 302 426 0
2022-08-03 07:00:19 GMT 39.026463 21.640137 38,000 302 426 0
2022-08-03 07:00:13 GMT 39.020279 21.653156 38,000 302 426 0
2022-08-03 07:00:10 GMT 39.016617 21.660801 38,000 302 426 0
2022-08-03 07:00:02 GMT 39.007645 21.679548 38,000 302 426 0
2022-08-03 06:59:59 GMT 39.005051 21.684998 38,000 302 426 0
2022-08-03 06:59:53 GMT 38.999268 21.697042 38,000 302 426 0
2022-08-03 06:59:49 GMT 38.995239 21.705402 38,000 302 426 0
2022-08-03 06:59:41 GMT 38.986427 21.723877 38,000 302 427 64
2022-08-03 06:59:37 GMT 38.982880 21.731256 38,000 302 427 64
2022-08-03 06:59:32 GMT 38.977478 21.742481 38,000 302 427 0
2022-08-03 06:59:28 GMT 38.973534 21.750671 38,000 302 427 0
2022-08-03 06:59:21 GMT 38.966457 21.765320 38,000 302 427 0
2022-08-03 06:59:18 GMT 38.962826 21.772888 38,000 302 427 0
2022-08-03 06:59:09 GMT 38.952770 21.793701 38,000 303 429 0
2022-08-03 06:59:06 GMT 38.950562 21.798128 38,000 302 427 0
2022-08-03 06:59:01 GMT 38.944672 21.810303 38,000 303 428 0
2022-08-03 06:58:57 GMT 38.940857 21.818130 38,000 303 428 0
2022-08-03 06:58:50 GMT 38.933945 21.832281 38,000 303 428 0
2022-08-03 06:58:47 GMT 38.930145 21.840088 38,000 303 429 0
2022-08-03 06:58:41 GMT 38.923187 21.854195 38,000 303 429 0
2022-08-03 06:58:36 GMT 38.918976 21.862852 38,000 303 430 0
2022-08-03 06:58:31 GMT 38.912796 21.875450 38,000 302 430 0
2022-08-03 06:58:26 GMT 38.908501 21.884277 38,000 302 430 0
2022-08-03 06:58:21 GMT 38.902679 21.896170 38,000 302 430 64
2022-08-03 06:58:18 GMT 38.900028 21.901550 38,000 302 430 64
2022-08-03 06:58:15 GMT 38.897232 21.907276 38,000 302 430 0
2022-08-03 06:58:10 GMT 38.890671 21.920898 38,000 302 430 0
2022-08-03 06:58:05 GMT 38.886566 21.929426 38,000 302 430 0
2022-08-03 06:58:00 GMT 38.881359 21.940186 38,000 302 429 64
2022-08-03 06:57:57 GMT 38.878143 21.946802 38,000 302 430 0
2022-08-03 06:57:54 GMT 38.875031 21.953312 38,000 302 430 0
2022-08-03 06:57:49 GMT 38.869308 21.965073 38,000 302 429 64
2022-08-03 06:57:45 GMT 38.864960 21.974030 38,000 302 429 0
2022-08-03 06:57:37 GMT 38.856262 21.991882 38,000 302 429 0
2022-08-03 06:57:34 GMT 38.853333 21.997852 38,000 302 429 0
2022-08-03 06:57:27 GMT 38.844864 22.015259 38,000 302 429 0
2022-08-03 06:57:24 GMT 38.843140 22.018738 38,000 302 429 -64
2022-08-03 06:57:17 GMT 38.835571 22.034275 38,000 302 428 -64
2022-08-03 06:57:14 GMT 38.832413 22.040842 38,000 302 428 -128
2022-08-03 06:57:07 GMT 38.824631 22.056665 38,025 303 429 0
2022-08-03 06:57:03 GMT 38.820934 22.064270 38,025 303 429 -64
2022-08-03 06:56:59 GMT 38.812775 22.080908 38,000 303 430 192
2022-08-03 06:56:55 GMT 38.812775 22.080908 37,975 303 430 384
2022-08-03 06:56:49 GMT 38.805714 22.095276 37,975 303 432 1216
2022-08-03 06:56:45 GMT 38.802155 22.102463 37,900 303 432 1408
2022-08-03 06:56:40 GMT 38.793823 22.119419 37,725 303 433 1408
2022-08-03 06:56:36 GMT 38.791122 22.124912 37,650 303 434 1408
2022-08-03 06:56:32 GMT 38.788208 22.130798 37,600 303 435 1472
2022-08-03 06:56:28 GMT 38.780342 22.146790 37,425 303 437 1408
2022-08-03 06:56:25 GMT 38.780342 22.146790 37,400 303 437 1408
2022-08-03 06:56:22 GMT 38.777222 22.153137 37,350 303 438 1344
2022-08-03 06:56:17 GMT 38.771591 22.164612 37,200 303 440 1408
2022-08-03 06:56:14 GMT 38.768921 22.169992 37,175 303 440 1408
2022-08-03 06:56:11 GMT 38.765213 22.177551 37,100 303 440 1344
2022-08-03 06:56:08 GMT 38.758301 22.191666 36,500 302 439 640
2022-08-03 06:56:05 GMT 38.758301 22.191666 36,975 302 442 1216
2022-08-03 06:56:01 GMT 38.754414 22.199646 36,900 302 442 1088
2022-08-03 06:55:57 GMT 38.750175 22.208252 36,850 302 442 896
2022-08-03 06:55:54 GMT 38.747009 22.214783 36,800 302 442 768
2022-08-03 06:55:50 GMT 38.742783 22.223431 36,750 302 442 704
2022-08-03 06:55:47 GMT 38.739441 22.230356 36,725 302 442 704
2022-08-03 06:55:44 GMT 38.736397 22.236511 36,675 303 441 704
2022-08-03 06:55:40 GMT 38.732067 22.245361 36,650 303 441 640
2022-08-03 06:55:37 GMT 38.728809 22.252075 36,600 303 441 704
2022-08-03 06:55:34 GMT 38.724609 22.260689 36,575 303 441 704
2022-08-03 06:55:29 GMT 38.720490 22.269108 36,525 302 439 640
2022-08-03 06:55:24 GMT 38.714859 22.280512 36,175 303 438 704
2022-08-03 06:55:19 GMT 38.709457 22.291557 36,400 303 438 832
2022-08-03 06:55:16 GMT 38.706390 22.297768 36,375 303 438 832
2022-08-03 06:55:13 GMT 38.702362 22.305948 36,325 303 438 768
2022-08-03 06:55:09 GMT 38.699112 22.312576 36,275 303 438 768
2022-08-03 06:55:06 GMT 38.694901 22.321114 36,200 298 430 832
2022-08-03 06:55:01 GMT 38.690403 22.330200 36,125 302 436 768
2022-08-03 06:54:56 GMT 38.684212 22.342957 36,025 299 432 832
2022-08-03 06:54:52 GMT 38.680664 22.350849 36,050 299 432 832
2022-08-03 06:54:48 GMT 38.677231 22.358910 36,000 298 431 832
2022-08-03 06:54:43 GMT 38.671417 22.373598 35,900 295 427 768
2022-08-03 06:54:36 GMT 38.666336 22.387878 35,800 295 426 960
2022-08-03 06:54:33 GMT 38.664093 22.394377 35,675 295 426 1024
2022-08-03 06:54:27 GMT 38.659771 22.406738 35,675 295 426 1024
2022-08-03 06:54:24 GMT 38.656933 22.414856 35,600 295 426 1024
2022-08-03 06:54:21 GMT 38.654938 22.420528 35,575 295 426 1024
2022-08-03 06:54:17 GMT 38.651394 22.430725 35,500 294 426 1088
2022-08-03 06:54:14 GMT 38.647713 22.441101 35,425 294 426 1088
2022-08-03 06:54:10 GMT 38.645325 22.447994 35,350 294 426 1152
2022-08-03 06:54:07 GMT 38.643433 22.453430 35,325 295 427 1152
2022-08-03 06:54:04 GMT 38.640545 22.461670 35,225 295 427 1152
2022-08-03 06:54:01 GMT 38.638264 22.468201 35,175 295 427 1216
2022-08-03 06:53:57 GMT 38.634865 22.477905 35,100 295 427 1344
2022-08-03 06:53:53 GMT 38.631683 22.487043 34,950 295 428 1344
2022-08-03 06:53:50 GMT 38.629280 22.493774 34,950 295 428 1344
2022-08-03 06:53:44 GMT 38.624252 22.508118 34,775 295 429 1344
2022-08-03 06:53:41 GMT 38.621784 22.515198 34,725 295 429 1344
2022-08-03 06:53:37 GMT 38.619324 22.522152 34,625 295 429 1216
2022-08-03 06:53:33 GMT 38.614986 22.534424 34,550 295 429 1216
2022-08-03 06:53:28 GMT 38.611824 22.543518 34,475 295 430 1280
2022-08-03 06:53:25 GMT 38.609402 22.550415 34,350 295 431 1344
2022-08-03 06:53:22 GMT 38.606918 22.557320 34,300 295 431 1344
2022-08-03 06:53:19 GMT 38.604515 22.564209 34,275 295 431 1408
2022-08-03 06:53:15 GMT 38.601208 22.573608 34,075 295 432 1344
2022-08-03 06:53:12 GMT 38.598907 22.580130 34,075 295 432 1280
2022-08-03 06:53:09 GMT 38.596458 22.586975 34,050 295 432 1344
2022-08-03 06:53:06 GMT 38.593529 22.595337 33,950 295 433 1536
2022-08-03 06:53:01 GMT 38.586731 22.614563 33,650 295 434 1664
2022-08-03 06:52:54 GMT 38.584122 22.622044 33,600 295 434 1664
2022-08-03 06:52:51 GMT 38.581238 22.630104 33,550 295 435 1664
2022-08-03 06:52:44 GMT 38.575466 22.646484 33,350 295 436 1600
2022-08-03 06:52:41 GMT 38.572723 22.654346 33,275 295 436 1536
2022-08-03 06:52:33 GMT 38.566807 22.671143 33,050 295 438 1856
2022-08-03 06:52:30 GMT 38.564255 22.678349 32,975 295 438 1792
2022-08-03 06:52:25 GMT 38.559723 22.691126 32,825 295 439 1664
2022-08-03 06:52:22 GMT 38.557495 22.697510 32,650 295 440 1600
2022-08-03 06:52:19 GMT 38.554733 22.705276 32,675 295 440 1600
2022-08-03 06:52:13 GMT 38.549149 22.721100 32,500 295 441 1472
2022-08-03 06:52:08 GMT 38.543427 22.737341 32,325 295 442 1472
2022-08-03 06:52:02 GMT 38.540459 22.745605 32,250 295 442 1536
2022-08-03 06:51:59 GMT 38.537197 22.754883 32,150 295 442 1600
2022-08-03 06:51:53 GMT 38.533009 22.766724 32,000 295 443 1600
2022-08-03 06:51:50 GMT 38.530540 22.773621 31,850 295 443 1536
2022-08-03 06:51:47 GMT 38.527935 22.780945 31,850 295 443 1536
2022-08-03 06:51:42 GMT 38.519440 22.804991 31,575 295 444 1472
2022-08-03 06:51:38 GMT 38.519440 22.804991 31,600 295 444 1536
2022-08-03 06:51:32 GMT 38.514297 22.819458 31,425 295 444 1536
2022-08-03 06:51:29 GMT 38.512062 22.825745 31,350 295 444 1792
2022-08-03 06:51:26 GMT 38.509033 22.834167 31,275 295 444 1792
2022-08-03 06:51:23 GMT 38.507401 22.838785 31,175 295 445 1792
2022-08-03 06:51:20 GMT 38.503777 22.848999 31,075 295 445 1856
2022-08-03 06:51:15 GMT 38.500214 22.859144 30,950 295 446 1920
2022-08-03 06:51:11 GMT 38.497211 22.867554 30,850 295 446 1984
2022-08-03 06:51:07 GMT 38.493210 22.878790 30,675 295 447 1856
2022-08-03 06:51:04 GMT 38.491531 22.883545 30,525 295 447 2048
2022-08-03 06:51:00 GMT 38.488266 22.892761 30,450 295 448 2176
2022-08-03 06:50:57 GMT 38.484879 22.902254 30,350 295 449 2176
2022-08-03 06:50:51 GMT 38.479336 22.917847 30,175 295 450 1152
2022-08-03 06:50:47 GMT 38.475723 22.927929 30,100 295 448 1216
2022-08-03 06:50:44 GMT 38.473938 22.933064 30,050 295 448 1408
2022-08-03 06:50:38 GMT 38.466202 22.954739 29,825 295 448 1600
2022-08-03 06:50:34 GMT 38.464951 22.958252 29,775 295 448 1600
2022-08-03 06:50:31 GMT 38.463547 22.962143 29,750 295 449 1600
2022-08-03 06:50:28 GMT 38.460342 22.971218 29,600 295 449 1600
2022-08-03 06:50:25 GMT 38.458191 22.977070 29,475 295 449 1600
2022-08-03 06:50:22 GMT 38.455269 22.985352 29,475 295 449 1600
2022-08-03 06:50:19 GMT 38.449310 23.002014 29,375 295 449 1536
2022-08-03 06:50:16 GMT 38.449310 23.002014 29,300 295 448 1664
2022-08-03 06:50:12 GMT 38.443909 23.017193 29,100 295 448 1792
2022-08-03 06:50:08 GMT 38.442558 23.020874 29,075 295 448 1792
2022-08-03 06:50:05 GMT 38.441116 23.024963 29,025 295 448 1792
2022-08-03 06:50:02 GMT 38.438602 23.032043 28,925 295 448 1536
2022-08-03 06:49:58 GMT 38.433929 23.045197 28,800 295 449 1600
2022-08-03 06:49:55 GMT 38.431137 23.052959 28,700 295 449 1792
2022-08-03 06:49:52 GMT 38.429398 23.057856 28,650 295 448 1728
2022-08-03 06:49:48 GMT 38.425335 23.069153 28,500 295 448 1664
2022-08-03 06:49:45 GMT 38.423241 23.075012 28,450 295 448 1792
2022-08-03 06:49:41 GMT 38.420494 23.082642 28,350 295 448 2048
2022-08-03 06:49:38 GMT 38.417862 23.090036 28,000 295 449 1984
2022-08-03 06:49:35 GMT 38.414841 23.098455 28,125 295 449 1920
2022-08-03 06:49:31 GMT 38.411316 23.108221 28,000 295 448 1664
2022-08-03 06:49:25 GMT 38.405823 23.123533 27,800 295 448 2048
2022-08-03 06:49:21 GMT 38.402847 23.131714 27,525 295 449 1984
2022-08-03 06:49:17 GMT 38.399124 23.142162 27,525 295 449 1984
2022-08-03 06:49:14 GMT 38.396622 23.149071 27,450 295 449 1856
2022-08-03 06:49:06 GMT 38.389908 23.167778 27,125 295 449 2112
2022-08-03 06:49:03 GMT 38.387695 23.173906 27,100 295 449 2112
2022-08-03 06:48:58 GMT 38.382935 23.187172 26,900 295 449 2112
2022-08-03 06:48:54 GMT 38.379108 23.197750 26,750 295 449 2112
2022-08-03 06:48:47 GMT 38.373524 23.213335 26,500 295 450 2304
2022-08-03 06:48:44 GMT 38.371033 23.220188 26,375 295 451 2176
2022-08-03 06:48:41 GMT 38.367371 23.230415 26,150 295 451 2368
2022-08-03 06:48:38 GMT 38.365219 23.236376 26,150 295 451 2368
2022-08-03 06:48:33 GMT 38.361191 23.247538 25,975 295 451 1920
2022-08-03 06:48:30 GMT 38.359138 23.253281 25,900 295 451 1664
2022-08-03 06:48:26 GMT 38.354462 23.266296 25,775 295 450 1600
2022-08-03 06:48:23 GMT 38.351807 23.273602 25,700 295 450 1984
2022-08-03 06:48:20 GMT 38.350113 23.278336 25,625 295 450 2048
2022-08-03 06:48:17 GMT 38.347221 23.286358 25,500 295 450 2112
2022-08-03 06:48:13 GMT 38.343750 23.295982 25,350 295 449 1856
2022-08-03 06:48:10 GMT 38.341232 23.302937 25,250 295 449 1792
2022-08-03 06:48:07 GMT 38.338608 23.310301 25,200 295 449 1792
2022-08-03 06:48:02 GMT 38.331528 23.329935 24,925 295 448 1984
2022-08-03 06:47:57 GMT 38.329857 23.334602 24,875 295 448 1920
2022-08-03 06:47:53 GMT 38.326038 23.345230 24,675 295 447 1792
2022-08-03 06:47:50 GMT 38.323479 23.352217 24,525 295 446 1664
2022-08-03 06:47:47 GMT 38.320824 23.359680 24,550 295 446 1664
2022-08-03 06:47:43 GMT 38.318436 23.366283 24,475 295 446 1664
2022-08-03 06:47:41 GMT 38.316376 23.372011 24,400 295 445 1792
2022-08-03 06:47:36 GMT 38.312027 23.384161 24,125 295 444 1920
2022-08-03 06:47:33 GMT 38.309467 23.391146 24,150 295 444 1920
2022-08-03 06:47:31 GMT 38.307816 23.395796 24,075 295 443 1920
2022-08-03 06:47:28 GMT 38.305664 23.401754 24,000 295 443 1920
2022-08-03 06:47:24 GMT 38.301407 23.413618 23,850 295 442 2112
2022-08-03 06:47:21 GMT 38.298752 23.420923 23,725 295 442 2112
2022-08-03 06:47:18 GMT 38.297012 23.425714 23,650 295 442 2112
2022-08-03 06:47:14 GMT 38.292892 23.437052 23,500 295 441 2048
2022-08-03 06:47:12 GMT 38.291496 23.440943 23,450 295 441 2048
2022-08-03 06:47:08 GMT 38.286850 23.453882 23,250 295 441 1920
2022-08-03 06:47:04 GMT 38.284233 23.461065 23,175 295 439 1792
2022-08-03 06:47:00 GMT 38.281174 23.469484 22,850 295 435 1728
2022-08-03 06:46:56 GMT 38.277878 23.478601 22,875 295 436 1728
2022-08-03 06:46:53 GMT 38.272503 23.493427 22,825 295 436 1728
2022-08-03 06:46:49 GMT 38.272503 23.493427 22,750 295 435 1728
2022-08-03 06:46:46 GMT 38.266937 23.508871 22,625 295 433 1600
2022-08-03 06:46:43 GMT 38.266937 23.508871 22,575 295 433 1600
2022-08-03 06:46:40 GMT 38.263779 23.517521 22,475 295 431 1536
2022-08-03 06:46:35 GMT 38.260632 23.526207 22,325 295 427 1344
2022-08-03 06:46:32 GMT 38.257328 23.535402 22,225 295 425 1408
2022-08-03 06:46:29 GMT 38.255356 23.540779 22,250 295 425 1344
2022-08-03 06:46:23 GMT 38.250904 23.553017 22,075 295 422 1344
2022-08-03 06:46:20 GMT 38.248306 23.560181 22,075 295 422 1344
2022-08-03 06:46:16 GMT 38.243500 23.573376 21,925 295 418 1216
2022-08-03 06:46:12 GMT 38.240204 23.582445 21,850 295 415 1344
2022-08-03 06:46:08 GMT 38.237823 23.588991 21,775 295 414 1344
2022-08-03 06:46:05 GMT 38.235027 23.596663 21,700 295 412 1344
2022-08-03 06:46:02 GMT 38.232880 23.602549 21,625 295 409 1536
2022-08-03 06:45:58 GMT 38.229954 23.610455 21,525 295 408 1984
2022-08-03 06:45:54 GMT 38.227116 23.618277 21,400 295 408 2176
2022-08-03 06:45:51 GMT 38.224045 23.626682 21,300 295 407 2176
2022-08-03 06:45:47 GMT 38.221668 23.633085 21,150 296 406 2240
2022-08-03 06:45:44 GMT 38.218315 23.642040 20,925 295 405 2432
2022-08-03 06:45:41 GMT 38.216721 23.646378 20,900 295 405 2432
2022-08-03 06:45:38 GMT 38.213524 23.655655 20,725 293 403 2496
2022-08-03 06:45:34 GMT 38.210728 23.664551 20,550 291 403 2496
2022-08-03 06:45:31 GMT 38.208847 23.671270 20,425 289 402 2432
2022-08-03 06:45:26 GMT 38.205093 23.686407 20,175 285 400 2368
2022-08-03 06:45:21 GMT 38.203125 23.696165 20,000 284 399 2432
2022-08-03 06:45:16 GMT 38.202209 23.701307 19,900 282 399 2496
2022-08-03 06:45:10 GMT 38.200012 23.717379 19,625 277 397 2112
2022-08-03 06:45:06 GMT 38.199234 23.726496 19,500 275 396 2176
2022-08-03 06:45:01 GMT 38.198578 23.737873 19,300 274 394 2432
2022-08-03 06:44:59 GMT 38.198410 23.741220 19,175 274 393 2368
2022-08-03 06:44:56 GMT 38.198021 23.749575 19,100 274 393 2304
2022-08-03 06:44:50 GMT 38.197227 23.765398 18,825 274 391 2304
2022-08-03 06:44:47 GMT 38.197041 23.769218 18,675 274 390 2304
2022-08-03 06:44:44 GMT 38.196762 23.775232 18,675 274 390 2304
2022-08-03 06:44:40 GMT 38.196304 23.784525 18,500 274 388 2240
2022-08-03 06:44:37 GMT 38.195984 23.792179 18,375 274 387 2240
2022-08-03 06:44:33 GMT 38.195274 23.806955 18,125 274 386 2368
2022-08-03 06:44:29 GMT 38.194996 23.812269 18,050 274 385 2304
2022-08-03 06:44:25 GMT 38.194576 23.820807 17,900 274 384 2240
2022-08-03 06:44:20 GMT 38.194061 23.830898 17,725 274 382 2240
2022-08-03 06:44:17 GMT 38.193783 23.836512 17,575 274 381 2304
2022-08-03 06:44:14 GMT 38.193375 23.844599 17,475 274 380 2432
2022-08-03 06:44:10 GMT 38.192917 23.853130 17,325 274 379 2624
2022-08-03 06:44:08 GMT 38.192574 23.859440 17,200 274 379 2688
2022-08-03 06:44:05 GMT 38.192184 23.866396 17,050 274 378 2752
2022-08-03 06:44:00 GMT 38.191734 23.875381 16,875 275 378 2880
2022-08-03 06:43:57 GMT 38.191315 23.882700 16,650 275 378 3008
2022-08-03 06:43:54 GMT 38.190628 23.894505 16,450 275 378 3008
2022-08-03 06:43:49 GMT 38.190399 23.899179 16,325 274 378 2880
2022-08-03 06:43:47 GMT 38.190060 23.904757 16,175 274 378 2624
2022-08-03 06:43:44 GMT 38.189732 23.911505 16,100 274 378 2304
2022-08-03 06:43:40 GMT 38.188801 23.928520 15,925 274 378 1600
2022-08-03 06:43:37 GMT 38.188801 23.928520 15,850 274 378 1536
2022-08-03 06:43:34 GMT 38.188614 23.931904 15,775 274 378 1664
2022-08-03 06:43:29 GMT 38.187920 23.945538 15,625 274 379 2112
2022-08-03 06:43:24 GMT 38.187450 23.954315 15,500 274 379 2560
2022-08-03 06:43:19 GMT 38.186966 23.965797 15,150 274 378 2816
2022-08-03 06:43:17 GMT 38.186615 23.973721 14,925 274 377 2432
2022-08-03 06:43:14 GMT 38.186474 23.977003 15,000 274 377 2496
2022-08-03 06:43:11 GMT 38.186195 23.983751 14,875 274 376 2304
2022-08-03 06:43:08 GMT 38.185871 23.990679 14,800 274 375 2048
2022-08-03 06:43:05 GMT 38.185589 23.997007 14,650 274 372 1920
2022-08-03 06:43:02 GMT 38.185043 24.008808 14,500 274 369 2176
2022-08-03 06:42:59 GMT 38.184986 24.010620 14,475 274 368 2304
2022-08-03 06:42:56 GMT 38.184612 24.017963 14,250 274 366 2880
2022-08-03 06:42:53 GMT 38.184380 24.022562 14,250 274 366 2880
2022-08-03 06:42:49 GMT 38.183945 24.032185 14,025 274 365 2304
2022-08-03 06:42:47 GMT 38.183727 24.036295 13,925 274 361 1280
2022-08-03 06:42:44 GMT 38.183350 24.044163 13,900 274 359 896
2022-08-03 06:42:41 GMT 38.182938 24.052057 13,850 274 354 832
2022-08-03 06:42:38 GMT 38.182663 24.057487 13,750 276 346 896
2022-08-03 06:42:34 GMT 38.182377 24.062328 13,775 275 348 960
2022-08-03 06:42:31 GMT 38.181839 24.069349 13,725 278 343 832
2022-08-03 06:42:28 GMT 38.181168 24.075283 13,675 281 338 832
2022-08-03 06:42:25 GMT 38.179958 24.082270 13,600 291 329 832
2022-08-03 06:42:22 GMT 38.179073 24.086090 13,600 290 330 832
2022-08-03 06:42:19 GMT 38.176895 24.093250 13,550 296 325 768
2022-08-03 06:42:15 GMT 38.174931 24.098391 13,525 299 322 832
2022-08-03 06:42:12 GMT 38.172180 24.104120 13,475 305 316 832
2022-08-03 06:42:07 GMT 38.168655 24.110140 13,400 311 310 832
2022-08-03 06:42:04 GMT 38.164780 24.115349 13,350 319 302 896
2022-08-03 06:42:01 GMT 38.162155 24.118320 13,325 321 301 896
2022-08-03 06:41:57 GMT 38.155930 24.123814 13,225 331 292 960
2022-08-03 06:41:54 GMT 38.152359 24.126209 13,175 338 286 896
2022-08-03 06:41:51 GMT 38.150070 24.127497 13,075 343 282 960
2022-08-03 06:41:47 GMT 38.145264 24.129541 13,075 344 281 960
2022-08-03 06:41:44 GMT 38.137573 24.131353 12,975 353 274 1280
2022-08-03 06:41:41 GMT 38.137573 24.131353 12,950 356 272 1536
2022-08-03 06:41:36 GMT 38.131073 24.131470 12,675 6 266 3008
2022-08-03 06:41:33 GMT 38.127865 24.131111 12,575 10 267 3264
2022-08-03 06:41:30 GMT 38.120323 24.128962 12,275 19 268 3264
2022-08-03 06:41:25 GMT 38.118320 24.128065 12,200 21 268 3200
2022-08-03 06:41:22 GMT 38.114227 24.125618 11,950 30 268 3072
2022-08-03 06:41:19 GMT 38.110455 24.122812 11,825 35 267 3328
2022-08-03 06:41:16 GMT 38.108093 24.120716 11,700 36 267 3520
2022-08-03 06:41:14 GMT 38.105568 24.118452 11,550 36 268 3520
2022-08-03 06:41:11 GMT 38.102448 24.115467 11,375 36 268 3264
2022-08-03 06:41:05 GMT 38.097050 24.110394 11,100 36 268 2752
2022-08-03 06:41:01 GMT 38.092903 24.106453 10,925 36 265 2368
2022-08-03 06:40:58 GMT 38.091156 24.104822 10,850 36 262 2432
2022-08-03 06:40:55 GMT 38.086994 24.100960 10,675 36 260 2560
2022-08-03 06:40:50 GMT 38.080444 24.094830 10,450 36 256 2368
2022-08-03 06:40:47 GMT 38.079964 24.094332 10,375 36 253 2176
2022-08-03 06:40:44 GMT 38.077332 24.091848 10,275 36 253 2112
2022-08-03 06:40:41 GMT 38.073898 24.088634 10,150 36 249 2176
2022-08-03 06:40:38 GMT 38.068512 24.083525 9,925 37 244 2368
2022-08-03 06:40:34 GMT 38.067581 24.082617 9,825 37 244 2304
2022-08-03 06:40:31 GMT 38.064148 24.079344 9,725 37 240 2432
2022-08-03 06:40:27 GMT 38.060486 24.075895 9,575 36 237 2048
2022-08-03 06:40:24 GMT 38.058598 24.074089 9,500 36 235 1728
2022-08-03 06:40:20 GMT 38.055058 24.070686 9,425 37 229 1216
2022-08-03 06:40:17 GMT 38.052963 24.068716 9,350 37 224 1344
2022-08-03 06:40:14 GMT 38.049728 24.065611 9,250 37 219 1536
2022-08-03 06:40:10 GMT 38.046890 24.062864 9,150 37 213 1664
2022-08-03 06:40:07 GMT 38.044865 24.060896 9,075 37 210 1984
2022-08-03 06:40:03 GMT 38.041809 24.057838 8,900 38 205 2944
2022-08-03 06:39:59 GMT 38.036388 24.052416 8,550 38 204 3712
2022-08-03 06:39:56 GMT 38.036018 24.051998 8,425 38 204 3776
2022-08-03 06:39:53 GMT 38.034210 24.050241 8,275 38 205 3840
2022-08-03 06:39:50 GMT 38.031189 24.047144 8,025 38 205 3904
2022-08-03 06:39:47 GMT 38.029686 24.045729 7,900 38 205 3840
2022-08-03 06:39:43 GMT 38.026657 24.042704 7,625 37 206 3840
2022-08-03 06:39:37 GMT 38.021851 24.038027 7,225 37 206 3904
2022-08-03 06:39:33 GMT 38.018829 24.035048 6,975 37 207 3648
2022-08-03 06:39:29 GMT 38.015579 24.031950 6,600 37 205 3328
2022-08-03 06:39:26 GMT 38.013931 24.030373 6,600 37 205 3328
2022-08-03 06:39:22 GMT 38.010956 24.027567 6,400 36 203 3264
2022-08-03 06:39:20 GMT 38.008644 24.025368 6,225 36 202 3136
2022-08-03 06:39:16 GMT 38.006737 24.023577 6,100 36 200 2944
2022-08-03 06:39:11 GMT 38.003036 24.020086 5,875 36 197 2816
2022-08-03 06:39:07 GMT 37.996307 24.013659 5,600 37 193 3456
2022-08-03 06:39:02 GMT 37.996307 24.013659 5,375 37 191 3584
2022-08-03 06:38:56 GMT 37.991638 24.009043 5,000 38 189 3072
2022-08-03 06:38:52 GMT 37.989326 24.006739 4,825 38 185 2688
2022-08-03 06:38:44 GMT 37.984020 24.001307 4,550 38 179 2048
2022-08-03 06:38:41 GMT 37.982300 23.999575 4,500 38 170 1216
2022-08-03 06:38:38 GMT 37.979736 23.997063 4,400 37 161 1280
2022-08-03 06:38:32 GMT 37.976570 23.994020 4,275 37 147 1152
2022-08-03 06:38:26 GMT 37.973125 23.990738 4,075 36 138 3968
2022-08-03 06:38:21 GMT 37.971355 23.989065 3,900 37 134 3200
2022-08-03 06:38:16 GMT 37.968472 23.986259 3,550 37 137 3776
2022-08-03 06:38:10 GMT 37.965820 23.983740 3,225 36 140 3904
2022-08-03 06:38:07 GMT 37.963490 23.981543 2,950 35 145 3648
2022-08-03 06:38:01 GMT 37.960510 23.978855 2,625 35 146 3712
2022-08-03 06:37:55 GMT 37.957207 23.975750 1,925 38 150 2880
2022-08-03 06:37:51 GMT 37.955017 23.973629 2,075 38 150 2880
2022-08-03 06:37:49 GMT 37.953918 23.972576 1,975 38 150 2880
2022-08-03 06:37:48 GMT 37.953388 23.972050 1,925 39 149 2816
2022-08-03 06:37:47 GMT 37.951805 23.970436 1,825 38 148 2880
2022-08-03 06:37:45 GMT 37.951805 23.970436 1,800 38 148 2816
2022-08-03 06:37:44 GMT 37.951309 23.969889 1,750 38 148 2880
2022-08-03 06:37:42 GMT 37.950222 23.968824 1,650 38 147 2816
2022-08-03 06:37:40 GMT 37.949387 23.967960 1,575 38 147 2688
2022-08-03 06:37:39 GMT 37.948547 23.967152 1,550 38 146 2432
2022-08-03 06:37:38 GMT 37.948032 23.966616 1,475 37 145 2240
2022-08-03 06:37:36 GMT 37.947151 23.965778 1,425 37 144 2240
2022-08-03 06:37:35 GMT 37.946590 23.965242 1,400 38 143 2304
2022-08-03 06:37:33 GMT 37.944855 23.963518 1,250 37 140 2752
2022-08-03 06:37:31 GMT 37.944309 23.962973 1,200 37 140 2944
2022-08-03 06:37:29 GMT 37.943756 23.962408 1,125 36 140 3008
2022-08-03 06:37:28 GMT 37.942913 23.961658 1,050 36 141 3072
2022-08-03 06:37:27 GMT 37.942337 23.961123 1,000 36 141 3008
2022-08-03 06:37:25 GMT 37.940819 23.959688 850 36 141 3264
2022-08-03 06:37:22 GMT 37.939747 23.958735 750 36 142 3136
2022-08-03 06:37:21 GMT 37.938675 23.957676 650 37 143 2688
2022-08-03 06:37:19 GMT 37.938072 23.957121 600 37 143 2624
2022-08-03 06:37:18 GMT 37.937531 23.956623 550 37 143 2688
2022-08-03 06:37:17 GMT 37.936630 23.955688 475 37 143 2496
2022-08-03 06:37:15 GMT 37.935883 23.954987 425 37 143 2368
2022-08-03 06:37:14 GMT 37.934875 23.954052 375 37 142 1536
2022-08-03 06:37:12 GMT 37.934349 23.953539 350 37 139 960
2022-08-03 06:37:11 GMT 37.933868 23.953058 325 37 139 768
2022-08-03 06:37:10 GMT 37.932858 23.952106 325 37 132 256
2022-08-03 06:37:07 GMT 37.931648 23.950972 325 36 121 64
2022-08-03 06:37:06 GMT 37.931213 23.950546 325 36 121 0
2022-08-03 06:37:04 GMT 37.930485 23.949837 325 37 112 0
2022-08-03 06:37:02 GMT 37.928482 23.947926 325 37 100 0
2022-08-03 06:36:58 GMT 37.928482 23.947926 325 37 87 0
2022-08-03 06:36:57 GMT 37.928009 23.947449 325 37 82 0
2022-08-03 06:36:55 GMT 37.927341 23.946852 0 36 74
2022-08-03 06:36:54 GMT 37.927097 23.946613 0 36 69
2022-08-03 06:36:53 GMT 37.926819 23.946354 0 36 64
2022-08-03 06:36:52 GMT 37.926258 23.945822 0 36 54
2022-08-03 06:36:49 GMT 37.926041 23.945608 0 36 49
2022-08-03 06:36:47 GMT 37.925583 23.945181 0 36 34
2022-08-03 06:36:46 GMT 37.925446 23.945053 0 36 29
2022-08-03 06:36:45 GMT 37.925327 23.944925 0 36 23
2022-08-03 06:36:44 GMT 37.925137 23.944761 0 36 13
2022-08-03 06:36:42 GMT 37.925083 23.944702 0 36 9
2022-08-03 06:36:41 GMT 37.925045 23.944674 0 33 6
2022-08-03 06:36:40 GMT 37.925026 23.944641 0 33 0
2022-08-03 06:36:35 GMT 37.924965 23.944599 0 33 0
2022-08-03 06:36:30 GMT 37.924953 23.944586 0 33 0
2022-08-03 06:36:20 GMT 37.924953 23.944586 0 33 0
2022-08-03 06:36:10 GMT 37.924953 23.944586 0 33 0
2022-08-03 06:36:09 GMT 37.924953 23.944586 0 33 0
2022-08-03 06:36:04 GMT 37.924953 23.944586 0 33 0
2022-08-03 06:36:00 GMT 37.924957 23.944584 0 33 0
2022-08-03 06:35:57 GMT 37.924953 23.944586 0 33 0
2022-08-03 06:35:55 GMT 37.924957 23.944584 0 33 0
2022-08-03 06:35:54 GMT 37.924957 23.944584 0 33 0
2022-08-03 06:35:49 GMT 37.924957 23.944584 0 33 0
2022-08-03 06:35:48 GMT 37.924946 23.944584 0 33 2
2022-08-03 06:35:47 GMT 37.924942 23.944586 0 36 3
2022-08-03 06:35:45 GMT 37.924919 23.944569 0 39 3
2022-08-03 06:35:44 GMT 37.924908 23.944569 0 42 4
2022-08-03 06:35:43 GMT 37.924885 23.944555 0 53 5
2022-08-03 06:35:41 GMT 37.924839 23.944527 0 64 6
2022-08-03 06:35:39 GMT 37.924828 23.944498 0 73 6
2022-08-03 06:35:38 GMT 37.924805 23.944477 0 81 7
2022-08-03 06:35:35 GMT 37.924782 23.944359 0 106 9
2022-08-03 06:35:34 GMT 37.924782 23.944300 0 115 10
2022-08-03 06:35:33 GMT 37.924793 23.944254 0 118 10
2022-08-03 06:35:31 GMT 37.924839 23.944147 0 123 12
2022-08-03 06:35:30 GMT 37.924873 23.944090 0 123 12
2022-08-03 06:35:29 GMT 37.924896 23.944044 0 126 12
2022-08-03 06:35:28 GMT 37.924931 23.943987 0 126 12
2022-08-03 06:35:26 GMT 37.925003 23.943867 0 126 13
2022-08-03 06:35:25 GMT 37.925034 23.943811 0 126 12
2022-08-03 06:35:24 GMT 37.925106 23.943703 0 126 12
2022-08-03 06:35:22 GMT 37.925137 23.943636 0 126 11
2022-08-03 06:35:20 GMT 37.925190 23.943554 0 126 10
2022-08-03 06:35:19 GMT 37.925217 23.943504 0 126 9
2022-08-03 06:35:18 GMT 37.925251 23.943460 0 126 8
2022-08-03 06:35:17 GMT 37.925270 23.943419 0 126 6
2022-08-03 06:35:15 GMT 37.925308 23.943357 0 126 5
2022-08-03 06:35:09 GMT 37.925350 23.943283 0 126 0
2022-08-03 06:35:04 GMT 37.925354 23.943270 0 126 0
2022-08-03 06:34:54 GMT 37.925350 23.943270 0 126 0
2022-08-03 06:34:44 GMT 37.925354 23.943270 0 126 0
2022-08-03 06:34:39 GMT 37.925354 23.943270 0 126 0
2022-08-03 06:34:30 GMT 37.925362 23.943270 0 126 0
2022-08-03 06:34:26 GMT 37.925362 23.943270 0 126 0
2022-08-03 06:34:04 GMT 37.925362 23.943270 0 126 0
2022-08-03 06:33:54 GMT 37.925354 23.943270 0 126 0
2022-08-03 06:33:45 GMT 37.925354 23.943270 0 126 0
2022-08-03 06:33:30 GMT 37.925354 23.943270 0 126 0
2022-08-03 06:33:04 GMT 37.925362 23.943270 0 126 0
2022-08-03 06:32:50 GMT 37.925354 23.943270 0 126 0
2022-08-03 06:32:39 GMT 37.925350 23.943270 0 126 0
2022-08-03 06:32:29 GMT 37.925354 23.943270 0 126 0
2022-08-03 06:32:24 GMT 37.925350 23.943270 0 126 0
2022-08-03 06:32:23 GMT 37.925350 23.943270 0 126 0
2022-08-03 06:32:21 GMT 37.925354 23.943270 0 126 0
2022-08-03 06:32:19 GMT 37.925350 23.943270 0 126 0
2022-08-03 06:32:18 GMT 37.925354 23.943270 0 126 0
2022-08-03 06:32:17 GMT 37.925350 23.943270 0 126 0
2022-08-03 06:32:15 GMT 37.925350 23.943270 0 126 0
2022-08-03 06:32:13 GMT 37.925354 23.943270 0 126 0
2022-08-03 06:32:12 GMT 37.925350 23.943270 0 126 0
2022-08-03 06:32:10 GMT 37.925354 23.943270 0 126 0
2022-08-03 06:32:09 GMT 37.925350 23.943270 0 126 0
2022-08-03 06:32:07 GMT 37.925354 23.943270 0 126 0
2022-08-03 06:32:06 GMT 37.925354 23.943270 0 126 0
2022-08-03 06:32:03 GMT 37.925354 23.943270 0 126 2
2022-08-03 06:32:01 GMT 37.925365 23.943256 0 126 3
2022-08-03 06:32:00 GMT 37.925377 23.943241 0 126 4
2022-08-03 06:31:59 GMT 37.925388 23.943228 0 126 5
2022-08-03 06:31:57 GMT 37.925411 23.943180 0 126 6
2022-08-03 06:31:56 GMT 37.925423 23.943165 0 126 7
2022-08-03 06:31:54 GMT 37.925480 23.943060 0 129 9
2022-08-03 06:31:51 GMT 37.925526 23.943001 0 132 9
2022-08-03 06:31:50 GMT 37.925583 23.942896 0 143 10
2022-08-03 06:31:47 GMT 37.925617 23.942850 0 149 11
2022-08-03 06:31:46 GMT 37.925655 23.942822 0 157 11
2022-08-03 06:31:45 GMT 37.925735 23.942762 0 174 10
2022-08-03 06:31:43 GMT 37.925770 23.942747 0 180 10
2022-08-03 06:31:41 GMT 37.925869 23.942743 0 196 10
2022-08-03 06:31:39 GMT 37.925957 23.942762 0 208 9
2022-08-03 06:31:38 GMT 37.925991 23.942791 0 213 8
2022-08-03 06:31:37 GMT 37.926048 23.942837 0 216 7
2022-08-03 06:31:35 GMT 37.926075 23.942862 0 216 6
2022-08-03 06:31:34 GMT 37.926109 23.942890 0 216 6
2022-08-03 06:31:33 GMT 37.926167 23.942957 0 219 5
2022-08-03 06:31:31 GMT 37.926189 23.942970 0 216 5
2022-08-03 06:31:29 GMT 37.926201 23.942986 0 216 5
2022-08-03 06:31:27 GMT 37.926258 23.943029 0 216 5
2022-08-03 06:31:25 GMT 37.926270 23.943050 0 216 5
2022-08-03 06:31:24 GMT 37.926308 23.943090 0 216 5
2022-08-03 06:31:21 GMT 37.926342 23.943119 0 216 5
2022-08-03 06:31:18 GMT 37.926395 23.943169 0 216 6
2022-08-03 06:31:17 GMT 37.926411 23.943195 0 216 6
2022-08-03 06:31:16 GMT 37.926434 23.943209 0 216 7
2022-08-03 06:31:14 GMT 37.926487 23.943256 0 216 8
2022-08-03 06:31:13 GMT 37.926510 23.943285 0 216 8
2022-08-03 06:31:12 GMT 37.926567 23.943329 0 216 10
2022-08-03 06:31:09 GMT 37.926643 23.943403 0 216 13
2022-08-03 06:31:08 GMT 37.926739 23.943504 0 216 15
2022-08-03 06:31:06 GMT 37.926785 23.943548 0 216 17
2022-08-03 06:31:05 GMT 37.926842 23.943592 0 216 19
2022-08-03 06:31:03 GMT 37.926979 23.943724 0 216 23
2022-08-03 06:31:01 GMT 37.927097 23.943836 0 216 25
2022-08-03 06:31:00 GMT 37.927250 23.943972 0 216 27
2022-08-03 06:30:58 GMT 37.927448 23.944164 0 216 28
2022-08-03 06:30:56 GMT 37.927677 23.944374 0 216 28
2022-08-03 06:30:55 GMT 37.927792 23.944483 0 216 28
2022-08-03 06:30:54 GMT 37.927898 23.944597 0 216 28
2022-08-03 06:30:51 GMT 37.928112 23.944790 0 216 28
2022-08-03 06:30:50 GMT 37.928226 23.944910 0 216 28
2022-08-03 06:30:49 GMT 37.928318 23.944994 0 216 28
2022-08-03 06:30:47 GMT 37.928623 23.945284 0 216 28
2022-08-03 06:30:46 GMT 37.928623 23.945284 0 216 28
2022-08-03 06:30:45 GMT 37.928741 23.945389 0 216 28
2022-08-03 06:30:44 GMT 37.928844 23.945494 0 216 28
2022-08-03 06:30:42 GMT 37.929199 23.945843 0 216 28
2022-08-03 06:30:40 GMT 37.929291 23.945929 0 216 28
2022-08-03 06:30:39 GMT 37.929390 23.946016 0 216 28
2022-08-03 06:30:38 GMT 37.929482 23.946104 0 216 28
2022-08-03 06:30:35 GMT 37.929806 23.946411 0 216 28
2022-08-03 06:30:34 GMT 37.930099 23.946688 0 216 28
2022-08-03 06:30:30 GMT 37.930286 23.946867 0 216 28
2022-08-03 06:30:28 GMT 37.930611 23.947149 0 213 28
2022-08-03 06:30:26 GMT 37.930706 23.947254 0 216 28
2022-08-03 06:30:25 GMT 37.930809 23.947344 0 216 28
2022-08-03 06:30:24 GMT 37.931030 23.947554 0 219 28
2022-08-03 06:30:22 GMT 37.931133 23.947653 0 219 28
2022-08-03 06:30:21 GMT 37.931229 23.947762 0 216 29
2022-08-03 06:30:19 GMT 37.931442 23.947960 0 216 29
2022-08-03 06:30:18 GMT 37.931534 23.948048 0 216 29
2022-08-03 06:30:17 GMT 37.931671 23.948179 0 216 29
2022-08-03 06:30:15 GMT 37.931877 23.948383 0 216 29
2022-08-03 06:30:14 GMT 37.932083 23.948574 0 216 29
2022-08-03 06:30:12 GMT 37.932198 23.948690 0 216 29
2022-08-03 06:30:11 GMT 37.932301 23.948778 0 216 29
2022-08-03 06:30:10 GMT 37.932415 23.948896 0 216 29
2022-08-03 06:30:06 GMT 37.932873 23.949320 0 216 29
2022-08-03 06:30:03 GMT 37.933170 23.949614 0 216 29
2022-08-03 06:30:01 GMT 37.933411 23.949829 0 216 29
2022-08-03 06:30:00 GMT 37.933521 23.949942 0 216 29
2022-08-03 06:29:59 GMT 37.933582 23.949991 0 216 29
2022-08-03 06:29:57 GMT 37.933811 23.950211 0 216 29
2022-08-03 06:29:56 GMT 37.933914 23.950312 0 216 28
2022-08-03 06:29:52 GMT 37.934315 23.950687 0 216 26
2022-08-03 06:29:43 GMT 37.935036 23.951374 0 216 21
2022-08-03 06:29:41 GMT 37.935223 23.951553 0 216 20
2022-08-03 06:29:38 GMT 37.935406 23.951733 0 216 18
2022-08-03 06:29:36 GMT 37.935562 23.951891 0 216 16
2022-08-03 06:29:34 GMT 37.935684 23.952002 0 216 15
2022-08-03 06:29:17 GMT 37.936501 23.952209 0 129 14
2022-08-03 06:29:15 GMT 37.936592 23.952065 0 126 14
2022-08-03 06:29:12 GMT 37.936729 23.951845 0 126 13
2022-08-03 06:28:59 GMT 37.937233 23.951130 0 168 12
2022-08-03 06:28:57 GMT 37.937336 23.951101 0 185 12
2022-08-03 06:28:56 GMT 37.937393 23.951101 0 194 12
2022-08-03 06:28:45 GMT 37.937851 23.951424 0 216 11
2022-08-03 06:28:30 GMT 37.938442 23.952017 0 216 9
2022-08-03 06:28:27 GMT 37.938526 23.952091 0 216 7
2022-08-03 06:28:24 GMT 37.938606 23.952168 0 216 5
2022-08-03 06:28:20 GMT 37.938656 23.952209 0 216 0
2022-08-03 06:28:15 GMT 37.938663 23.952227 0 216 0
2022-08-03 06:28:00 GMT 37.938675 23.952227 0 216 0
2022-08-03 06:27:50 GMT 37.938667 23.952225 0 216 0
2022-08-03 06:27:25 GMT 37.938675 23.952227 0 216 0
2022-08-03 06:27:09 GMT 37.938675 23.952227 0 216 0
2022-08-03 06:27:04 GMT 37.938675 23.952227 0 216 0
2022-08-03 06:26:39 GMT 37.938667 23.952225 0 216 0
2022-08-03 06:26:10 GMT 37.938675 23.952227 0 216 0
2022-08-03 06:26:05 GMT 37.938667 23.952225 0 216 0
2022-08-03 06:25:55 GMT 37.938675 23.952227 0 216 0
2022-08-03 06:25:14 GMT 37.938667 23.952225 0 216 0
2022-08-03 06:25:09 GMT 37.938675 23.952227 0 216 0
2022-08-03 06:25:07 GMT 37.938667 23.952225 0 216 0
2022-08-03 06:25:04 GMT 37.938667 23.952225 0 216 0
2022-08-03 06:25:01 GMT 37.938675 23.952227 0 216 0
2022-08-03 06:24:57 GMT 37.938667 23.952225 0 216 0
2022-08-03 06:24:53 GMT 37.938675 23.952227 0 216 0
2022-08-03 06:24:50 GMT 37.938663 23.952211 0 216 1
2022-08-03 06:24:49 GMT 37.938656 23.952209 0 219 2
2022-08-03 06:24:48 GMT 37.938652 23.952196 0 219 1
2022-08-03 06:24:47 GMT 37.938656 23.952196 0 222 2
2022-08-03 06:24:45 GMT 37.938652 23.952183 0 227 2
2022-08-03 06:24:44 GMT 37.938641 23.952166 0 230 2
2022-08-03 06:24:43 GMT 37.938641 23.952152 0 233 2
2022-08-03 06:24:42 GMT 37.938641 23.952150 0 233 3
2022-08-03 06:24:38 GMT 37.938641 23.952108 0 241 3
2022-08-03 06:24:32 GMT 37.938629 23.952036 0 253 3
2022-08-03 06:24:31 GMT 37.938629 23.952021 0 255 3
2022-08-03 06:24:28 GMT 37.938641 23.951992 0 267 3
2022-08-03 06:24:25 GMT 37.938656 23.951958 0 275 3
2022-08-03 06:24:23 GMT 37.938675 23.951935 0 284 3
2022-08-03 06:24:21 GMT 37.938686 23.951920 0 289 3
2022-08-03 06:24:20 GMT 37.938702 23.951912 0 292 3
2022-08-03 06:24:17 GMT 37.938721 23.951876 0 300 3
2022-08-03 06:24:16 GMT 37.938736 23.951866 0 306 3
2022-08-03 06:24:15 GMT 37.938744 23.951845 0 306 3
2022-08-03 06:24:13 GMT 37.938766 23.951832 0 309 3
2022-08-03 06:24:12 GMT 37.938782 23.951822 0 309 3
2022-08-03 06:24:11 GMT 37.938789 23.951801 0 312 3
2022-08-03 06:24:08 GMT 37.938816 23.951778 0 315 3
2022-08-03 06:24:07 GMT 37.938828 23.951763 0 315 3
2022-08-03 06:24:05 GMT 37.938850 23.951733 0 315 3
2022-08-03 06:24:03 GMT 37.938858 23.951729 0 315 3
2022-08-03 06:24:02 GMT 37.938869 23.951715 0 315 3
2022-08-03 06:24:01 GMT 37.938892 23.951685 0 315 4
2022-08-03 06:23:59 GMT 37.938896 23.951674 0 315 4
2022-08-03 06:23:58 GMT 37.938911 23.951658 0 315 4
2022-08-03 06:23:55 GMT 37.938938 23.951612 0 312 4
2022-08-03 06:23:54 GMT 37.938946 23.951597 0 312 3
2022-08-03 06:23:53 GMT 37.938969 23.951569 0 312 3
2022-08-03 06:23:51 GMT 37.938969 23.951569 0 312 4
2022-08-03 06:23:50 GMT 37.938980 23.951553 0 312 4
2022-08-03 06:23:49 GMT 37.938984 23.951538 0 312 3
2022-08-03 06:23:48 GMT 37.939003 23.951509 0 309 3
2022-08-03 06:23:46 GMT 37.939018 23.951496 0 309 3
2022-08-03 06:23:45 GMT 37.939018 23.951481 0 309 3
2022-08-03 06:23:42 GMT 37.939049 23.951433 0 309 3
2022-08-03 06:23:41 GMT 37.939060 23.951420 0 309 3
2022-08-03 06:23:38 GMT 37.939075 23.951393 0 309 3
2022-08-03 06:23:37 GMT 37.939087 23.951380 0 306 3
2022-08-03 06:23:35 GMT 37.939098 23.951349 0 306 3
2022-08-03 06:23:34 GMT 37.939110 23.951336 0 306 3
2022-08-03 06:23:33 GMT 37.939121 23.951315 0 306 2
2022-08-03 06:23:31 GMT 37.939133 23.951300 0 306 2
2022-08-03 06:23:30 GMT 37.939133 23.951305 0 306 2
2022-08-03 06:23:29 GMT 37.939133 23.951290 0 306 0
2022-08-03 06:23:27 GMT 37.939144 23.951284 0 306 0
2022-08-03 06:23:23 GMT 37.939144 23.951269 0 306 0
2022-08-03 06:23:18 GMT 37.939178 23.951233 0 309 0
2022-08-03 06:23:13 GMT 37.939178 23.951210 0 306 0
2022-08-03 06:23:08 GMT 37.939178 23.951218 0 306 0
2022-08-03 06:23:03 GMT 37.939178 23.951210 0 306 0
2022-08-03 06:22:58 GMT 37.939178 23.951218 0 306 0
We lost coverage of the aircraft here for a total of 52 minutes
2022-08-03 05:30:51 GMT 37.939190 23.951202 0 306 0 0
2022-08-03 05:30:50 GMT 37.939190 23.951210 0 306 0 0
2022-08-03 05:30:49 GMT 37.939190 23.951210 0 306 0 0
2022-08-03 05:30:47 GMT 37.939190 23.951202 0 306 0 0
2022-08-03 05:30:44 GMT 37.939190 23.951202 0 306 0 0
2022-08-03 05:30:41 GMT 37.939190 23.951210 0 306 0 0
2022-08-03 05:30:40 GMT 37.939190 23.951202 0 306 1 0
2022-08-03 05:30:38 GMT 37.939178 23.951210 0 306 2 0
2022-08-03 05:30:37 GMT 37.939167 23.951233 0 306 3 0
2022-08-03 05:30:35 GMT 37.939156 23.951246 0 306 4 0
2022-08-03 05:30:33 GMT 37.939133 23.951284 0 306 4 0
2022-08-03 05:30:32 GMT 37.939121 23.951305 0 306 6 0
2022-08-03 05:30:31 GMT 37.939110 23.951330 0 306 6 0
2022-08-03 05:30:29 GMT 37.939095 23.951361 0 306 7 0
2022-08-03 05:30:28 GMT 37.939064 23.951408 0 306 8 0
2022-08-03 05:30:25 GMT 37.939030 23.951466 0 306 9 0
2022-08-03 05:30:24 GMT 37.938992 23.951538 0 309 10 0
2022-08-03 05:30:22 GMT 37.938934 23.951643 0 306 11 0
2022-08-03 05:30:21 GMT 37.938896 23.951689 0 306 12 0
2022-08-03 05:30:19 GMT 37.938850 23.951763 0 306 12 0
2022-08-03 05:30:18 GMT 37.938801 23.951845 0 303 12 0
2022-08-03 05:30:17 GMT 37.938759 23.951927 0 300 12 0
2022-08-03 05:30:16 GMT 37.938736 23.951971 0 298 12 0
2022-08-03 05:30:14 GMT 37.938702 23.952030 0 292 12 0
2022-08-03 05:30:13 GMT 37.938641 23.952242 0 272 12 0
2022-08-03 05:30:11 GMT 37.938641 23.952242 0 267 12 0
2022-08-03 05:30:09 GMT 37.938641 23.952314 0 261 13 0
2022-08-03 05:30:08 GMT 37.938641 23.952406 0 253 13 0
2022-08-03 05:30:07 GMT 37.938698 23.952620 0 247 13 0
2022-08-03 05:30:06 GMT 37.938698 23.952620 0 244 13 0
2022-08-03 05:30:05 GMT 37.938725 23.952673 0 244 13 0
2022-08-03 05:30:04 GMT 37.938747 23.952747 0 247 14 0
2022-08-03 05:29:59 GMT 37.938858 23.953089 0 255 13 0
2022-08-03 05:29:58 GMT 37.938873 23.953152 0 261 13 0
2022-08-03 05:29:57 GMT 37.938892 23.953396 0 281 13 0
2022-08-03 05:29:55 GMT 37.938892 23.953396 0 289 13 0
2022-08-03 05:29:54 GMT 37.938889 23.953465 0 295 13 0
2022-08-03 05:29:53 GMT 37.938824 23.953613 0 303 14 0
2022-08-03 05:29:51 GMT 37.938793 23.953688 0 306 14 0
2022-08-03 05:29:49 GMT 37.938736 23.953793 0 306 14 0
2022-08-03 05:29:48 GMT 37.938702 23.953852 0 306 14 0
2022-08-03 05:29:47 GMT 37.938667 23.953913 0 306 15 0
2022-08-03 05:29:46 GMT 37.938618 23.953987 0 303 14 0
2022-08-03 05:29:44 GMT 37.938538 23.954124 0 292 14 0
2022-08-03 05:29:43 GMT 37.938515 23.954199 0 284 14 0
2022-08-03 05:29:41 GMT 37.938492 23.954506 0 253 13 0
2022-08-03 05:29:39 GMT 37.938492 23.954506 0 247 13 0
2022-08-03 05:29:38 GMT 37.938515 23.954594 0 236 13 0
2022-08-03 05:29:37 GMT 37.938526 23.954630 0 233 13 0
2022-08-03 05:29:35 GMT 37.938595 23.954754 0 222 14 0
2022-08-03 05:29:34 GMT 37.938641 23.954811 0 216 14 0
2022-08-03 05:29:33 GMT 37.938747 23.954912 0 216 16 0
2022-08-03 05:29:31 GMT 37.938805 23.954956 0 216 16 0
2022-08-03 05:29:30 GMT 37.938858 23.955015 0 216 17 0
2022-08-03 05:29:29 GMT 37.939075 23.955221 0 216 19 0
2022-08-03 05:29:26 GMT 37.939075 23.955221 0 216 19 0
2022-08-03 05:29:25 GMT 37.939144 23.955284 0 216 19 0
2022-08-03 05:29:24 GMT 37.939293 23.955420 0 216 20 0
2022-08-03 05:29:22 GMT 37.939362 23.955500 0 216 20 0
2022-08-03 05:29:18 GMT 37.939648 23.955763 0 216 19 0
2022-08-03 05:29:17 GMT 37.939724 23.955837 0 216 19 0
2022-08-03 05:29:15 GMT 37.939854 23.955967 0 216 18 0
2022-08-03 05:29:14 GMT 37.939911 23.956017 0 216 18 0
2022-08-03 05:29:13 GMT 37.939980 23.956093 0 216 17 0
2022-08-03 05:29:11 GMT 37.940109 23.956211 0 219 14 0
2022-08-03 05:29:10 GMT 37.940163 23.956259 0 222 14 0
2022-08-03 05:29:08 GMT 37.940254 23.956362 0 227 13 0
2022-08-03 05:29:07 GMT 37.940311 23.956434 0 236 13 0
2022-08-03 05:29:06 GMT 37.940342 23.956465 0 239 13 0
2022-08-03 05:29:05 GMT 37.940403 23.956594 0 255 13 0
2022-08-03 05:29:03 GMT 37.940437 23.956682 0 267 13 0
2022-08-03 05:29:02 GMT 37.940445 23.956762 0 275 13 0
2022-08-03 05:29:01 GMT 37.940437 23.956842 0 284 13 0
2022-08-03 05:29:00 GMT 37.940414 23.956989 0 300 13 0
2022-08-03 05:28:58 GMT 37.940392 23.957047 0 309 13 0
2022-08-03 05:28:56 GMT 37.940342 23.957151 0 317 13 0
2022-08-03 05:28:55 GMT 37.940296 23.957226 0 334 14 0
2022-08-03 05:28:54 GMT 37.940262 23.957241 0 340 14 0
2022-08-03 05:28:52 GMT 37.940098 23.957315 0 351 16 0
2022-08-03 05:28:51 GMT 37.940025 23.957310 0 2 18 0
2022-08-03 05:28:50 GMT 37.939945 23.957315 0 5 19 0
2022-08-03 05:28:49 GMT 37.939865 23.957300 0 5 21 0
2022-08-03 05:28:46 GMT 37.939671 23.957281 0 5 23 0
2022-08-03 05:28:45 GMT 37.939564 23.957256 0 5 26 0
2022-08-03 05:28:44 GMT 37.939430 23.957237 0 8 27 0
2022-08-03 05:28:43 GMT 37.939304 23.957222 0 8 28 0
2022-08-03 05:28:41 GMT 37.939075 23.957178 0 11 30 0
2022-08-03 05:28:40 GMT 37.938946 23.957136 0 11 31 0
2022-08-03 05:28:39 GMT 37.938801 23.957106 0 11 31 0
2022-08-03 05:28:37 GMT 37.938549 23.957047 0 14 32 0
2022-08-03 05:28:36 GMT 37.938400 23.957003 0 14 32 0
2022-08-03 05:28:34 GMT 37.938206 23.956917 0 16 32 0
2022-08-03 05:28:33 GMT 37.937958 23.956808 0 22 33 0
2022-08-03 05:28:31 GMT 37.937668 23.956623 0 28 34 0
2022-08-03 05:28:29 GMT 37.937420 23.956434 0 36 36 0
2022-08-03 05:28:28 GMT 37.937290 23.956301 0 39 40 0
2022-08-03 05:28:27 GMT 37.937153 23.956165 0 39 44 0
2022-08-03 05:28:24 GMT 37.936592 23.955629 0 36 61 0
2022-08-03 05:28:22 GMT 37.935661 23.954748 0 36 80 0
2022-08-03 05:28:20 GMT 37.935661 23.954748 0 36 80 0
2022-08-03 05:28:17 GMT 37.934708 23.953838 0 36 92 0
2022-08-03 05:28:16 GMT 37.933743 23.952942 275 36 116 -64
2022-08-03 05:28:13 GMT 37.933369 23.952524 275 36 116 -64
2022-08-03 05:28:11 GMT 37.932404 23.951656 275 36 116 -64
2022-08-03 05:28:10 GMT 37.931946 23.951189 275 37 120 -64
2022-08-03 05:28:08 GMT 37.931213 23.950487 275 36 125 -128
2022-08-03 05:28:07 GMT 37.930672 23.950016 275 36 133 -64
2022-08-03 05:28:06 GMT 37.930206 23.949539 275 37 137 -192
2022-08-03 05:28:05 GMT 37.929741 23.949121 275 36 141 -128
2022-08-03 05:28:03 GMT 37.928650 23.948092 300 36 145 -128
2022-08-03 05:28:02 GMT 37.927876 23.947329 300 36 145 -256
2022-08-03 05:28:00 GMT 37.926865 23.946398 325 36 145 -320
2022-08-03 05:27:59 GMT 37.926361 23.945929 325 35 145 -512
2022-08-03 05:27:58 GMT 37.925766 23.945402 350 35 143 -704
2022-08-03 05:27:57 GMT 37.925316 23.945002 375 36 142 -896
2022-08-03 05:27:55 GMT 37.924210 23.943941 400 36 142 -768
2022-08-03 05:27:54 GMT 37.923523 23.943357 400 37 140 -640
2022-08-03 05:27:53 GMT 37.923080 23.942911 425 37 139 -640
2022-08-03 05:27:50 GMT 37.921452 23.941299 450 37 139 -704
2022-08-03 05:27:48 GMT 37.920685 23.940611 475 37 139 -768
2022-08-03 05:27:47 GMT 37.919964 23.939865 500 36 138 -832
2022-08-03 05:27:45 GMT 37.919449 23.939384 500 36 138 -896
2022-08-03 05:27:44 GMT 37.918472 23.938433 525 37 139 -896
2022-08-03 05:27:42 GMT 37.917709 23.937748 550 37 139 -704
2022-08-03 05:27:41 GMT 37.917435 23.937456 550 37 139 -704
2022-08-03 05:27:40 GMT 37.916145 23.936224 600 37 140 -832
2022-08-03 05:27:38 GMT 37.915649 23.935760 600 36 141 -832
2022-08-03 05:27:37 GMT 37.915169 23.935328 625 36 142 -832
2022-08-03 05:27:36 GMT 37.914093 23.934299 650 36 142 -768
2022-08-03 05:27:34 GMT 37.913490 23.933777 650 36 142 -576
2022-08-03 05:27:32 GMT 37.912445 23.932722 675 36 143 -704
2022-08-03 05:27:31 GMT 37.911861 23.932222 700 36 143 -704
2022-08-03 05:27:30 GMT 37.911438 23.931787 700 37 144 -640
2022-08-03 05:27:28 GMT 37.910339 23.930735 725 37 145 -320
2022-08-03 05:27:27 GMT 37.909790 23.930210 725 37 145 -512
2022-08-03 05:27:25 GMT 37.908966 23.929392 750 38 146 -768
2022-08-03 05:27:24 GMT 37.908188 23.928690 775 38 146 -640
2022-08-03 05:27:22 GMT 37.906723 23.927229 800 37 144 -768
2022-08-03 05:27:20 GMT 37.906044 23.926552 800 37 144 -832
2022-08-03 05:27:19 GMT 37.905029 23.925535 825 36 142 -768
2022-08-03 05:27:17 GMT 37.904480 23.925009 850 36 141 -768
2022-08-03 05:27:16 GMT 37.903885 23.924482 875 36 141 -704
2022-08-03 05:27:15 GMT 37.902466 23.923140 875 36 141 -576
2022-08-03 05:27:13 GMT 37.902466 23.923140 900 36 140 -704
2022-08-03 05:27:12 GMT 37.901917 23.922670 900 35 139 -768
2022-08-03 05:27:11 GMT 37.900864 23.921679 925 35 139 -768
2022-08-03 05:27:09 GMT 37.900177 23.921036 950 35 139 -768
2022-08-03 05:27:08 GMT 37.899342 23.920280 975 35 139 -640
2022-08-03 05:27:06 GMT 37.898781 23.919804 975 35 139 -576
2022-08-03 05:27:05 GMT 37.898270 23.919327 975 36 140 -576
2022-08-03 05:27:03 GMT 37.897247 23.918371 1,000 36 140 -704
2022-08-03 05:27:01 GMT 37.896103 23.917295 1,025 37 140 -576
2022-08-03 05:26:59 GMT 37.894966 23.916222 1,050 37 141 -832
2022-08-03 05:26:58 GMT 37.894451 23.915684 1,075 37 141 -896
2022-08-03 05:26:57 GMT 37.893383 23.914610 1,100 37 140 -1024
2022-08-03 05:26:55 GMT 37.892807 23.914082 1,125 36 140 -1024
2022-08-03 05:26:54 GMT 37.892487 23.913788 1,125 36 139 -1088
2022-08-03 05:26:53 GMT 37.891472 23.912819 1,175 36 138 -1024
2022-08-03 05:26:51 GMT 37.890930 23.912329 1,175 36 138 -832
2022-08-03 05:26:50 GMT 37.890427 23.911919 1,200 36 138 -704
2022-08-03 05:26:49 GMT 37.889832 23.911333 1,200 36 138 -832
2022-08-03 05:26:47 GMT 37.888866 23.910431 1,225 37 137 -704
2022-08-03 05:26:46 GMT 37.888321 23.909931 1,250 37 137 -640
2022-08-03 05:26:44 GMT 37.887192 23.908817 1,275 37 138 -896
2022-08-03 05:26:43 GMT 37.886673 23.908354 1,275 37 138 -896
2022-08-03 05:26:42 GMT 37.886215 23.907887 1,300 37 138 -960
2022-08-03 05:26:41 GMT 37.885162 23.906893 1,325 37 138 -896
2022-08-03 05:26:38 GMT 37.883560 23.905354 1,375 37 138 -704
2022-08-03 05:26:36 GMT 37.883045 23.904877 1,375 37 138 -704
2022-08-03 05:26:35 GMT 37.882534 23.904339 1,400 37 138 -704
2022-08-03 05:26:34 GMT 37.881592 23.903444 1,425 36 138 -704
2022-08-03 05:26:32 GMT 37.880486 23.902430 1,450 35 137 -640
2022-08-03 05:26:30 GMT 37.879944 23.901983 1,450 35 137 -704
2022-08-03 05:26:29 GMT 37.879463 23.901533 1,475 35 137 -832
2022-08-03 05:26:27 GMT 37.878345 23.900518 1,500 35 137 -512
2022-08-03 05:26:26 GMT 37.877880 23.900101 1,500 35 136 -448
2022-08-03 05:26:25 GMT 37.877380 23.899647 1,525 36 135 -512
2022-08-03 05:26:24 GMT 37.876343 23.898666 1,525 37 135 -576
2022-08-03 05:26:22 GMT 37.875877 23.898190 1,550 37 134 -512
2022-08-03 05:26:21 GMT 37.875320 23.897659 1,550 38 134 -512
2022-08-03 05:26:19 GMT 37.874294 23.896696 1,575 38 133 -576
2022-08-03 05:26:18 GMT 37.873783 23.896158 1,575 39 132 -640
2022-08-03 05:26:16 GMT 37.872944 23.895264 1,600 38 131 -768
2022-08-03 05:26:15 GMT 37.872528 23.894846 1,625 37 130 -640
2022-08-03 05:26:14 GMT 37.872013 23.894308 1,625 37 130 -640
2022-08-03 05:26:13 GMT 37.871567 23.893862 1,625 37 129 -640
2022-08-03 05:26:12 GMT 37.870663 23.892996 1,650 37 130 -512
2022-08-03 05:26:10 GMT 37.870193 23.892576 1,675 36 130 -576
2022-08-03 05:26:09 GMT 37.869732 23.892099 1,675 36 131 -704
2022-08-03 05:26:08 GMT 37.867966 23.890488 1,725 36 133 -704
2022-08-03 05:26:06 GMT 37.867966 23.890488 1,725 36 133 -704
2022-08-03 05:26:05 GMT 37.867538 23.890062 1,725 36 133 -576
2022-08-03 05:26:03 GMT 37.866486 23.889128 1,750 36 134 -576
2022-08-03 05:26:02 GMT 37.866009 23.888636 1,750 37 137 -704
2022-08-03 05:26:01 GMT 37.865498 23.888159 1,775 37 138 -832
2022-08-03 05:26:00 GMT 37.865032 23.887739 1,775 37 139 -768
2022-08-03 05:25:59 GMT 37.863449 23.886189 1,825 37 142 -704
2022-08-03 05:25:57 GMT 37.863449 23.886189 1,825 37 142 -704
2022-08-03 05:25:56 GMT 37.862869 23.885620 1,825 37 143 -832
2022-08-03 05:25:53 GMT 37.861866 23.884636 1,850 37 145 -832
2022-08-03 05:25:52 GMT 37.861313 23.884159 1,875 37 145 -704
2022-08-03 05:25:50 GMT 37.860260 23.883108 1,900 37 147 -768
2022-08-03 05:25:49 GMT 37.859528 23.882406 1,925 37 147 -832
2022-08-03 05:25:48 GMT 37.858978 23.881882 1,925 36 148 -832
2022-08-03 05:25:46 GMT 37.857880 23.880831 1,950 36 150 -704
2022-08-03 05:25:45 GMT 37.857285 23.880304 1,975 36 150 -768
2022-08-03 05:25:43 GMT 37.854950 23.878141 2,000 35 154 -640
2022-08-03 05:25:41 GMT 37.854950 23.878141 2,025 36 154 -640
2022-08-03 05:25:39 GMT 37.853951 23.877232 2,025 36 156 -704
2022-08-03 05:25:38 GMT 37.852554 23.875917 2,075 37 155 -832
2022-08-03 05:25:36 GMT 37.851997 23.875381 2,075 37 155 -832
2022-08-03 05:25:35 GMT 37.851437 23.874844 2,100 37 155 -1024
2022-08-03 05:25:34 GMT 37.850235 23.873699 2,125 37 154 -896
2022-08-03 05:25:32 GMT 37.849686 23.873175 2,150 37 154 -832
2022-08-03 05:25:31 GMT 37.848133 23.871618 2,175 37 153 -832
2022-08-03 05:25:29 GMT 37.848133 23.871618 2,175 37 152 -704
2022-08-03 05:25:28 GMT 37.847343 23.870903 2,200 37 152 -640
2022-08-03 05:25:27 GMT 37.845711 23.869291 2,225 37 151 -832
2022-08-03 05:25:25 GMT 37.845711 23.869291 2,250 37 151 -768
2022-08-03 05:25:23 GMT 37.844547 23.868156 2,275 37 151 -768
2022-08-03 05:25:22 GMT 37.843479 23.867142 2,300 38 150 -704
2022-08-03 05:25:20 GMT 37.842918 23.866604 2,300 38 150 -704
2022-08-03 05:25:19 GMT 37.842407 23.866102 2,300 38 150 -768
2022-08-03 05:25:17 GMT 37.841198 23.864872 2,350 37 151 -768
2022-08-03 05:25:15 GMT 37.840687 23.864393 2,350 37 151 -768
2022-08-03 05:25:12 GMT 37.838470 23.862305 2,425 34 153 -832
2022-08-03 05:25:09 GMT 37.837097 23.861076 2,425 36 155 -768
2022-08-03 05:25:00 GMT 37.831055 23.855526 2,575 38 153 -768
2022-08-03 05:24:50 GMT 37.821167 23.846117 2,750 36 147 -768
2022-08-03 05:24:42 GMT 37.821167 23.846117 2,800 35 145 -768
2022-08-03 05:24:39 GMT 37.819885 23.844950 2,825 36 145 -640
2022-08-03 05:24:29 GMT 37.814072 23.839455 2,950 37 146 -640
2022-08-03 05:24:21 GMT 37.810135 23.835482 3,025 38 145 -512
2022-08-03 05:24:18 GMT 37.808670 23.834021 3,050 37 144 -256
2022-08-03 05:24:08 GMT 37.802979 23.828510 3,050 38 146 -64
2022-08-03 05:23:57 GMT 37.797390 23.822479 3,050 44 154 64
2022-08-03 05:23:46 GMT 37.792511 23.815496 3,025 55 154 64
2022-08-03 05:23:37 GMT 37.789352 23.802874 3,050 82 170 -320
2022-08-03 05:23:31 GMT 37.789352 23.802874 3,050 81 179 64
2022-08-03 05:23:28 GMT 37.788895 23.798958 3,050 81 179 0
2022-08-03 05:23:27 GMT 37.788712 23.797262 3,050 81 181 -128
2022-08-03 05:23:24 GMT 37.788437 23.795101 3,050 81 182 0
2022-08-03 05:23:22 GMT 37.788116 23.792530 3,075 80 183 -192
2022-08-03 05:23:20 GMT 37.787849 23.790417 3,075 80 185 -192
2022-08-03 05:23:19 GMT 37.787659 23.788731 3,075 80 187 -128
2022-08-03 05:23:15 GMT 37.787289 23.785997 3,075 80 189 64
2022-08-03 05:23:14 GMT 37.787064 23.784231 3,075 80 191 256
2022-08-03 05:23:13 GMT 37.786926 23.783237 3,050 80 193 256
2022-08-03 05:23:12 GMT 37.786789 23.782068 3,050 80 194 256
2022-08-03 05:23:10 GMT 37.786499 23.779907 3,050 80 195 64
2022-08-03 05:23:09 GMT 37.786285 23.778271 3,050 80 196 64
2022-08-03 05:23:08 GMT 37.786221 23.777637 3,050 80 197 0
2022-08-03 05:23:05 GMT 37.785519 23.772623 3,050 79 200 -128
2022-08-03 05:23:03 GMT 37.785370 23.771608 3,050 79 200 0
2022-08-03 05:23:02 GMT 37.785187 23.770557 3,050 79 201 0
2022-08-03 05:23:01 GMT 37.785007 23.769339 3,050 78 202 0
2022-08-03 05:22:59 GMT 37.784683 23.767109 3,050 78 204 128
2022-08-03 05:22:58 GMT 37.784500 23.765942 3,050 78 205 -64
2022-08-03 05:22:57 GMT 37.783630 23.760798 3,050 78 207 -64
2022-08-03 05:22:55 GMT 37.783630 23.760798 3,050 78 208 -320
2022-08-03 05:22:45 GMT 37.781662 23.748468 3,100 78 210 -128
2022-08-03 05:22:37 GMT 37.780495 23.740976 3,100 78 208 -192
2022-08-03 05:22:33 GMT 37.779655 23.735842 3,100 78 210 192
2022-08-03 05:22:28 GMT 37.778595 23.728949 3,075 80 211 320
2022-08-03 05:22:24 GMT 37.778027 23.724020 3,050 84 213 64
2022-08-03 05:22:17 GMT 37.777653 23.716497 3,050 90 219 -64
2022-08-03 05:22:14 GMT 37.777699 23.708975 3,050 90 223 0
2022-08-03 05:22:05 GMT 37.777725 23.701015 3,050 90 226 0
2022-08-03 05:22:02 GMT 37.777699 23.692434 3,050 89 231 128
2022-08-03 05:21:54 GMT 37.777679 23.686815 3,050 89 233 64
2022-08-03 05:21:48 GMT 37.777588 23.674192 3,025 89 239 64
2022-08-03 05:21:44 GMT 37.777588 23.671913 3,025 89 239 0
2022-08-03 05:21:34 GMT 37.777561 23.658461 3,025 89 250 0
2022-08-03 05:21:23 GMT 37.777451 23.635799 3,050 88 267 -128
2022-08-03 05:21:17 GMT 37.777359 23.631300 3,050 88 268 -256
2022-08-03 05:21:14 GMT 37.777283 23.627113 3,075 88 271 -576
2022-08-03 05:21:08 GMT 37.777130 23.614119 3,200 92 275 -1600
2022-08-03 05:21:03 GMT 37.777222 23.610846 3,250 95 277 -1856
2022-08-03 05:20:56 GMT 37.778725 23.598930 3,700 109 278 -2240
2022-08-03 05:20:52 GMT 37.779968 23.593723 3,700 109 278 -2368
2022-08-03 05:20:45 GMT 37.783218 23.582561 3,850 110 281 -320
2022-08-03 05:20:42 GMT 37.785828 23.573446 3,850 110 282 0
2022-08-03 05:20:35 GMT 37.787617 23.567406 3,850 109 284 -128
2022-08-03 05:20:32 GMT 37.789032 23.562344 3,850 109 289 -128
2022-08-03 05:20:29 GMT 37.791618 23.552896 3,875 108 295 -128
2022-08-03 05:20:25 GMT 37.792412 23.549911 3,875 108 295 -128
2022-08-03 05:20:22 GMT 37.793526 23.545671 3,875 108 300 -128
2022-08-03 05:20:15 GMT 37.796555 23.534267 3,925 108 306 -768
2022-08-03 05:20:11 GMT 37.798233 23.527748 3,975 108 309 -960
2022-08-03 05:20:05 GMT 37.801254 23.516115 4,150 107 318 -960
2022-08-03 05:20:01 GMT 37.802979 23.509430 4,150 107 317 -960
2022-08-03 05:19:58 GMT 37.804230 23.504547 4,200 108 319 -1024
2022-08-03 05:19:55 GMT 37.805725 23.498621 4,250 107 322 -1024
2022-08-03 05:19:51 GMT 37.807632 23.491337 4,375 107 328 -1024
2022-08-03 05:19:47 GMT 37.809128 23.485380 4,375 107 327 -1024
2022-08-03 05:19:43 GMT 37.811005 23.477900 4,450 107 330 -1024
2022-08-03 05:19:40 GMT 37.812469 23.472233 4,525 107 334 -1152
2022-08-03 05:19:35 GMT 37.815037 23.462139 4,625 107 338 -1472
2022-08-03 05:19:30 GMT 37.817177 23.453602 4,750 107 341 -1792
2022-08-03 05:19:27 GMT 37.819225 23.445480 4,900 107 342 -2304
2022-08-03 05:19:24 GMT 37.821396 23.436876 5,100 107 343 -2624
2022-08-03 05:19:20 GMT 37.822128 23.434013 5,150 107 343 -2560
2022-08-03 05:19:15 GMT 37.824692 23.423786 5,375 107 343 -2496
2022-08-03 05:19:09 GMT 37.827118 23.413912 5,575 107 345 -2304
2022-08-03 05:19:05 GMT 37.829681 23.403625 5,775 107 348 -1600
2022-08-03 05:18:58 GMT 37.833984 23.386211 6,050 107 352 -2368
2022-08-03 05:18:54 GMT 37.834442 23.384340 6,100 107 353 -2432
2022-08-03 05:18:48 GMT 37.837288 23.372995 6,325 107 354 -2368
2022-08-03 05:18:44 GMT 37.839615 23.363682 6,500 107 355 -2304
2022-08-03 05:18:38 GMT 37.842270 23.352934 6,725 107 357 -2304
2022-08-03 05:18:32 GMT 37.846710 23.334669 7,075 107 360 -2304
2022-08-03 05:18:28 GMT 37.847481 23.331617 7,125 107 361 -2304
2022-08-03 05:18:24 GMT 37.849411 23.323742 7,275 107 363 -2176
2022-08-03 05:18:18 GMT 37.852417 23.311497 7,475 107 366 -2176
2022-08-03 05:18:14 GMT 37.854465 23.303137 7,625 107 368 -2432
2022-08-03 05:18:03 GMT 37.864929 23.260336 8,350 107 372 -1920
2022-08-03 05:17:54 GMT 37.864929 23.260336 8,400 107 372 -1792
2022-08-03 05:17:50 GMT 37.866520 23.253937 8,500 107 373 -1664
2022-08-03 05:17:44 GMT 37.869499 23.241936 8,650 107 374 -1664
2022-08-03 05:17:40 GMT 37.873032 23.227318 8,825 106 376 -1600
2022-08-03 05:17:34 GMT 37.874855 23.219725 8,925 106 378 -1600
2022-08-03 05:17:31 GMT 37.876717 23.211962 9,025 106 379 -1472
2022-08-03 05:17:27 GMT 37.879578 23.199795 9,175 106 379 -1536
2022-08-03 05:17:21 GMT 37.881325 23.192436 9,250 106 380 -1472
2022-08-03 05:17:13 GMT 37.885529 23.174898 9,450 106 379 -1536
2022-08-03 05:17:10 GMT 37.886719 23.169991 9,500 106 379 -1472
2022-08-03 05:17:01 GMT 37.892220 23.146461 9,775 106 378 -1216
2022-08-03 05:16:58 GMT 37.892944 23.143400 9,800 106 378 -960
2022-08-03 05:16:53 GMT 37.895782 23.131128 9,875 106 379 -768
2022-08-03 05:16:50 GMT 37.897018 23.125813 9,900 106 380 -768
2022-08-03 05:16:47 GMT 37.898026 23.121605 9,925 106 380 -768
2022-08-03 05:16:42 GMT 37.900818 23.109625 10,025 106 380 -896
2022-08-03 05:16:38 GMT 37.903107 23.099865 10,075 106 380 -960
2022-08-03 05:16:32 GMT 37.905903 23.087889 10,175 106 380 -896
2022-08-03 05:16:29 GMT 37.907349 23.081438 10,225 106 378 -896
2022-08-03 05:16:26 GMT 37.908783 23.075262 10,275 105 378 -960
2022-08-03 05:16:20 GMT 37.911896 23.061296 10,375 105 377 -896
2022-08-03 05:16:17 GMT 37.913261 23.055286 10,400 105 379 -768
2022-08-03 05:16:12 GMT 37.915512 23.045225 10,450 105 382 -704
2022-08-03 05:16:09 GMT 37.916931 23.038857 10,475 105 385 -640
2022-08-03 05:16:05 GMT 37.918705 23.030867 10,525 105 392 -896
2022-08-03 05:16:01 GMT 37.920475 23.022745 10,575 105 393 -1024
2022-08-03 05:15:56 GMT 37.923130 23.010506 10,700 105 395 -896
2022-08-03 05:15:51 GMT 37.925171 23.000872 10,750 105 395 -896
2022-08-03 05:15:48 GMT 37.926994 22.992952 10,825 107 394 -1024
2022-08-03 05:15:45 GMT 37.928741 22.986261 10,875 110 394 -1152
2022-08-03 05:15:42 GMT 37.931320 22.978205 10,925 115 396 -1088
2022-08-03 05:15:36 GMT 37.936523 22.965166 11,050 118 397 -1280
2022-08-03 05:15:31 GMT 37.939774 22.957626 11,175 118 401 -1152
2022-08-03 05:15:27 GMT 37.943424 22.949186 11,200 118 401 -1152
2022-08-03 05:15:21 GMT 37.948746 22.937057 11,300 119 405 -1152
2022-08-03 05:15:17 GMT 37.952820 22.927824 11,675 119 406 -1088
2022-08-03 05:15:14 GMT 37.955856 22.920883 11,450 119 406 -1088
2022-08-03 05:15:11 GMT 37.958221 22.915609 11,500 119 407 -1024
2022-08-03 05:15:07 GMT 37.962021 22.907080 11,575 119 407 -1024
2022-08-03 05:15:04 GMT 37.965729 22.898781 11,650 119 406 -1088
2022-08-03 05:15:01 GMT 37.967541 22.894672 11,675 119 406 -1152
2022-08-03 05:14:56 GMT 37.972183 22.884230 11,775 119 406 -1088
2022-08-03 05:14:50 GMT 37.976944 22.873478 11,875 119 408 -1088
2022-08-03 05:14:46 GMT 37.981461 22.863207 11,950 118 409 -1152
2022-08-03 05:14:42 GMT 37.984810 22.855503 12,025 118 410 -1216
2022-08-03 05:14:38 GMT 37.990864 22.841532 12,175 118 413 -1536
2022-08-03 05:14:35 GMT 37.992073 22.838667 12,225 118 415 -1472
2022-08-03 05:14:29 GMT 37.996170 22.829123 12,325 118 415 -1472
2022-08-03 05:14:24 GMT 38.001801 22.815798 12,475 117 416 -1472
2022-08-03 05:14:20 GMT 38.004967 22.808214 12,575 117 416 -1472
2022-08-03 05:14:14 GMT 38.011047 22.793592 12,725 117 416 -1536
2022-08-03 05:14:10 GMT 38.013905 22.786659 12,825 117 416 -1536
2022-08-03 05:14:04 GMT 38.018745 22.774897 12,950 117 417 -1472
2022-08-03 05:14:00 GMT 38.022995 22.764606 13,175 117 417 -1536
2022-08-03 05:13:54 GMT 38.027824 22.752745 13,200 117 417 -1472
2022-08-03 05:13:49 GMT 38.032059 22.742458 13,325 117 418 -1536
2022-08-03 05:13:43 GMT 38.037460 22.729427 13,475 117 419 -1472
2022-08-03 05:13:39 GMT 38.041557 22.719606 13,600 117 420 -1472
2022-08-03 05:13:34 GMT 38.046074 22.708620 13,875 117 420 -1600
2022-08-03 05:13:30 GMT 38.050552 22.697989 13,850 117 420 -1664
2022-08-03 05:13:23 GMT 38.056229 22.684372 14,050 117 420 -2048
2022-08-03 05:13:19 GMT 38.059708 22.676016 14,175 117 421 -2048
2022-08-03 05:13:13 GMT 38.065292 22.662575 14,375 117 424 -1984
2022-08-03 05:13:08 GMT 38.069458 22.652407 14,700 117 428 -2048
2022-08-03 05:13:02 GMT 38.074936 22.638941 14,725 116 429 -2048
2022-08-03 05:12:59 GMT 38.078064 22.631136 14,850 116 430 -1984
2022-08-03 05:12:52 GMT 38.084015 22.616312 15,075 116 433 -1984
2022-08-03 05:12:49 GMT 38.087219 22.608286 15,175 116 434 -1984
2022-08-03 05:12:43 GMT 38.093170 22.593559 15,400 117 435 -2048
2022-08-03 05:12:37 GMT 38.097382 22.583157 15,550 117 435 -2048
2022-08-03 05:12:31 GMT 38.103287 22.568665 15,775 117 436 -2048
2022-08-03 05:12:27 GMT 38.106686 22.560186 15,975 117 439 -2048
2022-08-03 05:12:21 GMT 38.112854 22.544880 16,125 117 440 -1984
2022-08-03 05:12:15 GMT 38.121395 22.523764 16,425 117 442 -1984
2022-08-03 05:12:10 GMT 38.123116 22.519585 16,425 117 442 -1984
2022-08-03 05:12:07 GMT 38.125854 22.512798 16,575 117 442 -1984
2022-08-03 05:12:00 GMT 38.131943 22.497837 16,775 117 444 -2048
2022-08-03 05:11:56 GMT 38.136108 22.487494 16,950 117 445 -2112
2022-08-03 05:11:50 GMT 38.141598 22.473848 17,300 116 444 -1984
2022-08-03 05:11:47 GMT 38.145538 22.464062 17,275 116 445 -1984
2022-08-03 05:11:36 GMT 38.157845 22.433247 17,725 116 447 -1984
2022-08-03 05:11:29 GMT 38.160919 22.425425 17,825 116 447 -1984
2022-08-03 05:11:25 GMT 38.164642 22.415991 17,975 116 448 -1920
2022-08-03 05:11:19 GMT 38.170647 22.400705 18,250 116 448 -1920
2022-08-03 05:11:15 GMT 38.174652 22.390604 18,325 116 448 -1920
2022-08-03 05:11:05 GMT 38.183449 22.368282 18,625 116 449 -1984
2022-08-03 05:10:55 GMT 38.192993 22.343922 19,075 116 452 -3200
2022-08-03 05:10:44 GMT 38.206398 22.309889 19,850 116 454 -3264
2022-08-03 05:10:35 GMT 38.212357 22.294783 20,200 116 456 -3456
2022-08-03 05:10:27 GMT 38.218689 22.278362 20,625 116 457 -3072
2022-08-03 05:10:24 GMT 38.222031 22.270046 20,750 118 457 -3264
2022-08-03 05:10:14 GMT 38.233292 22.246847 21,325 127 458 -3328
2022-08-03 05:10:04 GMT 38.247272 22.226000 21,875 135 458 -3264
2022-08-03 05:09:56 GMT 38.259468 22.212027 22,275 142 460 -2944
2022-08-03 05:09:53 GMT 38.264557 22.207109 22,425 144 460 -2880
2022-08-03 05:09:46 GMT 38.276554 22.197100 22,825 151 461 -3520
2022-08-03 05:09:43 GMT 38.282932 22.192680 22,975 152 461 -3392
2022-08-03 05:09:35 GMT 38.303459 22.181635 23,475 161 463 -2944
2022-08-03 05:09:32 GMT 38.303459 22.181635 23,475 163 463 -2944
2022-08-03 05:09:25 GMT 38.317844 22.176559 24,050 172 466 -2880
2022-08-03 05:09:22 GMT 38.325348 22.174677 24,000 171 466 -2880
2022-08-03 05:09:11 GMT 38.356392 22.172619 24,675 187 470 -3008
2022-08-03 05:09:06 GMT 38.360870 22.173098 24,775 187 470 -3008
2022-08-03 05:09:02 GMT 38.366352 22.173874 24,900 189 471 -3008
2022-08-03 05:08:58 GMT 38.378082 22.176620 25,150 196 473 -3072
2022-08-03 05:08:54 GMT 38.384583 22.178766 25,375 198 474 -3072
2022-08-03 05:08:50 GMT 38.395123 22.183308 25,550 202 475 -2944
2022-08-03 05:08:43 GMT 38.407692 22.190592 25,850 210 475 -2432
2022-08-03 05:08:39 GMT 38.415234 22.195923 26,000 213 475 -1408
2022-08-03 05:08:30 GMT 38.436401 22.215788 26,100 223 477 -512
2022-08-03 05:08:25 GMT 38.439579 22.219666 26,125 227 476 -832
2022-08-03 05:08:19 GMT 38.452892 22.239380 26,325 236 472 -1344
2022-08-03 05:08:12 GMT 38.457130 22.247375 26,400 240 470 -1536
2022-08-03 05:08:05 GMT 38.465149 22.266302 26,650 247 466 -1984
2022-08-03 05:08:01 GMT 38.467606 22.273621 26,750 249 464 -2176
2022-08-03 05:07:54 GMT 38.472290 22.292751 27,075 258 459 -2752
2022-08-03 05:07:51 GMT 38.473560 22.301025 27,225 261 456 -3008
2022-08-03 05:07:44 GMT 38.474945 22.319860 27,625 271 454 -3520
2022-08-03 05:07:41 GMT 38.474945 22.326488 28,200 280 449 -5056
2022-08-03 05:07:34 GMT 38.473190 22.346130 28,350 283 449 -5376
2022-08-03 05:07:31 GMT 38.471794 22.353577 28,600 287 448 -5440
2022-08-03 05:07:25 GMT 38.468258 22.367493 29,125 293 449 -5440
2022-08-03 05:07:21 GMT 38.464252 22.378967 29,550 298 450 -5312
2022-08-03 05:07:14 GMT 38.456944 22.395081 30,475 304 450 -4928
2022-08-03 05:07:10 GMT 38.453033 22.402771 30,450 304 450 -4928
2022-08-03 05:07:03 GMT 38.444733 22.418797 31,025 304 448 -4672
2022-08-03 05:07:00 GMT 38.441345 22.425245 31,250 304 448 -4416
2022-08-03 05:06:55 GMT 38.434925 22.437317 31,900 305 448 -4032
2022-08-03 05:06:51 GMT 38.429756 22.446960 31,950 305 448 -4096
2022-08-03 05:06:48 GMT 38.427612 22.450859 32,375 306 448 -4288
2022-08-03 05:06:42 GMT 38.420586 22.463562 32,500 306 448 -4288
2022-08-03 05:06:39 GMT 38.416767 22.470398 32,750 306 447 -4224
2022-08-03 05:06:33 GMT 38.408764 22.484476 33,225 307 447 -4352
2022-08-03 05:06:29 GMT 38.404312 22.492168 33,475 307 446 -4416
2022-08-03 05:06:23 GMT 38.396797 22.505075 34,275 307 443 -4864
2022-08-03 05:06:19 GMT 38.392002 22.513254 34,275 307 442 -4992
2022-08-03 05:06:16 GMT 38.388519 22.519226 34,450 307 440 -5184
2022-08-03 05:06:13 GMT 38.384602 22.525854 34,825 307 439 -4992
2022-08-03 05:06:08 GMT 38.374687 22.542690 35,350 307 436 -3648
2022-08-03 05:06:02 GMT 38.371754 22.547647 35,475 307 435 -3456
2022-08-03 05:05:58 GMT 38.366215 22.556961 35,725 308 434 -3648
2022-08-03 05:05:53 GMT 38.359230 22.568665 36,125 308 429 -4544
2022-08-03 05:05:47 GMT 38.352997 22.578773 36,500 309 425 -4672
2022-08-03 05:05:42 GMT 38.346706 22.588964 36,875 309 422 -4288
2022-08-03 05:05:38 GMT 38.342144 22.596251 37,200 309 419 -3776
2022-08-03 05:05:35 GMT 38.338886 22.601444 37,300 309 417 -3520
2022-08-03 05:05:32 GMT 38.335163 22.607414 37,450 309 416 -3136
2022-08-03 05:05:29 GMT 38.331253 22.613663 37,600 309 413 -2688
2022-08-03 05:05:26 GMT 38.328461 22.618160 37,725 309 412 -2240
2022-08-03 05:05:21 GMT 38.321686 22.629089 37,900 309 410 -1536
2022-08-03 05:05:16 GMT 38.316696 22.637154 37,975 309 409 -576
2022-08-03 05:05:12 GMT 38.310562 22.647087 38,000 308 409 0
2022-08-03 05:05:06 GMT 38.304531 22.656855 38,000 308 409 -64
2022-08-03 05:05:01 GMT 38.298386 22.667004 38,000 308 408 -64
2022-08-03 05:04:55 GMT 38.292149 22.677572 38,000 306 406 0
2022-08-03 05:04:50 GMT 38.287308 22.686588 38,000 303 403 0
2022-08-03 05:04:45 GMT 38.281860 22.697287 38,000 303 403 0
2022-08-03 05:04:41 GMT 38.276646 22.707605 38,000 303 403 0
2022-08-03 05:04:38 GMT 38.273712 22.713516 38,000 303 403 0
2022-08-03 05:04:35 GMT 38.271572 22.717695 38,000 303 403 0
2022-08-03 05:04:29 GMT 38.265701 22.729309 38,000 303 403 0
2022-08-03 05:04:25 GMT 38.261398 22.737902 38,000 303 403 0
2022-08-03 05:04:20 GMT 38.255676 22.749237 38,000 303 403 0
2022-08-03 05:04:14 GMT 38.250687 22.759172 38,000 303 403 0
2022-08-03 05:04:09 GMT 38.245422 22.769632 38,000 303 403 0
2022-08-03 05:04:04 GMT 38.240288 22.779793 38,000 303 403 0
2022-08-03 05:03:59 GMT 38.235123 22.790123 38,000 303 403 0
2022-08-03 05:03:54 GMT 38.231003 22.798326 38,000 303 403 0
2022-08-03 05:03:51 GMT 38.224777 22.810656 38,000 303 403 0
2022-08-03 05:03:43 GMT 38.216640 22.826784 38,000 303 403 0
2022-08-03 05:03:39 GMT 38.214706 22.830643 38,000 303 403 0
2022-08-03 05:03:36 GMT 38.211273 22.837362 38,000 303 404 0
2022-08-03 05:03:32 GMT 38.208252 22.843323 38,000 303 404 0
2022-08-03 05:03:28 GMT 38.203903 22.851795 38,000 303 403 64
2022-08-03 05:03:25 GMT 38.200836 22.857815 38,000 303 403 0
2022-08-03 05:03:21 GMT 38.197601 22.864161 38,000 303 403 0
2022-08-03 05:03:18 GMT 38.192665 22.873835 38,000 303 403 0
2022-08-03 05:03:15 GMT 38.190628 22.877859 38,000 303 403 0
2022-08-03 05:03:12 GMT 38.187653 22.883762 38,000 303 403 0
2022-08-03 05:03:08 GMT 38.183079 22.892702 38,000 303 404 0
2022-08-03 05:03:04 GMT 38.180145 22.898430 38,000 303 404 0
2022-08-03 05:03:01 GMT 38.177307 22.903980 38,000 303 404 0
2022-08-03 05:02:57 GMT 38.164078 22.929869 38,000 303 404 0
2022-08-03 05:02:52 GMT 38.164078 22.929869 38,000 303 404 0
2022-08-03 05:02:47 GMT 38.162128 22.933661 38,000 303 404 -64
2022-08-03 05:02:44 GMT 38.159225 22.939396 38,000 303 404 -64
2022-08-03 05:02:41 GMT 38.156681 22.944408 38,000 303 404 -64
2022-08-03 05:02:37 GMT 38.150986 22.955465 38,000 303 404 0
2022-08-03 05:02:34 GMT 38.147976 22.961426 38,000 303 404 0
2022-08-03 05:02:31 GMT 38.146408 22.964464 38,000 304 405 0
2022-08-03 05:02:27 GMT 38.141190 22.974632 38,000 304 405 0
2022-08-03 05:02:23 GMT 38.137875 22.981070 38,000 304 405 0
2022-08-03 05:02:19 GMT 38.133636 22.989309 38,000 304 405 0
2022-08-03 05:02:13 GMT 38.124207 23.007591 38,000 304 405 0
2022-08-03 05:02:08 GMT 38.121162 23.013611 38,000 304 406 0
2022-08-03 05:02:03 GMT 38.116928 23.021734 38,000 304 406 0
2022-08-03 05:01:58 GMT 38.113037 23.029331 38,000 304 406 0
2022-08-03 05:01:55 GMT 38.109432 23.036301 38,000 304 406 0
2022-08-03 05:01:52 GMT 38.106358 23.042271 38,000 304 406 0
2022-08-03 05:01:48 GMT 38.102726 23.049316 38,000 304 406 0
2022-08-03 05:01:45 GMT 38.098801 23.056913 38,000 304 406 0
2022-08-03 05:01:41 GMT 38.095421 23.063467 38,000 304 406 0
2022-08-03 05:01:38 GMT 38.092209 23.069677 38,000 304 406 64
2022-08-03 05:01:35 GMT 38.088482 23.076902 38,000 304 406 0
2022-08-03 05:01:32 GMT 38.084793 23.084145 38,000 304 406 64
2022-08-03 05:01:29 GMT 38.081966 23.089560 38,000 304 406 0
2022-08-03 05:01:25 GMT 38.078110 23.097059 38,000 304 406 0
2022-08-03 05:01:21 GMT 38.074795 23.103472 38,000 304 406 -64
2022-08-03 05:01:18 GMT 38.071724 23.109503 38,000 304 406 0
2022-08-03 05:01:14 GMT 38.067444 23.117805 38,000 304 406 0
2022-08-03 05:01:11 GMT 38.061035 23.130253 38,000 304 406 0
2022-08-03 05:01:08 GMT 38.061035 23.130253 38,000 303 406 0
2022-08-03 05:01:04 GMT 38.057007 23.138084 38,000 303 406 0
2022-08-03 05:01:01 GMT 38.053383 23.145208 38,000 303 406 -64
2022-08-03 05:00:58 GMT 38.050869 23.150105 38,000 303 406 0
2022-08-03 05:00:53 GMT 38.046539 23.158524 38,000 303 407 0
2022-08-03 05:00:50 GMT 38.042862 23.165667 38,000 303 407 0
2022-08-03 05:00:47 GMT 38.040298 23.170692 38,000 303 407 0
2022-08-03 05:00:44 GMT 38.035973 23.179064 38,000 303 407 0
2022-08-03 05:00:40 GMT 38.032333 23.186178 38,000 303 407 0
2022-08-03 05:00:37 GMT 38.029362 23.192019 38,000 303 407 0
2022-08-03 05:00:33 GMT 38.025497 23.199484 38,000 303 407 0
2022-08-03 05:00:29 GMT 38.020798 23.208677 38,000 303 407 0
2022-08-03 05:00:26 GMT 38.018372 23.213409 38,000 303 407 64
2022-08-03 05:00:22 GMT 38.014069 23.221825 38,000 303 407 64
2022-08-03 05:00:19 GMT 38.011066 23.227665 38,000 303 407 0
2022-08-03 05:00:16 GMT 38.007854 23.233934 38,000 304 408 0
2022-08-03 05:00:13 GMT 38.003632 23.242163 38,000 304 408 0
2022-08-03 05:00:09 GMT 38.000565 23.248064 38,000 304 408 0
2022-08-03 05:00:05 GMT 37.996399 23.256187 38,000 304 408 0
2022-08-03 05:00:02 GMT 37.992874 23.262964 38,000 304 408 0
2022-08-03 04:59:56 GMT 37.987091 23.274118 38,000 304 408 0
2022-08-03 04:59:51 GMT 37.981274 23.285463 38,000 304 408 0
2022-08-03 04:59:48 GMT 37.978432 23.290895 38,000 304 409 0
2022-08-03 04:59:45 GMT 37.976349 23.294931 38,000 304 409 0
2022-08-03 04:59:41 GMT 37.970940 23.305286 38,000 304 411 -64
2022-08-03 04:59:38 GMT 37.968376 23.310242 38,000 304 412 0
2022-08-03 04:59:34 GMT 37.964931 23.316870 38,000 304 412 0
2022-08-03 04:59:30 GMT 37.960464 23.325409 38,000 304 415 0
2022-08-03 04:59:27 GMT 37.957306 23.331512 38,000 304 415 0
2022-08-03 04:59:24 GMT 37.954010 23.337767 38,000 304 417 0
2022-08-03 04:59:20 GMT 37.949944 23.345589 37,975 304 418 0
2022-08-03 04:59:18 GMT 37.946358 23.352514 37,975 304 420 0
2022-08-03 04:59:14 GMT 37.943527 23.357927 37,975 304 421 0
2022-08-03 04:59:10 GMT 37.938351 23.367802 38,000 304 423 -64
2022-08-03 04:59:06 GMT 37.934738 23.374758 38,000 304 423 0
2022-08-03 04:59:02 GMT 37.928787 23.386211 38,000 304 423 0
2022-08-03 04:58:59 GMT 37.927643 23.388519 38,000 304 423 0
2022-08-03 04:58:56 GMT 37.923340 23.396730 38,000 304 423 0
2022-08-03 04:58:53 GMT 37.921143 23.400936 38,000 304 423 0
2022-08-03 04:58:49 GMT 37.916794 23.409351 38,000 304 423 0
2022-08-03 04:58:46 GMT 37.912766 23.417183 38,000 304 423 0
2022-08-03 04:58:43 GMT 37.910110 23.422268 38,000 304 423 0
2022-08-03 04:58:39 GMT 37.906036 23.430098 38,000 304 423 0
2022-08-03 04:58:36 GMT 37.900818 23.440149 38,000 304 423 0
2022-08-03 04:58:33 GMT 37.899216 23.443247 38,000 304 423 0
2022-08-03 04:58:30 GMT 37.891006 23.459036 38,000 304 423 0
2022-08-03 04:58:27 GMT 37.891006 23.459036 38,000 304 423 0
2022-08-03 04:58:24 GMT 37.888958 23.462915 38,000 304 423 0
2022-08-03 04:58:18 GMT 37.879944 23.480238 38,000 304 423 0
2022-08-03 04:58:14 GMT 37.877041 23.485844 38,000 304 423 0
2022-08-03 04:58:10 GMT 37.873596 23.492413 38,000 304 423 0
2022-08-03 04:58:08 GMT 37.871979 23.495548 38,000 304 423 0
2022-08-03 04:58:05 GMT 37.867313 23.504534 38,000 304 424 64
2022-08-03 04:58:02 GMT 37.865707 23.507587 38,000 304 424 64
2022-08-03 04:57:59 GMT 37.861305 23.516056 38,000 304 424 0
2022-08-03 04:57:56 GMT 37.859161 23.520092 38,000 304 424 0
2022-08-03 04:57:53 GMT 37.856094 23.526052 38,000 304 424 0
2022-08-03 04:57:49 GMT 37.851929 23.534000 38,000 304 424 0
2022-08-03 04:57:46 GMT 37.848785 23.540058 38,000 304 424 0
2022-08-03 04:57:43 GMT 37.844315 23.548656 38,000 304 424 0
2022-08-03 04:57:39 GMT 37.841103 23.554808 38,000 304 424 0
2022-08-03 04:57:36 GMT 37.836727 23.563227 38,000 304 424 0
2022-08-03 04:57:32 GMT 37.833096 23.570152 38,000 304 425 0
2022-08-03 04:57:29 GMT 37.830093 23.575899 38,000 304 425 0
2022-08-03 04:57:26 GMT 37.826889 23.582094 38,000 304 425 0
2022-08-03 04:57:23 GMT 37.822906 23.589634 38,000 304 425 0
2022-08-03 04:57:18 GMT 37.818527 23.597977 38,000 304 425 0
2022-08-03 04:57:15 GMT 37.815083 23.604544 38,000 304 425 0
2022-08-03 04:57:12 GMT 37.811497 23.611469 38,000 304 425 0
2022-08-03 04:57:08 GMT 37.807617 23.618853 38,000 304 424 0
2022-08-03 04:57:05 GMT 37.803314 23.627033 38,000 304 424 0
2022-08-03 04:57:02 GMT 37.800476 23.632467 38,000 304 424 0
2022-08-03 04:56:59 GMT 37.797226 23.638662 38,000 304 424 0
2022-08-03 04:56:56 GMT 37.792458 23.647774 38,000 304 424 0
2022-08-03 04:56:53 GMT 37.790920 23.650698 38,000 304 424 0
2022-08-03 04:56:49 GMT 37.786266 23.659595 38,000 304 424 0
2022-08-03 04:56:44 GMT 37.781067 23.669518 38,000 304 424 0
2022-08-03 04:56:41 GMT 37.776863 23.677448 38,000 304 424 0
2022-08-03 04:56:38 GMT 37.774582 23.681866 38,000 304 424 0
2022-08-03 04:56:34 GMT 37.768856 23.692734 38,000 304 424 0
2022-08-03 04:56:31 GMT 37.766201 23.697748 38,000 304 424 0
2022-08-03 04:56:27 GMT 37.763454 23.703062 38,000 304 424 0
2022-08-03 04:56:24 GMT 37.759644 23.710249 38,000 304 424 0
2022-08-03 04:56:20 GMT 37.755402 23.718409 38,000 304 424 0
2022-08-03 04:56:17 GMT 37.751957 23.724976 38,000 304 423 0
2022-08-03 04:56:12 GMT 37.746185 23.735962 38,000 304 423 0
2022-08-03 04:56:08 GMT 37.741436 23.745096 38,000 304 424 0
2022-08-03 04:56:04 GMT 37.737106 23.753277 38,000 304 424 0
2022-08-03 04:56:00 GMT 37.732956 23.761267 38,000 304 424 0
2022-08-03 04:55:57 GMT 37.729843 23.767189 38,000 304 424 0
2022-08-03 04:55:52 GMT 37.724258 23.777803 38,000 304 424 0
2022-08-03 04:55:49 GMT 37.721466 23.783121 38,000 304 424 -64
2022-08-03 04:55:46 GMT 37.718857 23.788090 38,000 304 424 -64
2022-08-03 04:55:41 GMT 37.712448 23.800303 38,000 304 424 0
2022-08-03 04:55:38 GMT 37.708057 23.808687 38,000 304 424 0
2022-08-03 04:55:32 GMT 37.703541 23.817225 38,000 304 423 64
2022-08-03 04:55:29 GMT 37.699024 23.825884 38,000 304 424 0
2022-08-03 04:55:26 GMT 37.697205 23.829287 38,000 304 424 0
2022-08-03 04:55:22 GMT 37.693176 23.836943 38,000 304 424 0
2022-08-03 04:55:19 GMT 37.683517 23.855234 38,000 304 424 0
2022-08-03 04:55:16 GMT 37.683517 23.855234 38,000 304 423 0
2022-08-03 04:55:13 GMT 37.681870 23.858389 38,000 304 423 0
2022-08-03 04:55:08 GMT 37.676926 23.867798 38,000 304 424 0
2022-08-03 04:55:06 GMT 37.675278 23.870895 38,000 304 424 0
2022-08-03 04:55:03 GMT 37.672680 23.875858 38,000 304 423 0
2022-08-03 04:55:00 GMT 37.668045 23.884686 38,000 304 423 0
2022-08-03 04:54:56 GMT 37.664204 23.891920 38,000 304 423 0
2022-08-03 04:54:52 GMT 37.659760 23.900406 38,000 304 423 0
2022-08-03 04:54:47 GMT 37.654861 23.909756 38,000 304 423 0
2022-08-03 04:54:45 GMT 37.651703 23.915659 38,000 304 423 0
2022-08-03 04:54:42 GMT 37.649029 23.920759 38,000 304 423 0
2022-08-03 04:54:36 GMT 37.641300 23.935448 38,000 304 423 0
2022-08-03 04:54:33 GMT 37.639618 23.938625 38,000 304 424 0
2022-08-03 04:54:29 GMT 37.634491 23.948383 38,000 304 424 0
2022-08-03 04:54:26 GMT 37.631294 23.954374 38,000 304 424 0
2022-08-03 04:54:22 GMT 37.627075 23.962408 38,000 304 424 0
2022-08-03 04:54:15 GMT 37.619293 23.977135 38,000 304 424 0
2022-08-03 04:54:11 GMT 37.612068 23.990797 38,000 304 424 0
2022-08-03 04:54:05 GMT 37.609406 23.995834 38,000 304 424 0
2022-08-03 04:54:02 GMT 37.604736 24.004660 38,000 304 424 0
2022-08-03 04:53:58 GMT 37.600845 24.012024 38,000 304 424 0
2022-08-03 04:53:55 GMT 37.597321 24.018684 38,000 304 424 0
2022-08-03 04:53:52 GMT 37.594940 24.023243 38,000 304 424 0
2022-08-03 04:53:49 GMT 37.592236 24.028294 38,000 304 424 0
2022-08-03 04:53:45 GMT 37.587719 24.036892 38,000 304 424 0
2022-08-03 04:53:40 GMT 37.580933 24.049715 38,000 304 424 0
2022-08-03 04:53:34 GMT 37.575027 24.060877 38,000 304 424 0
2022-08-03 04:53:31 GMT 37.571182 24.068123 38,000 304 424 0
2022-08-03 04:53:27 GMT 37.567017 24.076012 38,000 304 424 0
2022-08-03 04:53:24 GMT 37.563492 24.082674 38,000 304 424 0
2022-08-03 04:53:20 GMT 37.560104 24.089102 38,000 304 424 0
2022-08-03 04:53:16 GMT 37.555740 24.097317 38,000 304 424 0
2022-08-03 04:53:13 GMT 37.552013 24.104362 38,000 304 425 0
2022-08-03 04:53:09 GMT 37.547546 24.112782 38,000 304 425 0
2022-08-03 04:53:05 GMT 37.543774 24.119886 38,000 304 425 0
2022-08-03 04:53:03 GMT 37.540562 24.125917 38,000 304 425 0
2022-08-03 04:52:58 GMT 37.536095 24.134396 38,000 304 425 0
2022-08-03 04:52:55 GMT 37.532730 24.140644 38,000 304 425 0
2022-08-03 04:52:51 GMT 37.528931 24.147890 38,000 304 425 0
2022-08-03 04:52:48 GMT 37.524628 24.155897 38,000 304 425 0
2022-08-03 04:52:45 GMT 37.516205 24.171734 38,000 304 426 0
2022-08-03 04:52:41 GMT 37.516205 24.171734 38,000 304 426 0
2022-08-03 04:52:37 GMT 37.513367 24.177168 38,000 304 426 0
2022-08-03 04:52:34 GMT 37.510628 24.182281 38,000 304 426 -64
2022-08-03 04:52:32 GMT 37.508102 24.186987 38,000 304 426 0
2022-08-03 04:52:29 GMT 37.504349 24.193998 38,000 304 426 0
2022-08-03 04:52:25 GMT 37.499268 24.203524 38,000 304 426 0
2022-08-03 04:52:22 GMT 37.497456 24.206942 38,000 304 426 0
2022-08-03 04:52:19 GMT 37.492950 24.215387 38,000 304 426 0
2022-08-03 04:52:14 GMT 37.487957 24.224733 38,000 304 426 0
2022-08-03 04:52:11 GMT 37.485443 24.229469 38,000 304 426 0
2022-08-03 04:52:08 GMT 37.481396 24.237095 38,000 304 426 0
2022-08-03 04:52:04 GMT 37.477345 24.244736 38,000 304 426 0
2022-08-03 04:52:01 GMT 37.474228 24.250587 38,000 304 426 0
2022-08-03 04:51:58 GMT 37.470474 24.257580 38,000 304 426 0
2022-08-03 04:51:54 GMT 37.465622 24.266695 38,000 304 426 0
2022-08-03 04:51:50 GMT 37.460957 24.275486 38,000 304 426 0
2022-08-03 04:51:47 GMT 37.455780 24.285160 38,000 304 426 0
2022-08-03 04:51:43 GMT 37.454178 24.288200 38,000 304 426 0
2022-08-03 04:51:40 GMT 37.449371 24.297199 38,000 304 426 0
2022-08-03 04:51:37 GMT 37.447449 24.300880 38,000 304 426 0
2022-08-03 04:51:34 GMT 37.444153 24.307072 38,000 304 426 0
2022-08-03 04:51:31 GMT 37.440628 24.313622 38,000 304 426 0
2022-08-03 04:51:27 GMT 37.434448 24.325191 38,000 304 427 0
2022-08-03 04:51:22 GMT 37.426369 24.340389 38,000 304 427 0
2022-08-03 04:51:19 GMT 37.426369 24.340389 38,000 304 427 0
2022-08-03 04:51:13 GMT 37.421341 24.349764 38,000 304 427 0
2022-08-03 04:51:11 GMT 37.419247 24.353704 38,000 304 427 0
2022-08-03 04:51:07 GMT 37.414684 24.362303 38,000 304 427 0
2022-08-03 04:51:03 GMT 37.409985 24.371019 38,000 304 427 0
2022-08-03 04:51:01 GMT 37.408306 24.374184 38,000 304 427 0
2022-08-03 04:50:58 GMT 37.404968 24.380474 38,000 304 427 0
2022-08-03 04:50:55 GMT 37.400066 24.389589 38,000 304 427 0
2022-08-03 04:50:52 GMT 37.397415 24.394558 38,000 304 427 0
2022-08-03 04:50:49 GMT 37.394527 24.399979 38,000 304 427 0
2022-08-03 04:50:43 GMT 37.387733 24.412636 38,000 304 428 0
2022-08-03 04:50:40 GMT 37.385448 24.416994 38,000 304 428 0
2022-08-03 04:50:37 GMT 37.381348 24.424595 38,000 304 428 0
2022-08-03 04:50:33 GMT 37.373951 24.438490 38,000 304 428 0
2022-08-03 04:50:30 GMT 37.373951 24.438490 38,000 304 428 0
2022-08-03 04:50:27 GMT 37.369354 24.447092 38,000 304 428 0
2022-08-03 04:50:24 GMT 37.366241 24.452879 38,000 304 428 0
2022-08-03 04:50:21 GMT 37.363338 24.458254 38,000 304 428 0
2022-08-03 04:50:18 GMT 37.360638 24.463327 38,000 304 428 0
2022-08-03 04:50:15 GMT 37.357845 24.468523 38,000 304 428 0
2022-08-03 04:50:12 GMT 37.354446 24.474852 38,000 304 428 0
2022-08-03 04:50:08 GMT 37.349792 24.483570 38,000 304 428 0
2022-08-03 04:50:05 GMT 37.344997 24.492466 38,000 304 428 0
2022-08-03 04:50:02 GMT 37.343033 24.496122 38,000 304 428 0
2022-08-03 04:49:58 GMT 37.338501 24.504597 38,000 304 427 0
2022-08-03 04:49:55 GMT 37.334476 24.512051 38,000 304 427 0
2022-08-03 04:49:50 GMT 37.328751 24.522770 38,000 304 428 0
2022-08-03 04:49:47 GMT 37.325455 24.528906 38,000 304 428 0
2022-08-03 04:49:41 GMT 37.320053 24.538958 38,000 304 428 0
2022-08-03 04:49:39 GMT 37.317261 24.544159 38,000 304 428 0
2022-08-03 04:49:36 GMT 37.314056 24.550060 38,000 304 428 0
2022-08-03 04:49:32 GMT 37.309433 24.558651 38,000 304 428 0
2022-08-03 04:49:29 GMT 37.306091 24.564903 38,000 304 429 0
2022-08-03 04:49:25 GMT 37.302567 24.571449 38,000 304 429 0
2022-08-03 04:49:21 GMT 37.296021 24.583605 38,000 304 429 0
2022-08-03 04:49:18 GMT 37.293228 24.588776 38,000 304 429 0
2022-08-03 04:49:13 GMT 37.288010 24.598448 38,000 304 429 0
2022-08-03 04:49:10 GMT 37.285126 24.603882 38,000 305 429 -64
2022-08-03 04:49:06 GMT 37.280102 24.613136 38,000 304 429 0
2022-08-03 04:49:01 GMT 37.273445 24.625557 38,000 304 429 0
2022-08-03 04:48:56 GMT 37.269516 24.632868 38,000 304 429 0
2022-08-03 04:48:53 GMT 37.266632 24.638186 38,000 304 429 0
2022-08-03 04:48:50 GMT 37.263672 24.643648 38,000 304 429 0
2022-08-03 04:48:47 GMT 37.259491 24.651449 38,000 304 429 0
2022-08-03 04:48:44 GMT 37.256222 24.657499 38,000 304 429 0
2022-08-03 04:48:40 GMT 37.250885 24.667404 38,000 304 429 0
2022-08-03 04:48:37 GMT 37.245838 24.676786 38,000 304 429 0
2022-08-03 04:48:34 GMT 37.245838 24.676786 38,000 304 429 0
2022-08-03 04:48:30 GMT 37.241371 24.685024 38,000 305 429 0
2022-08-03 04:48:28 GMT 37.238983 24.689434 38,000 305 429 0
2022-08-03 04:48:25 GMT 37.234158 24.698400 38,000 305 429 0
2022-08-03 04:48:19 GMT 37.228989 24.708014 38,000 305 429 0
2022-08-03 04:48:17 GMT 37.225662 24.714096 38,000 305 429 0
2022-08-03 04:48:14 GMT 37.222961 24.719122 38,000 305 429 0
2022-08-03 04:48:10 GMT 37.217834 24.728531 38,000 305 429 0
2022-08-03 04:48:07 GMT 37.214230 24.735241 38,000 305 429 0
2022-08-03 04:48:04 GMT 37.211624 24.740076 38,000 305 429 0
2022-08-03 04:47:56 GMT 37.202595 24.756735 38,000 305 429 0
2022-08-03 04:47:53 GMT 37.200314 24.760975 38,000 305 429 0
2022-08-03 04:47:49 GMT 37.195038 24.770721 38,000 305 429 0
2022-08-03 04:47:46 GMT 37.191608 24.777037 38,000 305 429 0
2022-08-03 04:47:43 GMT 37.188354 24.783052 38,000 305 429 0
2022-08-03 04:47:39 GMT 37.183914 24.791292 38,000 305 429 0
2022-08-03 04:47:36 GMT 37.179977 24.798538 38,000 305 429 0
2022-08-03 04:47:33 GMT 37.177593 24.802950 38,000 305 429 0
2022-08-03 04:47:29 GMT 37.173065 24.811337 38,000 305 429 0
2022-08-03 04:47:25 GMT 37.167252 24.822031 38,000 305 429 0
2022-08-03 04:47:22 GMT 37.165054 24.826063 38,000 305 429 0
2022-08-03 04:47:19 GMT 37.161907 24.831907 38,000 305 429 0
2022-08-03 04:47:14 GMT 37.156368 24.842058 38,000 305 429 0
2022-08-03 04:47:11 GMT 37.153526 24.847254 38,000 305 429 0
2022-08-03 04:47:08 GMT 37.149475 24.854776 38,000 305 429 0
2022-08-03 04:47:05 GMT 37.145008 24.863016 38,000 305 429 0
2022-08-03 04:47:01 GMT 37.141525 24.869425 38,000 305 429 0
2022-08-03 04:46:58 GMT 37.138504 24.874975 38,000 305 429 0
2022-08-03 04:46:53 GMT 37.131882 24.887197 38,000 305 429 0
2022-08-03 04:46:48 GMT 37.127876 24.894543 38,000 305 429 0
2022-08-03 04:46:45 GMT 37.124062 24.901587 38,000 305 429 -64
2022-08-03 04:46:42 GMT 37.120148 24.908693 38,000 305 429 -64
2022-08-03 04:46:38 GMT 37.115753 24.916876 38,000 305 429 0
2022-08-03 04:46:34 GMT 37.110443 24.926577 38,000 305 429 64
2022-08-03 04:46:30 GMT 37.107101 24.932770 38,000 305 429 -64
2022-08-03 04:46:26 GMT 37.102322 24.941532 38,000 305 429 -64
2022-08-03 04:46:23 GMT 37.099155 24.947325 38,000 305 429 0
2022-08-03 04:46:20 GMT 37.095615 24.953833 38,000 305 429 0
2022-08-03 04:46:15 GMT 37.090622 24.962982 38,000 305 429 64
2022-08-03 04:46:12 GMT 37.086166 24.971268 38,000 305 429 64
2022-08-03 04:46:09 GMT 37.084164 24.974909 38,000 305 429 0
2022-08-03 04:46:03 GMT 37.076340 24.989281 38,000 305 429 0
2022-08-03 04:46:00 GMT 37.074158 24.993179 38,000 305 429 0
2022-08-03 04:45:55 GMT 37.064613 25.010735 38,000 305 429 0
2022-08-03 04:45:52 GMT 37.064613 25.010735 38,000 305 429 0
2022-08-03 04:45:49 GMT 37.061371 25.016687 38,000 305 429 0
2022-08-03 04:45:43 GMT 37.055099 25.028141 38,000 305 429 0
2022-08-03 04:45:40 GMT 37.051113 25.035454 38,000 305 430 0
2022-08-03 04:45:36 GMT 37.046875 25.043217 38,000 305 431 -64
2022-08-03 04:45:33 GMT 37.042007 25.052101 38,000 305 431 0
2022-08-03 04:45:30 GMT 37.039566 25.056471 38,000 305 431 0
2022-08-03 04:45:27 GMT 37.037155 25.060925 38,000 305 430 0
2022-08-03 04:45:24 GMT 37.032944 25.068640 38,000 305 430 0
2022-08-03 04:45:20 GMT 37.028412 25.076937 38,000 305 430 0
2022-08-03 04:45:17 GMT 37.026077 25.081203 38,000 305 430 0
2022-08-03 04:45:14 GMT 37.021645 25.089371 38,000 305 430 -64
2022-08-03 04:45:10 GMT 37.018021 25.095987 38,000 305 430 0
2022-08-03 04:45:07 GMT 37.013966 25.103401 38,000 305 430 0
2022-08-03 04:45:04 GMT 37.010147 25.110363 38,000 305 430 0
2022-08-03 04:45:00 GMT 37.006187 25.117672 38,000 305 430 0
2022-08-03 04:44:57 GMT 37.002823 25.123861 38,000 305 430 0
2022-08-03 04:44:53 GMT 36.998463 25.131823 38,000 305 430 0
2022-08-03 04:44:50 GMT 36.994968 25.138210 38,000 305 430 64
2022-08-03 04:44:47 GMT 36.992226 25.143288 38,000 305 430 64
2022-08-03 04:44:42 GMT 36.986683 25.153378 38,000 305 430 0
2022-08-03 04:44:40 GMT 36.983231 25.159685 38,000 305 430 0
2022-08-03 04:44:36 GMT 36.979885 25.165796 38,000 305 430 0
2022-08-03 04:44:33 GMT 36.975449 25.173944 38,000 305 430 0
2022-08-03 04:44:29 GMT 36.971741 25.180664 38,000 305 430 0
2022-08-03 04:44:26 GMT 36.967941 25.187618 38,000 305 430 -64
2022-08-03 04:44:23 GMT 36.964523 25.193800 38,000 305 430 0
2022-08-03 04:44:19 GMT 36.960022 25.201994 38,000 305 430 0
2022-08-03 04:44:16 GMT 36.957123 25.207233 38,000 305 430 0
2022-08-03 04:44:11 GMT 36.950775 25.218765 38,000 305 430 0
2022-08-03 04:44:09 GMT 36.948837 25.222340 38,000 305 430 0
2022-08-03 04:44:06 GMT 36.945557 25.228350 38,000 305 430 0
2022-08-03 04:44:02 GMT 36.941574 25.235596 38,000 305 430 0
2022-08-03 04:43:59 GMT 36.936874 25.244135 38,000 305 430 0
2022-08-03 04:43:55 GMT 36.933151 25.250906 38,000 305 429 0
2022-08-03 04:43:51 GMT 36.929031 25.258446 38,000 305 429 0
2022-08-03 04:43:48 GMT 36.925598 25.264698 38,000 305 429 0
2022-08-03 04:43:45 GMT 36.921883 25.271481 38,000 305 429 0
2022-08-03 04:43:41 GMT 36.917679 25.279190 38,000 305 429 0
2022-08-03 04:43:38 GMT 36.914017 25.285870 38,000 305 429 0
2022-08-03 04:43:31 GMT 36.906097 25.300344 38,000 305 429 0
2022-08-03 04:43:27 GMT 36.902618 25.306656 38,000 305 428 0
2022-08-03 04:43:23 GMT 36.897171 25.316648 38,000 305 428 0
2022-08-03 04:43:20 GMT 36.894516 25.321499 38,000 305 428 0
2022-08-03 04:43:17 GMT 36.890881 25.328085 38,000 305 428 0
2022-08-03 04:43:14 GMT 36.887386 25.334473 38,000 305 428 0
2022-08-03 04:43:09 GMT 36.881710 25.344862 38,000 305 428 0
2022-08-03 04:43:07 GMT 36.879616 25.348623 38,000 305 428 0
2022-08-03 04:43:00 GMT 36.871490 25.363400 38,000 305 427 0
2022-08-03 04:42:56 GMT 36.867416 25.370775 38,000 305 427 0
2022-08-03 04:42:53 GMT 36.864166 25.376665 38,000 305 427 0
2022-08-03 04:42:50 GMT 36.859818 25.384554 38,000 305 428 0
2022-08-03 04:42:47 GMT 36.856384 25.390747 38,000 305 428 0
2022-08-03 04:42:42 GMT 36.852287 25.398123 38,000 305 428 0
2022-08-03 04:42:39 GMT 36.848740 25.404625 38,000 305 428 0
2022-08-03 04:42:36 GMT 36.844620 25.412064 38,000 305 428 0
2022-08-03 04:42:29 GMT 36.837433 25.425053 38,000 305 428 0
2022-08-03 04:42:25 GMT 36.833107 25.432941 38,000 305 428 0
2022-08-03 04:42:22 GMT 36.829010 25.440273 38,000 305 428 0
2022-08-03 04:42:19 GMT 36.825943 25.445824 38,000 305 428 0
2022-08-03 04:42:16 GMT 36.821182 25.454407 38,000 305 428 0
2022-08-03 04:42:09 GMT 36.814362 25.466766 38,000 305 428 0
2022-08-03 04:42:04 GMT 36.809235 25.476036 38,000 305 428 0
2022-08-03 04:42:00 GMT 36.804337 25.484962 38,000 305 428 0
2022-08-03 04:41:57 GMT 36.800800 25.491262 38,000 305 428 0
2022-08-03 04:41:54 GMT 36.798157 25.496063 38,000 305 428 0
2022-08-03 04:41:48 GMT 36.790604 25.509682 38,000 305 429 0
2022-08-03 04:41:45 GMT 36.786621 25.516891 38,000 305 429 0
2022-08-03 04:41:38 GMT 36.780178 25.528486 38,000 305 429 0
2022-08-03 04:41:33 GMT 36.774174 25.539356 38,000 305 429 0
2022-08-03 04:41:26 GMT 36.766445 25.553265 38,000 305 429 0
2022-08-03 04:41:23 GMT 36.763279 25.558990 38,000 305 429 0
2022-08-03 04:41:18 GMT 36.757599 25.569277 38,000 305 429 0
2022-08-03 04:41:14 GMT 36.751556 25.580120 38,000 305 429 0
2022-08-03 04:41:08 GMT 36.745636 25.590839 38,000 305 429 0
2022-08-03 04:41:05 GMT 36.739792 25.601349 38,000 305 429 0
2022-08-03 04:41:03 GMT 36.739792 25.601349 38,000 305 429 0
2022-08-03 04:40:58 GMT 36.734299 25.611248 38,000 305 429 0
2022-08-03 04:40:55 GMT 36.731461 25.616341 38,000 305 429 0
2022-08-03 04:40:53 GMT 36.728600 25.621519 38,000 305 430 0
2022-08-03 04:40:45 GMT 36.719334 25.638233 38,000 305 431 0
2022-08-03 04:40:43 GMT 36.716450 25.643375 38,000 305 431 0
2022-08-03 04:40:37 GMT 36.710770 25.653648 38,000 305 431 0
2022-08-03 04:40:34 GMT 36.708115 25.658451 38,000 305 431 0
2022-08-03 04:40:32 GMT 36.705090 25.663887 38,000 305 431 0
2022-08-03 04:40:27 GMT 36.699783 25.673447 38,000 305 431 0
2022-08-03 04:40:24 GMT 36.696991 25.678482 38,000 305 431 0
2022-08-03 04:40:22 GMT 36.694149 25.683521 38,000 305 431 0
2022-08-03 04:40:14 GMT 36.683582 25.702574 38,000 305 431 0
2022-08-03 04:40:10 GMT 36.679531 25.709879 38,000 305 432 0
2022-08-03 04:40:04 GMT 36.672874 25.721857 38,000 305 432 0
2022-08-03 04:40:01 GMT 36.669983 25.727005 38,000 305 432 0
2022-08-03 04:39:56 GMT 36.664719 25.736389 38,000 305 432 0
2022-08-03 04:39:53 GMT 36.660446 25.744064 38,000 305 432 0
2022-08-03 04:39:50 GMT 36.657604 25.749147 38,000 305 433 0
2022-08-03 04:39:44 GMT 36.649971 25.762823 38,000 305 433 64
2022-08-03 04:39:41 GMT 36.646408 25.769234 38,000 305 433 0
2022-08-03 04:39:35 GMT 36.639587 25.781479 38,000 305 433 0
2022-08-03 04:39:33 GMT 36.637356 25.785439 38,000 305 433 0
2022-08-03 04:39:29 GMT 36.632721 25.793667 38,000 305 433 0
2022-08-03 04:39:24 GMT 36.623978 25.809345 38,000 305 433 0
2022-08-03 04:39:21 GMT 36.623978 25.809345 38,000 305 433 0
2022-08-03 04:39:18 GMT 36.622040 25.812786 38,000 305 433 0
2022-08-03 04:39:15 GMT 36.617844 25.820274 38,000 305 433 0
2022-08-03 04:39:12 GMT 36.613541 25.827942 38,000 305 433 0
2022-08-03 04:39:09 GMT 36.610542 25.833357 38,000 305 433 0
2022-08-03 04:39:04 GMT 36.604771 25.843641 38,000 305 434 0
2022-08-03 04:39:02 GMT 36.602348 25.847967 38,000 305 434 0
2022-08-03 04:38:59 GMT 36.599045 25.853868 38,000 305 434 0
2022-08-03 04:38:54 GMT 36.593086 25.864506 38,000 305 434 0
2022-08-03 04:38:51 GMT 36.590244 25.869589 38,000 305 434 0
2022-08-03 04:38:48 GMT 36.586941 25.875490 38,000 305 434 0
2022-08-03 04:38:45 GMT 36.582748 25.883030 38,000 305 434 0
2022-08-03 04:38:42 GMT 36.578613 25.890427 38,000 305 434 0
2022-08-03 04:38:39 GMT 36.575672 25.895710 38,000 305 434 0
2022-08-03 04:38:34 GMT 36.570465 25.905018 38,000 305 434 0
2022-08-03 04:38:31 GMT 36.566875 25.911430 38,000 305 434 0
2022-08-03 04:38:28 GMT 36.563431 25.917625 38,000 305 434 0
2022-08-03 04:38:23 GMT 36.558060 25.927219 38,000 305 434 0
2022-08-03 04:38:20 GMT 36.554771 25.933111 38,000 305 434 0
2022-08-03 04:38:17 GMT 36.551605 25.938778 38,000 305 434 0
2022-08-03 04:38:12 GMT 36.545925 25.948948 38,000 305 434 0
2022-08-03 04:38:10 GMT 36.543461 25.953388 38,000 305 434 0
2022-08-03 04:38:07 GMT 36.539841 25.959778 38,000 305 434 0
2022-08-03 04:38:04 GMT 36.535858 25.966930 38,000 305 434 0
2022-08-03 04:38:01 GMT 36.531372 25.974998 38,000 305 434 0
2022-08-03 04:37:58 GMT 36.528332 25.980387 38,000 305 434 0
2022-08-03 04:37:53 GMT 36.523132 25.989704 38,000 305 434 0
2022-08-03 04:37:50 GMT 36.520248 25.994911 38,000 305 434 0
2022-08-03 04:37:47 GMT 36.516586 26.001377 38,000 305 434 0
2022-08-03 04:37:42 GMT 36.510689 26.011944 38,000 305 434 0
2022-08-03 04:37:40 GMT 36.508484 26.015911 38,000 305 434 0
2022-08-03 04:37:33 GMT 36.499924 26.031132 38,000 305 434 0
2022-08-03 04:37:30 GMT 36.496628 26.036955 38,000 305 434 0
2022-08-03 04:37:23 GMT 36.488297 26.051846 38,000 305 434 0
2022-08-03 04:37:19 GMT 36.484680 26.058311 38,000 305 434 0
2022-08-03 04:37:13 GMT 36.477032 26.071959 38,000 305 435 0
2022-08-03 04:37:08 GMT 36.472458 26.080055 38,000 305 435 0
2022-08-03 04:37:02 GMT 36.465042 26.093216 38,000 305 435 0
2022-08-03 04:36:57 GMT 36.459061 26.103926 38,000 305 435 0
2022-08-03 04:36:51 GMT 36.453335 26.114035 38,000 305 435 0
2022-08-03 04:36:48 GMT 36.448586 26.122566 38,000 305 435 0
2022-08-03 04:36:41 GMT 36.440506 26.136875 38,000 305 435 0
2022-08-03 04:36:37 GMT 36.436481 26.144072 38,000 305 435 0
2022-08-03 04:36:33 GMT 36.431225 26.153421 38,000 305 435 0
2022-08-03 04:36:29 GMT 36.425961 26.162771 38,000 305 435 0
2022-08-03 04:36:26 GMT 36.423264 26.167564 38,000 305 435 0
2022-08-03 04:36:21 GMT 36.413086 26.185627 38,000 305 435 0
2022-08-03 04:36:17 GMT 36.413086 26.185627 38,000 305 435 0
2022-08-03 04:36:10 GMT 36.405533 26.199017 38,000 306 435 0
2022-08-03 04:36:08 GMT 36.402420 26.204510 38,000 306 435 0
2022-08-03 04:36:04 GMT 36.398438 26.211548 38,000 306 435 0
2022-08-03 04:36:01 GMT 36.394352 26.218815 38,000 306 435 0
2022-08-03 04:35:58 GMT 36.390770 26.225124 38,000 306 435 0
2022-08-03 04:35:54 GMT 36.386578 26.232548 38,000 306 436 0
2022-08-03 04:35:51 GMT 36.382622 26.239502 38,000 306 435 0
2022-08-03 04:35:47 GMT 36.377838 26.247940 38,000 306 435 0
2022-08-03 04:35:44 GMT 36.374542 26.253719 38,000 306 435 0
2022-08-03 04:35:39 GMT 36.369633 26.262466 38,000 306 435 0
2022-08-03 04:35:37 GMT 36.367172 26.266823 38,000 306 435 0
2022-08-03 04:35:33 GMT 36.362640 26.274776 38,000 305 436 0
2022-08-03 04:35:29 GMT 36.356926 26.284966 38,000 305 436 0
2022-08-03 04:35:26 GMT 36.354691 26.288822 38,000 305 436 0
2022-08-03 04:35:23 GMT 36.350639 26.296009 38,000 305 436 0
2022-08-03 04:35:19 GMT 36.343048 26.309452 38,000 305 436 0
2022-08-03 04:35:12 GMT 36.338287 26.317806 38,000 305 436 0
2022-08-03 04:35:09 GMT 36.334122 26.325188 38,000 305 436 0
2022-08-03 04:35:06 GMT 36.331238 26.330338 38,000 305 436 0
2022-08-03 04:35:00 GMT 36.323776 26.343498 38,000 305 436 0
2022-08-03 04:34:56 GMT 36.319382 26.351280 38,000 306 436 0
2022-08-03 04:34:51 GMT 36.314053 26.360641 38,000 305 436 0
2022-08-03 04:34:48 GMT 36.310421 26.367012 38,000 305 436 0
2022-08-03 04:34:46 GMT 36.307571 26.372051 38,000 305 436 0
2022-08-03 04:34:40 GMT 36.300503 26.384544 38,000 306 437 0
2022-08-03 04:34:36 GMT 36.295761 26.392822 38,000 306 437 0
2022-08-03 04:34:31 GMT 36.290359 26.402378 38,000 306 437 0
2022-08-03 04:34:28 GMT 36.287064 26.408215 38,000 306 437 0
2022-08-03 04:34:25 GMT 36.283932 26.413763 38,000 306 437 0
2022-08-03 04:34:21 GMT 36.278824 26.422691 38,000 306 436 0
2022-08-03 04:34:16 GMT 36.272141 26.434479 38,000 306 436 0
2022-08-03 04:34:11 GMT 36.266830 26.443748 38,000 306 436 0
2022-08-03 04:34:07 GMT 36.261703 26.452732 38,000 306 436 0
2022-08-03 04:34:04 GMT 36.259277 26.457024 38,000 306 436 0
2022-08-03 04:33:57 GMT 36.251019 26.471498 38,000 306 436 0
2022-08-03 04:33:55 GMT 36.248016 26.476650 38,000 306 436 0
2022-08-03 04:33:50 GMT 36.242432 26.486492 38,000 306 436 0
2022-08-03 04:33:47 GMT 36.239182 26.492157 38,000 306 436 0
2022-08-03 04:33:44 GMT 36.236122 26.497562 38,000 306 436 0
2022-08-03 04:33:37 GMT 36.227325 26.512928 38,000 306 436 0
2022-08-03 04:33:34 GMT 36.223366 26.519827 38,000 306 436 64
2022-08-03 04:33:26 GMT 36.214756 26.534964 38,000 306 436 0
2022-08-03 04:33:24 GMT 36.212521 26.538820 38,000 306 436 0
2022-08-03 04:33:16 GMT 36.201904 26.557404 38,000 306 437 0
2022-08-03 04:33:13 GMT 36.199173 26.562138 38,000 306 437 0
2022-08-03 04:33:07 GMT 36.191898 26.574934 38,000 306 437 0
2022-08-03 04:33:03 GMT 36.188358 26.581070 38,000 306 437 0
2022-08-03 04:32:57 GMT 36.180359 26.595097 38,000 306 437 0
2022-08-03 04:32:53 GMT 36.176239 26.602306 38,000 306 437 0
2022-08-03 04:32:46 GMT 36.167271 26.618004 38,000 306 437 0
2022-08-03 04:32:43 GMT 36.164612 26.622620 38,000 306 437 0
2022-08-03 04:32:36 GMT 36.155457 26.638641 38,000 306 437 0
2022-08-03 04:32:33 GMT 36.152573 26.643677 38,000 306 437 0
2022-08-03 04:32:25 GMT 36.144058 26.658611 38,000 306 437 0
2022-08-03 04:32:22 GMT 36.140457 26.664869 38,000 306 437 0
2022-08-03 04:32:15 GMT 36.131985 26.679712 38,000 306 437 0
2022-08-03 04:32:11 GMT 36.127655 26.687309 38,000 306 437 0
2022-08-03 04:32:05 GMT 36.120621 26.699581 38,000 306 438 0
2022-08-03 04:32:02 GMT 36.116638 26.706505 38,000 306 437 0
2022-08-03 04:31:54 GMT 36.107174 26.723133 38,000 306 437 0
2022-08-03 04:31:51 GMT 36.103958 26.728743 38,000 306 437 0
2022-08-03 04:31:45 GMT 36.096680 26.741467 38,000 306 438 0
2022-08-03 04:31:41 GMT 36.092602 26.748611 38,000 306 438 0
2022-08-03 04:31:35 GMT 36.084923 26.761993 38,000 306 438 0
2022-08-03 04:31:30 GMT 36.079010 26.772251 38,000 306 438 0
2022-08-03 04:31:24 GMT 36.072235 26.784039 38,000 306 438 0
2022-08-03 04:31:22 GMT 36.069138 26.789400 38,000 306 438 0
2022-08-03 04:31:15 GMT 36.060928 26.803722 38,000 306 438 0
2022-08-03 04:31:11 GMT 36.056942 26.810614 38,000 306 438 0
2022-08-03 04:31:04 GMT 36.048889 26.824581 38,000 306 439 -64
2022-08-03 04:31:02 GMT 36.046047 26.829607 38,000 306 439 -64
2022-08-03 04:30:59 GMT 36.043072 26.834749 38,000 306 439 -64
2022-08-03 04:30:53 GMT 36.036274 26.846554 38,000 306 439 0
2022-08-03 04:30:50 GMT 36.032043 26.853962 38,000 306 439 0
2022-08-03 04:30:44 GMT 36.024544 26.867006 38,000 306 439 0
2022-08-03 04:30:41 GMT 36.020073 26.874779 38,000 306 439 0
2022-08-03 04:30:33 GMT 36.012085 26.888695 38,000 306 439 0
2022-08-03 04:30:29 GMT 36.007233 26.897106 38,000 306 439 0
2022-08-03 04:30:22 GMT 35.999825 26.910017 38,000 306 439 0
2022-08-03 04:30:19 GMT 35.996426 26.915920 38,000 306 439 0
2022-08-03 04:30:12 GMT 35.984924 26.935905 38,000 306 439 0
2022-08-03 04:30:10 GMT 35.984924 26.935905 38,000 306 439 0
2022-08-03 04:30:01 GMT 35.973522 26.955656 38,000 306 440 0
2022-08-03 04:29:52 GMT 35.964630 26.971025 38,000 306 440 0
2022-08-03 04:29:49 GMT 35.960579 26.978098 38,000 306 439 0
2022-08-03 04:29:42 GMT 35.952667 26.991749 38,000 306 439 0
2022-08-03 04:29:39 GMT 35.945263 27.004570 38,000 306 439 0
2022-08-03 04:29:32 GMT 35.940674 27.012463 38,000 306 439 0
2022-08-03 04:29:28 GMT 35.936050 27.020473 38,000 306 439 0
2022-08-03 04:29:21 GMT 35.928543 27.033463 38,000 306 439 0
2022-08-03 04:29:18 GMT 35.923050 27.042904 38,000 306 439 0
2022-08-03 04:29:11 GMT 35.916542 27.054125 38,000 306 439 0
2022-08-03 04:29:08 GMT 35.911835 27.062302 38,000 306 439 0
2022-08-03 04:29:02 GMT 35.905045 27.073994 38,000 306 438 0
2022-08-03 04:28:58 GMT 35.900299 27.082214 38,000 306 438 0
2022-08-03 04:28:52 GMT 35.893066 27.094688 38,000 306 438 0
2022-08-03 04:28:47 GMT 35.887817 27.103798 38,000 306 438 0
2022-08-03 04:28:41 GMT 35.880844 27.115803 38,000 306 438 0
2022-08-03 04:28:37 GMT 35.876175 27.123871 38,000 306 438 0
2022-08-03 04:28:32 GMT 35.869446 27.135429 38,000 306 438 0
2022-08-03 04:28:27 GMT 35.863937 27.144938 38,000 306 438 0
2022-08-03 04:28:21 GMT 35.856628 27.157560 38,000 306 438 0
2022-08-03 04:28:16 GMT 35.851414 27.166500 38,000 306 437 0
2022-08-03 04:28:11 GMT 35.844727 27.178059 38,000 306 437 0
2022-08-03 04:28:07 GMT 35.840103 27.186012 38,000 306 437 0
2022-08-03 04:28:00 GMT 35.832825 27.198486 38,000 306 437 0
2022-08-03 04:27:56 GMT 35.828018 27.206783 38,000 306 437 0
2022-08-03 04:27:50 GMT 35.820225 27.220205 38,000 306 437 0
2022-08-03 04:27:46 GMT 35.814926 27.229271 38,000 306 437 0
2022-08-03 04:27:40 GMT 35.808975 27.239513 38,000 306 437 0
2022-08-03 04:27:36 GMT 35.803699 27.248665 38,000 306 437 0
2022-08-03 04:27:30 GMT 35.797028 27.260113 38,000 306 437 0
2022-08-03 04:27:25 GMT 35.791267 27.269995 38,000 306 436 0
2022-08-03 04:27:19 GMT 35.784164 27.282200 38,000 306 436 0
2022-08-03 04:27:15 GMT 35.779861 27.289639 38,000 306 436 0
2022-08-03 04:27:10 GMT 35.772995 27.301369 38,000 306 436 0
2022-08-03 04:27:05 GMT 35.767593 27.310581 38,000 306 436 0
2022-08-03 04:26:59 GMT 35.760818 27.322197 38,000 306 435 0
2022-08-03 04:26:55 GMT 35.755508 27.331295 38,000 306 435 0
2022-08-03 04:26:49 GMT 35.748814 27.342691 38,000 306 435 0
2022-08-03 04:26:44 GMT 35.743088 27.352451 38,000 306 436 0
2022-08-03 04:26:39 GMT 35.736740 27.363281 38,000 306 436 0
2022-08-03 04:26:34 GMT 35.730659 27.373665 38,000 306 435 0
2022-08-03 04:26:29 GMT 35.724655 27.383881 38,000 306 435 0
2022-08-03 04:26:23 GMT 35.718647 27.394117 38,000 306 435 0
2022-08-03 04:26:20 GMT 35.714493 27.401276 38,000 306 435 0
2022-08-03 04:26:18 GMT 35.712662 27.404366 38,000 306 435 0
2022-08-03 04:26:13 GMT 35.706528 27.414837 38,000 306 435 0
2022-08-03 04:26:08 GMT 35.700539 27.425032 38,000 306 435 0
2022-08-03 04:26:04 GMT 35.690437 27.442327 38,000 306 434 0
2022-08-03 04:26:00 GMT 35.690437 27.442327 38,000 306 434 0
2022-08-03 04:25:58 GMT 35.688583 27.445450 38,000 306 434 0
2022-08-03 04:25:53 GMT 35.683128 27.454777 38,000 306 434 0
2022-08-03 04:25:50 GMT 35.678612 27.462488 38,000 306 434 0
2022-08-03 04:25:47 GMT 35.676376 27.466288 38,000 306 434 0
2022-08-03 04:25:44 GMT 35.671417 27.474747 38,000 306 434 0
2022-08-03 04:25:40 GMT 35.667255 27.481833 38,000 306 434 0
2022-08-03 04:25:37 GMT 35.663589 27.488079 38,000 306 434 0
2022-08-03 04:25:33 GMT 35.659527 27.494982 38,000 306 434 0
2022-08-03 04:25:29 GMT 35.654755 27.503185 38,000 306 434 0
2022-08-03 04:25:27 GMT 35.652466 27.507076 38,000 306 434 0
2022-08-03 04:25:23 GMT 35.647568 27.515373 38,000 306 434 0
2022-08-03 04:25:19 GMT 35.642853 27.523384 38,000 306 434 0
2022-08-03 04:25:16 GMT 35.639420 27.529278 38,000 306 434 0
2022-08-03 04:25:12 GMT 35.630802 27.543894 38,000 306 434 0
2022-08-03 04:25:09 GMT 35.630802 27.543894 38,000 306 434 0
2022-08-03 04:25:07 GMT 35.628387 27.547989 38,000 306 434 0
2022-08-03 04:25:03 GMT 35.623215 27.556808 38,000 306 433 0
2022-08-03 04:24:59 GMT 35.618958 27.564068 38,000 306 433 0
2022-08-03 04:24:56 GMT 35.615768 27.569489 38,000 306 433 0
2022-08-03 04:24:50 GMT 35.608925 27.581177 38,000 306 434 64
2022-08-03 04:24:46 GMT 35.604401 27.588844 38,000 306 434 0
2022-08-03 04:24:40 GMT 35.596939 27.601490 38,000 306 433 0
2022-08-03 04:24:36 GMT 35.592178 27.609615 38,000 306 434 0
2022-08-03 04:24:31 GMT 35.587139 27.618168 38,000 306 434 0
2022-08-03 04:24:28 GMT 35.582714 27.625706 38,000 306 434 0
2022-08-03 04:24:25 GMT 35.580185 27.630043 38,000 306 434 0
2022-08-03 04:24:21 GMT 35.575455 27.638153 38,000 306 434 0
2022-08-03 04:24:18 GMT 35.571350 27.645206 38,000 306 434 0
2022-08-03 04:24:15 GMT 35.568237 27.650471 38,000 306 434 0
2022-08-03 04:24:11 GMT 35.563118 27.659191 38,000 306 434 0
2022-08-03 04:24:08 GMT 35.558945 27.666321 38,000 306 434 0
2022-08-03 04:24:05 GMT 35.556553 27.670469 38,000 306 434 0
2022-08-03 04:24:01 GMT 35.551338 27.679352 38,000 306 434 0
2022-08-03 04:23:55 GMT 35.544262 27.691332 38,000 306 434 0
2022-08-03 04:23:51 GMT 35.539467 27.699455 38,000 306 434 0
2022-08-03 04:23:47 GMT 35.535137 27.706760 38,000 306 434 0
2022-08-03 04:23:45 GMT 35.532440 27.711317 38,000 306 434 0
2022-08-03 04:23:40 GMT 35.526806 27.720961 38,000 306 434 0
2022-08-03 04:23:37 GMT 35.523220 27.726978 38,000 306 434 0
2022-08-03 04:23:34 GMT 35.520401 27.731781 38,000 306 434 0
2022-08-03 04:23:31 GMT 35.515213 27.740595 38,000 306 434 0
2022-08-03 04:23:27 GMT 35.511337 27.747116 38,000 306 434 0
2022-08-03 04:23:24 GMT 35.508545 27.751808 38,000 306 434 0
2022-08-03 04:23:20 GMT 35.503296 27.760698 38,000 306 434 0
2022-08-03 04:23:17 GMT 35.499294 27.767477 38,000 306 434 0
2022-08-03 04:23:14 GMT 35.496639 27.771976 38,000 306 434 0
2022-08-03 04:23:10 GMT 35.491287 27.780991 38,000 306 434 0
2022-08-03 04:23:07 GMT 35.487579 27.787285 38,000 306 434 0
2022-08-03 04:23:05 GMT 35.485188 27.791321 38,000 306 434 0
2022-08-03 04:23:00 GMT 35.479183 27.801489 38,000 306 433 0
2022-08-03 04:22:57 GMT 35.475723 27.807312 38,000 306 433 0
2022-08-03 04:22:54 GMT 35.472565 27.812634 38,000 306 433 0
2022-08-03 04:22:50 GMT 35.466934 27.822189 38,000 306 433 0
2022-08-03 04:22:46 GMT 35.463169 27.828545 38,000 306 433 0
2022-08-03 04:22:44 GMT 35.460434 27.833118 38,000 306 433 0
2022-08-03 04:22:39 GMT 35.454987 27.842388 38,000 306 433 0
2022-08-03 04:22:36 GMT 35.451645 27.847939 38,000 306 433 0
2022-08-03 04:22:33 GMT 35.447762 27.854549 38,000 306 433 0
2022-08-03 04:22:28 GMT 35.442535 27.863274 38,000 306 433 0
2022-08-03 04:22:25 GMT 35.439426 27.868574 38,000 306 433 0
2022-08-03 04:22:23 GMT 35.435890 27.874535 38,000 306 433 0
2022-08-03 04:22:18 GMT 35.430634 27.883415 38,000 306 433 0
2022-08-03 04:22:15 GMT 35.427464 27.888678 38,000 306 433 0
2022-08-03 04:22:12 GMT 35.423309 27.895718 38,000 306 433 0
2022-08-03 04:22:06 GMT 35.416122 27.907848 38,000 306 433 0
2022-08-03 04:22:02 GMT 35.411076 27.916260 38,000 306 433 0
2022-08-03 04:21:58 GMT 35.406693 27.923756 38,000 306 433 0
2022-08-03 04:21:55 GMT 35.403301 27.929350 38,000 306 433 0
2022-08-03 04:21:52 GMT 35.400276 27.934492 38,000 306 433 0
2022-08-03 04:21:49 GMT 35.395157 27.943153 38,000 306 432 0
2022-08-03 04:21:46 GMT 35.391998 27.948418 38,000 306 432 0
2022-08-03 04:21:41 GMT 35.387009 27.956829 38,000 306 432 0
2022-08-03 04:21:38 GMT 35.383099 27.963478 38,000 306 432 0
2022-08-03 04:21:35 GMT 35.378998 27.970333 38,000 306 432 0
2022-08-03 04:21:31 GMT 35.374832 27.977314 38,000 306 432 0
2022-08-03 04:21:26 GMT 35.368526 27.987963 38,000 306 432 0
2022-08-03 04:21:20 GMT 35.362385 27.998306 38,000 306 432 0
2022-08-03 04:21:15 GMT 35.356331 28.008474 38,000 306 433 0
2022-08-03 04:21:11 GMT 35.346558 28.024954 38,000 306 433 0
2022-08-03 04:21:08 GMT 35.346558 28.024954 38,000 306 432 0
2022-08-03 04:21:05 GMT 35.344803 28.027897 38,000 306 432 0
2022-08-03 04:20:59 GMT 35.337799 28.039627 38,000 306 432 0
2022-08-03 04:20:55 GMT 35.332672 28.048267 38,000 306 432 0
2022-08-03 04:20:51 GMT 35.327656 28.056686 38,000 307 433 0
2022-08-03 04:20:47 GMT 35.321777 28.066521 38,000 307 433 0
2022-08-03 04:20:44 GMT 35.319927 28.069601 38,000 307 433 0
2022-08-03 04:20:41 GMT 35.316063 28.076088 38,000 307 433 0
2022-08-03 04:20:36 GMT 35.310665 28.085203 38,000 307 433 0
2022-08-03 04:20:33 GMT 35.306473 28.092157 38,000 307 433 0
2022-08-03 04:20:29 GMT 35.301678 28.100281 38,000 307 433 0
2022-08-03 04:20:26 GMT 35.298111 28.106232 38,000 307 433 0
2022-08-03 04:20:23 GMT 35.294834 28.111794 38,000 307 433 0
2022-08-03 04:20:20 GMT 35.291622 28.117111 38,000 307 433 0
2022-08-03 04:20:16 GMT 35.286301 28.126087 38,000 307 433 0
2022-08-03 04:20:12 GMT 35.282776 28.131924 38,000 307 433 0
2022-08-03 04:20:10 GMT 35.279388 28.137646 38,000 307 433 0
2022-08-03 04:20:06 GMT 35.273609 28.147324 38,000 307 433 0
2022-08-03 04:20:03 GMT 35.271240 28.151264 38,000 307 433 0
2022-08-03 04:20:00 GMT 35.267578 28.157387 38,000 307 433 0
2022-08-03 04:19:55 GMT 35.261627 28.167400 38,000 307 433 0
2022-08-03 04:19:52 GMT 35.258331 28.172836 38,000 307 433 0
2022-08-03 04:19:49 GMT 35.254486 28.179302 38,000 307 433 0
2022-08-03 04:19:45 GMT 35.249542 28.187542 38,000 307 433 0
2022-08-03 04:19:42 GMT 35.246384 28.192749 38,000 307 433 0
2022-08-03 04:19:39 GMT 35.243210 28.198048 38,000 307 433 0
2022-08-03 04:19:35 GMT 35.237732 28.207283 38,000 307 433 0
2022-08-03 04:19:32 GMT 35.234272 28.213009 38,000 307 433 0
2022-08-03 04:19:29 GMT 35.231339 28.217916 38,000 307 433 0
2022-08-03 04:19:26 GMT 35.227753 28.223932 38,000 307 433 0
2022-08-03 04:19:23 GMT 35.223518 28.230972 38,000 307 433 0
2022-08-03 04:19:19 GMT 35.219147 28.238281 38,000 307 433 0
2022-08-03 04:19:14 GMT 35.213928 28.246937 38,000 307 433 64
2022-08-03 04:19:11 GMT 35.210205 28.253174 38,000 307 433 0
2022-08-03 04:19:09 GMT 35.207226 28.258095 38,000 307 433 0
2022-08-03 04:19:04 GMT 35.201405 28.267822 38,000 307 433 -64
2022-08-03 04:19:01 GMT 35.197998 28.273428 38,000 307 433 -64
2022-08-03 04:18:58 GMT 35.195068 28.278303 38,000 307 433 0
2022-08-03 04:18:55 GMT 35.190884 28.285332 38,000 307 433 64
2022-08-03 04:18:51 GMT 35.186604 28.292427 38,000 307 433 64
2022-08-03 04:18:48 GMT 35.183029 28.298428 38,000 307 433 0
2022-08-03 04:18:45 GMT 35.178829 28.305359 38,000 307 434 0
2022-08-03 04:18:41 GMT 35.174454 28.312683 38,000 307 434 -64
2022-08-03 04:18:38 GMT 35.170853 28.318663 38,000 307 434 0
2022-08-03 04:18:34 GMT 35.164818 28.328705 38,000 307 434 0
2022-08-03 04:18:30 GMT 35.161972 28.333460 38,000 307 434 0
2022-08-03 04:18:28 GMT 35.158577 28.339176 38,000 307 434 64
2022-08-03 04:18:23 GMT 35.152573 28.349133 38,000 307 434 0
2022-08-03 04:18:20 GMT 35.149315 28.354626 38,000 307 434 0
2022-08-03 04:18:17 GMT 35.145859 28.360420 38,000 307 434 0
2022-08-03 04:18:13 GMT 35.140610 28.369102 38,000 307 434 0
2022-08-03 04:18:10 GMT 35.137768 28.373852 38,000 307 434 0
2022-08-03 04:18:06 GMT 35.132603 28.382435 38,000 307 434 0
2022-08-03 04:18:03 GMT 35.125481 28.394337 38,000 307 434 0
2022-08-03 04:18:00 GMT 35.125481 28.394337 38,000 307 434 0
2022-08-03 04:17:57 GMT 35.122360 28.399487 38,000 307 435 0
2022-08-03 04:17:53 GMT 35.116123 28.409958 38,000 307 435 0
2022-08-03 04:17:50 GMT 35.114044 28.413391 38,000 307 435 0
2022-08-03 04:17:47 GMT 35.110199 28.419781 38,000 307 435 0
2022-08-03 04:17:40 GMT 35.102345 28.432846 38,000 307 435 0
2022-08-03 04:17:36 GMT 35.097778 28.440456 38,000 307 435 0
2022-08-03 04:17:30 GMT 35.085754 28.460363 38,000 307 436 0
2022-08-03 04:17:26 GMT 35.085754 28.460363 38,000 307 436 0
2022-08-03 04:17:22 GMT 35.080399 28.469276 38,000 307 436 0
2022-08-03 04:17:19 GMT 35.077438 28.474216 38,000 307 436 0
2022-08-03 04:17:16 GMT 35.073166 28.481272 38,000 307 436 0
2022-08-03 04:17:12 GMT 35.067169 28.491192 38,000 307 436 0
2022-08-03 04:17:09 GMT 35.065426 28.494129 38,000 307 436 0
2022-08-03 04:17:06 GMT 35.061401 28.500776 38,000 307 436 0
2022-08-03 04:17:00 GMT 35.054115 28.512897 38,000 307 436 0
2022-08-03 04:16:56 GMT 35.048950 28.521461 38,000 307 437 0
2022-08-03 04:16:50 GMT 35.041546 28.533669 38,000 307 437 0
2022-08-03 04:16:45 GMT 35.036682 28.541752 38,000 307 437 0
2022-08-03 04:16:39 GMT 35.028976 28.554497 38,000 307 437 0
2022-08-03 04:16:35 GMT 35.024231 28.562435 38,000 307 437 0
2022-08-03 04:16:29 GMT 35.016724 28.574879 38,000 307 437 0
2022-08-03 04:16:25 GMT 35.012512 28.581886 38,000 307 437 0
2022-08-03 04:16:19 GMT 35.004581 28.594952 38,000 307 437 0
2022-08-03 04:16:15 GMT 35.000153 28.602345 38,000 307 437 0
2022-08-03 04:16:10 GMT 34.994015 28.612461 38,000 307 437 0
2022-08-03 04:16:07 GMT 34.991779 28.616180 38,000 307 437 0
2022-08-03 04:16:05 GMT 34.988068 28.622356 38,000 307 437 0
2022-08-03 04:16:01 GMT 34.983635 28.629684 38,000 307 438 0
2022-08-03 04:15:58 GMT 34.979782 28.636032 38,000 307 438 0
2022-08-03 04:15:54 GMT 34.975674 28.642788 38,000 307 438 0
2022-08-03 04:15:51 GMT 34.971531 28.649712 38,000 307 438 0
2022-08-03 04:15:48 GMT 34.967834 28.655764 38,000 307 438 0
2022-08-03 04:15:44 GMT 34.963531 28.662937 38,000 307 439 0
2022-08-03 04:15:38 GMT 34.955658 28.675941 38,000 307 439 0
2022-08-03 04:15:34 GMT 34.951279 28.683128 38,000 307 439 0
2022-08-03 04:15:28 GMT 34.943436 28.696121 38,000 307 439 0
2022-08-03 04:15:24 GMT 34.938572 28.704185 38,000 307 439 0
2022-08-03 04:15:18 GMT 34.931488 28.715851 38,000 307 439 0
2022-08-03 04:15:14 GMT 34.926590 28.723923 38,000 307 439 0
2022-08-03 04:15:08 GMT 34.919159 28.736172 38,000 307 439 0
2022-08-03 04:15:03 GMT 34.913200 28.745956 38,000 307 439 0
2022-08-03 04:14:58 GMT 34.906776 28.756599 38,000 307 439 0
2022-08-03 04:14:53 GMT 34.901749 28.764839 38,000 307 439 0
2022-08-03 04:14:47 GMT 34.894363 28.777004 38,000 307 439 0
2022-08-03 04:14:43 GMT 34.889191 28.785524 38,000 307 439 0
2022-08-03 04:14:37 GMT 34.881775 28.797688 38,000 307 440 0
2022-08-03 04:14:33 GMT 34.877151 28.805256 38,000 307 440 -64
2022-08-03 04:14:27 GMT 34.869644 28.817532 38,000 307 439 0
2022-08-03 04:14:22 GMT 34.864700 28.825659 38,000 307 439 0
2022-08-03 04:14:18 GMT 34.857605 28.837261 38,000 307 439 0
2022-08-03 04:14:15 GMT 34.855335 28.841000 38,000 307 439 64
2022-08-03 04:14:12 GMT 34.851883 28.846565 38,000 307 440 64
2022-08-03 04:14:06 GMT 34.844742 28.858225 38,000 307 440 0
2022-08-03 04:14:02 GMT 34.839706 28.866409 38,000 307 440 0
2022-08-03 04:13:56 GMT 34.832664 28.877907 38,000 307 440 0
2022-08-03 04:13:52 GMT 34.827126 28.886890 38,000 307 440 0
2022-08-03 04:13:46 GMT 34.819817 28.898678 38,000 307 440 0
2022-08-03 04:13:42 GMT 34.814896 28.906654 38,000 307 440 0
2022-08-03 04:13:34 GMT 34.806782 28.919678 38,000 308 439 0
2022-08-03 04:13:31 GMT 34.801758 28.927731 38,000 308 440 0
2022-08-03 04:13:27 GMT 34.796539 28.936043 38,000 308 440 0
2022-08-03 04:13:24 GMT 34.794495 28.939362 38,000 308 440 0
2022-08-03 04:13:21 GMT 34.789352 28.947573 38,000 308 439 0
2022-08-03 04:13:15 GMT 34.782486 28.958561 38,000 308 439 0
2022-08-03 04:13:13 GMT 34.779457 28.963451 38,000 308 439 0
2022-08-03 04:13:10 GMT 34.776478 28.968201 38,000 307 439 0
2022-08-03 04:13:05 GMT 34.770241 28.978329 38,000 307 439 0
2022-08-03 04:13:01 GMT 34.764999 28.986866 38,000 307 439 0
2022-08-03 04:12:55 GMT 34.757671 28.998985 38,000 307 438 0
2022-08-03 04:12:50 GMT 34.752502 29.007607 38,000 306 438 0
2022-08-03 04:12:44 GMT 34.744495 29.021416 38,000 305 437 0
2022-08-03 04:12:40 GMT 34.740189 29.029018 38,000 305 437 0
2022-08-03 04:12:34 GMT 34.733826 29.040115 38,000 305 437 0
2022-08-03 04:12:30 GMT 34.728928 29.048693 38,000 305 437 0
2022-08-03 04:12:26 GMT 34.724197 29.057007 38,000 305 437 0
2022-08-03 04:12:23 GMT 34.721729 29.061241 38,000 305 437 0
2022-08-03 04:12:20 GMT 34.717030 29.069481 38,000 305 437 0
2022-08-03 04:12:13 GMT 34.709908 29.081955 38,000 305 437 0
2022-08-03 04:12:09 GMT 34.705158 29.090252 38,000 305 438 0
2022-08-03 04:12:04 GMT 34.698349 29.102112 38,000 305 438 0
2022-08-03 04:11:59 GMT 34.693241 29.110966 38,000 305 438 0
2022-08-03 04:11:54 GMT 34.686905 29.122065 38,000 305 437 0
2022-08-03 04:11:49 GMT 34.681744 29.131107 38,000 305 437 0
2022-08-03 04:11:43 GMT 34.674225 29.144262 38,000 305 437 0
2022-08-03 04:11:39 GMT 34.669647 29.152166 38,000 305 436 0
2022-08-03 04:11:32 GMT 34.662872 29.164049 38,000 305 436 0
2022-08-03 04:11:29 GMT 34.658142 29.172249 38,000 305 436 0
2022-08-03 04:11:23 GMT 34.651566 29.183723 38,000 305 436 0
2022-08-03 04:11:18 GMT 34.646175 29.193192 38,000 305 436 0
2022-08-03 04:11:13 GMT 34.639568 29.204636 38,000 305 436 0
2022-08-03 04:11:07 GMT 34.633118 29.215899 38,000 305 436 0
2022-08-03 04:11:03 GMT 34.628395 29.224205 38,000 305 436 0
2022-08-03 04:10:57 GMT 34.621922 29.235477 38,000 305 436 0
2022-08-03 04:10:53 GMT 34.616383 29.245090 38,000 305 436 0
2022-08-03 04:10:48 GMT 34.610703 29.254990 38,000 305 436 0
2022-08-03 04:10:43 GMT 34.604885 29.265118 38,000 305 436 0
2022-08-03 04:10:37 GMT 34.598602 29.275990 38,000 305 436 0
2022-08-03 04:10:31 GMT 34.592224 29.287033 38,000 305 436 0
2022-08-03 04:10:27 GMT 34.586884 29.296389 38,000 305 436 0
2022-08-03 04:10:22 GMT 34.580795 29.306984 38,000 305 436 0
2022-08-03 04:10:16 GMT 34.573929 29.318867 38,000 305 436 0
2022-08-03 04:10:11 GMT 34.569305 29.326881 38,000 305 436 0
2022-08-03 04:10:06 GMT 34.563126 29.337700 38,000 305 436 0
2022-08-03 04:10:02 GMT 34.556168 29.349751 38,000 305 436 0
2022-08-03 04:09:56 GMT 34.550930 29.358845 38,000 305 436 0
2022-08-03 04:09:51 GMT 34.545856 29.367714 38,000 305 436 -64
2022-08-03 04:09:46 GMT 34.539989 29.377899 38,000 305 436 0
2022-08-03 04:09:42 GMT 34.534172 29.387970 38,000 305 436 0
2022-08-03 04:09:35 GMT 34.526958 29.400387 38,000 305 436 0
2022-08-03 04:09:30 GMT 34.521606 29.409727 38,000 305 435 0
2022-08-03 04:09:25 GMT 34.515427 29.420490 38,000 305 435 0
2022-08-03 04:09:21 GMT 34.510944 29.428196 38,000 305 435 0
2022-08-03 04:09:14 GMT 34.502842 29.442215 38,000 305 435 0
2022-08-03 04:09:11 GMT 34.496017 29.454065 38,000 305 435 0
2022-08-03 04:09:04 GMT 34.490936 29.462811 38,000 305 435 0
2022-08-03 04:09:01 GMT 34.485992 29.471397 38,000 305 435 0
2022-08-03 04:08:55 GMT 34.481380 29.479294 38,000 305 435 64
2022-08-03 04:08:51 GMT 34.476151 29.488371 38,000 306 435 0
2022-08-03 04:08:49 GMT 34.474365 29.491453 38,000 306 435 0
2022-08-03 04:08:45 GMT 34.469185 29.500408 38,000 306 435 0
2022-08-03 04:08:41 GMT 34.464478 29.508549 38,000 306 435 -64
2022-08-03 04:08:39 GMT 34.462761 29.511566 38,000 306 435 -64
2022-08-03 04:08:30 GMT 34.452347 29.529568 38,000 306 435 64
2022-08-03 04:08:27 GMT 34.449142 29.535063 38,000 306 435 -64
2022-08-03 04:08:20 GMT 34.440674 29.549635 38,000 306 435 0
2022-08-03 04:08:16 GMT 34.435993 29.557743 38,000 306 436 0
2022-08-03 04:08:11 GMT 34.429291 29.569244 38,000 306 436 0
2022-08-03 04:08:06 GMT 34.424744 29.577045 38,000 306 436 0
2022-08-03 04:08:00 GMT 34.417561 29.589329 38,000 306 436 0
2022-08-03 04:07:58 GMT 34.415405 29.593019 38,000 306 436 0
2022-08-03 04:07:50 GMT 34.406067 29.609051 38,000 306 436 0
2022-08-03 04:07:47 GMT 34.402542 29.615105 38,000 306 436 0
2022-08-03 04:07:40 GMT 34.394394 29.629063 38,000 306 436 0
2022-08-03 04:07:37 GMT 34.390793 29.635220 38,000 306 435 0
2022-08-03 04:07:30 GMT 34.382366 29.649754 38,000 306 435 0
2022-08-03 04:07:26 GMT 34.377914 29.657425 38,000 306 435 0
2022-08-03 04:07:20 GMT 34.370682 29.669838 38,000 306 436 0
2022-08-03 04:07:17 GMT 34.366882 29.676371 38,000 306 436 0
2022-08-03 04:07:09 GMT 34.357864 29.691841 38,000 306 436 0
2022-08-03 04:07:05 GMT 34.353607 29.699127 38,000 306 436 0
2022-08-03 04:06:59 GMT 34.345963 29.712238 38,000 306 436 0
2022-08-03 04:06:56 GMT 34.342564 29.718132 38,000 306 436 0
2022-08-03 04:06:50 GMT 34.335663 29.729958 38,000 306 436 0
2022-08-03 04:06:46 GMT 34.331131 29.737692 38,000 306 437 0
2022-08-03 04:06:42 GMT 34.326176 29.746227 38,000 306 437 0
2022-08-03 04:06:37 GMT 34.321564 29.754171 38,000 306 437 0
2022-08-03 04:06:35 GMT 34.318729 29.759045 38,000 306 437 0
2022-08-03 04:06:29 GMT 34.311447 29.771605 38,000 306 437 0
2022-08-03 04:06:24 GMT 34.306114 29.780674 38,000 306 437 0
2022-08-03 04:06:21 GMT 34.302063 29.787636 38,000 306 437 0
2022-08-03 04:06:19 GMT 34.299549 29.791946 38,000 306 437 64
2022-08-03 04:06:15 GMT 34.294941 29.799843 38,000 306 437 0
2022-08-03 04:06:09 GMT 34.287632 29.812317 38,000 306 437 0
2022-08-03 04:06:04 GMT 34.282791 29.820614 38,000 306 438 0
2022-08-03 04:05:59 GMT 34.275852 29.832516 38,000 306 439 0
2022-08-03 04:05:54 GMT 34.271244 29.840355 38,000 306 439 0
2022-08-03 04:05:49 GMT 34.264297 29.852320 38,000 306 439 0
2022-08-03 04:05:43 GMT 34.258438 29.862297 38,000 306 439 0
2022-08-03 04:05:38 GMT 34.251553 29.874058 38,000 306 440 0
2022-08-03 04:05:34 GMT 34.246853 29.882126 38,000 306 440 0
2022-08-03 04:05:28 GMT 34.240860 29.892399 38,000 306 440 0
2022-08-03 04:05:24 GMT 34.235092 29.902264 38,000 306 440 0
2022-08-03 04:05:13 GMT 34.222366 29.924011 38,000 306 440 0
2022-08-03 04:05:08 GMT 34.217197 29.932880 38,000 306 440 64
2022-08-03 04:05:03 GMT 34.211014 29.943350 38,000 306 441 0
2022-08-03 04:04:56 GMT 34.202862 29.957371 38,000 306 441 0
2022-08-03 04:04:53 GMT 34.198765 29.964294 38,000 306 441 0
2022-08-03 04:04:48 GMT 34.192989 29.974136 38,000 306 441 0
2022-08-03 04:04:42 GMT 34.186432 29.985277 38,000 306 441 0
2022-08-03 04:04:38 GMT 34.180710 29.995087 38,000 306 442 0
2022-08-03 04:04:32 GMT 34.174744 30.005207 38,000 306 442 0
2022-08-03 04:04:27 GMT 34.168350 30.016106 38,000 306 442 0
2022-08-03 04:04:21 GMT 34.161800 30.027122 38,000 306 443 0
2022-08-03 04:04:17 GMT 34.156448 30.036278 38,000 306 443 0
2022-08-03 04:04:12 GMT 34.150223 30.046824 38,000 306 443 -64
2022-08-03 04:04:06 GMT 34.144089 30.057192 38,000 306 443 0
2022-08-03 04:04:01 GMT 34.138092 30.067339 38,000 306 443 0
2022-08-03 04:03:56 GMT 34.132050 30.077597 38,000 306 443 0
2022-08-03 04:03:51 GMT 34.125229 30.089087 38,000 306 444 0
2022-08-03 04:03:40 GMT 34.113327 30.109602 38,000 304 442 0
2022-08-03 04:03:37 GMT 34.108593 30.118504 38,000 302 441 0
2022-08-03 04:03:30 GMT 34.102119 30.131721 38,000 300 440 0
2022-08-03 04:03:24 GMT 34.094067 30.149059 38,000 300 440 0
2022-08-03 04:03:22 GMT 34.094067 30.149059 38,000 300 440 0
2022-08-03 04:03:19 GMT 34.091629 30.154276 38,000 300 440 0
2022-08-03 04:03:14 GMT 34.086502 30.165262 38,000 300 440 0
2022-08-03 04:03:09 GMT 34.081512 30.175968 38,000 300 440 0
2022-08-03 04:03:05 GMT 34.077309 30.184994 38,000 300 440 0
2022-08-03 04:03:00 GMT 34.071911 30.196609 38,000 300 440 0
2022-08-03 04:02:55 GMT 34.067551 30.206013 38,000 300 440 0
2022-08-03 04:02:49 GMT 34.061714 30.218468 38,000 300 440 0
2022-08-03 04:02:44 GMT 34.056545 30.229626 38,000 300 440 0
2022-08-03 04:02:38 GMT 34.050308 30.243015 38,000 300 440 0
2022-08-03 04:02:31 GMT 34.043793 30.257034 38,000 300 441 0
2022-08-03 04:02:29 GMT 34.041229 30.262569 38,000 300 441 0
2022-08-03 04:02:18 GMT 34.030617 30.285301 38,000 300 441 0
2022-08-03 04:02:08 GMT 34.020657 30.306530 38,000 300 441 0
2022-08-03 04:02:03 GMT 34.014790 30.319004 38,000 300 441 0
2022-08-03 04:01:58 GMT 34.010273 30.328617 38,000 300 441 0
2022-08-03 04:01:55 GMT 34.006924 30.335655 38,000 300 441 0
2022-08-03 04:01:52 GMT 34.003922 30.342052 38,000 300 440 0
2022-08-03 04:01:47 GMT 33.999660 30.350933 38,000 300 441 0
2022-08-03 04:01:42 GMT 33.993889 30.363121 38,000 300 440 0
2022-08-03 04:01:35 GMT 33.986801 30.377871 38,000 301 441 0
2022-08-03 04:01:25 GMT 33.976105 30.399971 38,000 301 440 0
2022-08-03 04:01:22 GMT 33.973343 30.405617 38,000 301 440 0
2022-08-03 04:01:15 GMT 33.965958 30.420799 38,000 301 440 0
2022-08-03 04:01:12 GMT 33.963814 30.425091 38,000 301 440 0
2022-08-03 04:01:07 GMT 33.958366 30.436306 38,000 301 440 0
2022-08-03 04:01:05 GMT 33.955627 30.441826 38,000 301 440 0
2022-08-03 04:00:58 GMT 33.948730 30.455990 38,000 301 439 0
2022-08-03 04:00:54 GMT 33.945007 30.463688 38,000 300 439 0
2022-08-03 04:00:46 GMT 33.937042 30.480333 38,000 300 438 0
2022-08-03 04:00:41 GMT 33.932098 30.490816 38,000 300 438 0
2022-08-03 04:00:38 GMT 33.928204 30.499077 38,000 300 438 0
2022-08-03 04:00:36 GMT 33.926620 30.502338 38,000 300 438 0
2022-08-03 04:00:29 GMT 33.919079 30.518246 38,000 300 438 0
2022-08-03 04:00:26 GMT 33.916424 30.523911 38,000 300 438 0
2022-08-03 04:00:24 GMT 33.913910 30.529118 38,000 300 438 0
2022-08-03 04:00:16 GMT 33.906326 30.545132 38,000 300 437 0
2022-08-03 04:00:05 GMT 33.895660 30.567608 38,000 300 437 0
2022-08-03 03:59:56 GMT 33.886120 30.587711 38,000 300 437 0
2022-08-03 03:59:47 GMT 33.877350 30.606173 38,000 300 437 0
2022-08-03 03:59:45 GMT 33.875290 30.610434 38,000 300 437 0
2022-08-03 03:59:37 GMT 33.867233 30.627417 38,000 300 436 0
2022-08-03 03:59:34 GMT 33.864670 30.632742 38,000 300 436 0
2022-08-03 03:59:28 GMT 33.858234 30.646248 38,000 300 436 0
2022-08-03 03:59:24 GMT 33.854095 30.654938 38,000 300 436 0
2022-08-03 03:59:19 GMT 33.849380 30.664860 38,000 300 436 0
2022-08-03 03:59:16 GMT 33.846909 30.670073 38,000 300 436 0
2022-08-03 03:59:14 GMT 33.844128 30.675831 38,000 300 436 0
2022-08-03 03:59:11 GMT 33.841755 30.680809 38,000 300 436 0
2022-08-03 03:59:06 GMT 33.836727 30.691395 38,000 300 435 0
2022-08-03 03:59:02 GMT 33.832493 30.700321 38,000 300 435 0
2022-08-03 03:58:53 GMT 33.823929 30.718222 38,000 300 435 0
2022-08-03 03:58:43 GMT 33.813728 30.739632 38,000 300 435 0
2022-08-03 03:58:35 GMT 33.805676 30.756512 38,000 300 434 0
2022-08-03 03:58:32 GMT 33.802929 30.762348 38,000 300 434 0
2022-08-03 03:58:27 GMT 33.797810 30.773106 38,000 300 434 0
2022-08-03 03:58:23 GMT 33.792938 30.783356 38,000 300 434 0
2022-08-03 03:58:20 GMT 33.790779 30.787926 38,000 300 434 0
2022-08-03 03:58:13 GMT 33.783646 30.802860 38,000 300 434 0
2022-08-03 03:58:10 GMT 33.780769 30.808983 38,000 300 434 0
2022-08-03 03:58:07 GMT 33.776955 30.816936 38,000 300 434 0
2022-08-03 03:58:04 GMT 33.774490 30.822144 38,000 300 434 0
2022-08-03 03:58:00 GMT 33.770325 30.830832 38,000 300 434 0
2022-08-03 03:57:57 GMT 33.767735 30.836220 38,000 300 434 0
2022-08-03 03:57:54 GMT 33.764465 30.843052 38,000 300 434 0
2022-08-03 03:57:50 GMT 33.760845 30.850639 38,000 300 434 0
2022-08-03 03:57:45 GMT 33.756500 30.859755 38,000 300 434 0
2022-08-03 03:57:42 GMT 33.752335 30.868387 38,000 300 434 0
2022-08-03 03:57:40 GMT 33.750320 30.872646 38,000 300 434 0
2022-08-03 03:57:36 GMT 33.747482 30.878590 38,000 300 434 0
2022-08-03 03:57:33 GMT 33.743855 30.886059 38,000 300 434 0
2022-08-03 03:57:31 GMT 33.741432 30.891094 38,000 300 434 0
2022-08-03 03:57:28 GMT 33.739014 30.896189 38,000 300 434 0
2022-08-03 03:57:23 GMT 33.733887 30.906895 38,000 300 434 0
2022-08-03 03:57:21 GMT 33.731094 30.912613 38,000 300 434 0
2022-08-03 03:57:18 GMT 33.729034 30.916985 38,000 300 434 0
2022-08-03 03:57:13 GMT 33.723789 30.928001 38,000 300 434 0
2022-08-03 03:57:10 GMT 33.720657 30.934528 38,000 300 434 0
2022-08-03 03:57:08 GMT 33.718483 30.938988 38,000 300 434 0
2022-08-03 03:57:04 GMT 33.713921 30.948601 38,000 300 434 0
2022-08-03 03:56:58 GMT 33.708893 30.959080 38,000 300 434 0
2022-08-03 03:56:53 GMT 33.703495 30.970287 38,000 300 434 0
2022-08-03 03:56:49 GMT 33.700012 30.977522 38,000 300 433 0
2022-08-03 03:56:47 GMT 33.698002 30.981674 38,000 300 434 0
2022-08-03 03:56:43 GMT 33.693626 30.990772 38,000 300 434 0
2022-08-03 03:56:38 GMT 33.689342 30.999756 38,000 300 434 0
2022-08-03 03:56:30 GMT 33.669342 31.041197 38,000 300 434 0
2022-08-03 03:56:19 GMT 33.669342 31.041197 38,000 300 434 0
2022-08-03 03:56:14 GMT 33.664169 31.051847 38,000 300 434 0
2022-08-03 03:56:09 GMT 33.659691 31.061096 38,000 301 434 0
2022-08-03 03:55:59 GMT 33.649403 31.082382 38,000 301 434 0
2022-08-03 03:55:49 GMT 33.638992 31.103920 38,000 301 434 0
2022-08-03 03:55:40 GMT 33.630524 31.121408 38,000 301 434 0
2022-08-03 03:55:38 GMT 33.628326 31.125950 38,000 301 434 0
2022-08-03 03:55:28 GMT 33.618164 31.146870 38,000 301 434 0
2022-08-03 03:55:18 GMT 33.608109 31.167641 38,000 300 434 0
2022-08-03 03:55:11 GMT 33.600521 31.183434 38,000 300 434 0
2022-08-03 03:55:07 GMT 33.597244 31.190186 38,000 300 434 0
2022-08-03 03:55:02 GMT 33.591396 31.202374 38,000 301 435 0
2022-08-03 03:54:57 GMT 33.587173 31.211037 38,000 301 435 0
2022-08-03 03:54:51 GMT 33.580673 31.224489 38,000 301 435 0
2022-08-03 03:54:47 GMT 33.577011 31.232000 38,000 301 435 0
2022-08-03 03:54:40 GMT 33.569321 31.247808 38,000 301 435 0
2022-08-03 03:54:37 GMT 33.566353 31.253986 38,000 301 435 0
2022-08-03 03:54:31 GMT 33.560532 31.265945 38,000 301 435 0
2022-08-03 03:54:26 GMT 33.555450 31.276506 38,000 301 435 0
2022-08-03 03:54:21 GMT 33.550152 31.287403 38,000 301 435 0
2022-08-03 03:54:15 GMT 33.544518 31.299133 38,000 301 435 0
2022-08-03 03:54:11 GMT 33.540253 31.307896 38,000 301 435 0
2022-08-03 03:54:06 GMT 33.535263 31.318176 38,000 301 435 0
2022-08-03 03:54:01 GMT 33.529999 31.329107 38,000 301 435 0
2022-08-03 03:53:56 GMT 33.525291 31.338781 38,000 301 435 0
2022-08-03 03:53:53 GMT 33.522175 31.345226 38,000 301 435 0
2022-08-03 03:53:50 GMT 33.519474 31.350834 38,000 301 435 0
2022-08-03 03:53:45 GMT 33.513935 31.362267 38,000 301 435 -64
2022-08-03 03:53:43 GMT 33.512054 31.366133 38,000 301 435 0
2022-08-03 03:53:41 GMT 33.509720 31.371021 38,000 301 435 0
2022-08-03 03:53:33 GMT 33.501968 31.386930 38,000 301 435 0
2022-08-03 03:53:31 GMT 33.499741 31.391510 38,000 301 435 0
2022-08-03 03:53:26 GMT 33.494709 31.401897 38,000 301 435 0
2022-08-03 03:53:23 GMT 33.491776 31.407934 38,000 301 435 0
2022-08-03 03:53:20 GMT 33.488708 31.414251 38,000 301 435 0
2022-08-03 03:53:13 GMT 33.481522 31.428972 38,000 301 436 0
2022-08-03 03:53:11 GMT 33.478958 31.434246 38,000 301 436 0
2022-08-03 03:53:02 GMT 33.470875 31.450888 38,000 301 436 0
2022-08-03 03:53:00 GMT 33.468918 31.454922 38,000 301 436 0
2022-08-03 03:52:58 GMT 33.466324 31.460283 38,000 301 436 0
2022-08-03 03:52:53 GMT 33.461243 31.470720 38,000 301 436 0
2022-08-03 03:52:48 GMT 33.456711 31.480005 38,000 301 436 0
2022-08-03 03:52:43 GMT 33.451035 31.491705 38,000 301 436 0
2022-08-03 03:52:41 GMT 33.449112 31.495605 38,000 301 436 0
2022-08-03 03:52:38 GMT 33.445862 31.502308 38,000 301 437 0
2022-08-03 03:52:32 GMT 33.440010 31.514395 38,000 301 437 0
2022-08-03 03:52:30 GMT 33.437962 31.518541 38,000 301 437 0
2022-08-03 03:52:27 GMT 33.435562 31.523457 38,000 301 437 0
2022-08-03 03:52:23 GMT 33.430511 31.533846 38,000 301 437 0
2022-08-03 03:52:20 GMT 33.428509 31.537935 38,000 301 437 0
2022-08-03 03:52:13 GMT 33.420269 31.554808 38,000 301 437 0
2022-08-03 03:52:10 GMT 33.418167 31.559160 38,000 301 437 0
2022-08-03 03:52:03 GMT 33.410683 31.574539 38,000 301 437 0
2022-08-03 03:52:00 GMT 33.407776 31.580475 38,000 301 437 0
2022-08-03 03:51:53 GMT 33.400486 31.595448 38,000 301 438 0
2022-08-03 03:51:49 GMT 33.396389 31.603798 38,000 301 438 0
2022-08-03 03:51:42 GMT 33.389236 31.618488 38,000 301 438 0
2022-08-03 03:51:38 GMT 33.384979 31.627277 38,000 301 438 0
2022-08-03 03:51:32 GMT 33.379166 31.639196 38,000 301 437 0
2022-08-03 03:51:29 GMT 33.376236 31.645294 38,000 301 437 0
2022-08-03 03:51:21 GMT 33.367722 31.662762 38,000 301 438 0
2022-08-03 03:51:15 GMT 33.361496 31.675562 38,000 301 438 0
2022-08-03 03:51:11 GMT 33.357468 31.683802 38,000 301 437 0
2022-08-03 03:51:04 GMT 33.350464 31.698084 38,000 301 437 0
2022-08-03 03:51:01 GMT 33.348347 31.702452 38,000 301 437 0
2022-08-03 03:50:59 GMT 33.345367 31.708561 38,000 301 437 0
2022-08-03 03:50:54 GMT 33.340439 31.718628 38,000 301 437 0
2022-08-03 03:50:51 GMT 33.337555 31.724451 38,000 301 437 0
2022-08-03 03:50:48 GMT 33.334946 31.729834 38,000 301 437 0
2022-08-03 03:50:42 GMT 33.328308 31.743347 38,000 301 437 0
2022-08-03 03:50:39 GMT 33.324932 31.750263 38,000 301 438 0
2022-08-03 03:50:29 GMT 33.315353 31.769770 38,000 301 438 0
2022-08-03 03:50:26 GMT 33.311756 31.777113 38,000 301 438 0
2022-08-03 03:50:19 GMT 33.304321 31.792236 38,000 301 438 0
2022-08-03 03:50:09 GMT 33.293743 31.813828 38,000 301 438 0
2022-08-03 03:50:01 GMT 33.285690 31.830250 38,000 301 439 0
2022-08-03 03:49:56 GMT 33.280941 31.839891 38,000 301 439 0
2022-08-03 03:49:47 GMT 33.271774 31.858484 38,000 301 439 0
2022-08-03 03:49:40 GMT 33.264507 31.873301 38,000 301 439 0
2022-08-03 03:49:38 GMT 33.262802 31.876776 38,000 301 439 0
2022-08-03 03:49:30 GMT 33.254333 31.893970 38,000 301 440 0
2022-08-03 03:49:28 GMT 33.252502 31.897650 38,000 301 440 0
2022-08-03 03:49:20 GMT 33.243885 31.915115 38,000 301 440 0
2022-08-03 03:49:18 GMT 33.242340 31.918304 38,000 301 440 0
2022-08-03 03:49:12 GMT 33.234970 31.933302 38,000 301 440 0
2022-08-03 03:49:08 GMT 33.231781 31.939722 38,000 301 440 0
2022-08-03 03:49:01 GMT 33.224487 31.954559 38,000 301 440 0
2022-08-03 03:48:59 GMT 33.222427 31.958679 38,000 301 440 0
2022-08-03 03:48:57 GMT 33.220367 31.962854 38,000 301 440 0
2022-08-03 03:48:50 GMT 33.212879 31.978119 38,000 301 441 0
2022-08-03 03:48:48 GMT 33.210693 31.982491 38,000 301 441 0
2022-08-03 03:48:40 GMT 33.202454 31.999250 38,000 301 441 0
2022-08-03 03:48:37 GMT 33.199860 32.004494 38,000 301 441 0
2022-08-03 03:48:30 GMT 33.192768 32.018867 38,000 301 441 0
2022-08-03 03:48:27 GMT 33.189323 32.025764 38,000 301 441 0
2022-08-03 03:48:20 GMT 33.178478 32.047737 38,000 301 441 0
2022-08-03 03:48:17 GMT 33.178478 32.047737 38,000 301 441 0
2022-08-03 03:48:10 GMT 33.171295 32.062279 38,000 301 441 -64
2022-08-03 03:48:07 GMT 33.168236 32.068531 38,000 301 441 -64
2022-08-03 03:48:00 GMT 33.160603 32.083889 38,000 301 441 -64
2022-08-03 03:47:56 GMT 33.157288 32.090569 38,025 301 441 -64
2022-08-03 03:47:50 GMT 33.149986 32.105301 37,975 301 441 384
2022-08-03 03:47:46 GMT 33.146824 32.111691 37,950 301 441 896
2022-08-03 03:47:39 GMT 33.139893 32.125614 37,825 301 442 1152
2022-08-03 03:47:36 GMT 33.136276 32.132866 37,775 301 442 1088
2022-08-03 03:47:29 GMT 33.129459 32.146557 37,650 301 443 1024
2022-08-03 03:47:26 GMT 33.125454 32.154572 37,600 301 443 960
2022-08-03 03:47:19 GMT 33.118752 32.168079 37,500 301 444 960
2022-08-03 03:47:17 GMT 33.116592 32.172417 37,450 301 445 960
2022-08-03 03:47:15 GMT 33.114395 32.176868 37,425 301 445 896
2022-08-03 03:47:08 GMT 33.106155 32.193348 37,300 301 446 960
2022-08-03 03:47:05 GMT 33.103901 32.197845 37,275 301 446 896
2022-08-03 03:47:00 GMT 33.097824 32.210102 37,200 301 446 832
2022-08-03 03:46:58 GMT 33.095848 32.214043 37,150 301 446 832
2022-08-03 03:46:55 GMT 33.092915 32.219929 37,125 301 446 896
2022-08-03 03:46:50 GMT 33.087616 32.230537 37,050 301 446 960
2022-08-03 03:46:47 GMT 33.084915 32.236031 37,000 301 446 960
2022-08-03 03:46:44 GMT 33.081482 32.242897 36,950 301 446 960
2022-08-03 03:46:39 GMT 33.076157 32.253674 36,875 301 447 960
2022-08-03 03:46:37 GMT 33.074108 32.257710 36,850 301 447 960
2022-08-03 03:46:34 GMT 33.071594 32.262810 36,800 301 447 896
2022-08-03 03:46:29 GMT 33.065826 32.274372 36,725 301 448 896
2022-08-03 03:46:24 GMT 33.060471 32.285084 36,650 301 448 832
2022-08-03 03:46:19 GMT 33.052879 32.300423 36,550 301 448 896
2022-08-03 03:46:13 GMT 33.049484 32.307220 36,500 301 448 896
2022-08-03 03:46:09 GMT 33.044361 32.317516 36,425 301 448 896
2022-08-03 03:46:03 GMT 33.039047 32.328148 36,350 301 449 896
2022-08-03 03:45:58 GMT 33.032959 32.340401 36,275 301 449 832
2022-08-03 03:45:53 GMT 33.028069 32.350250 36,200 301 449 832
2022-08-03 03:45:48 GMT 33.021973 32.362480 36,125 301 449 768
2022-08-03 03:45:43 GMT 33.017036 32.372395 36,050 301 448 832
2022-08-03 03:45:39 GMT 33.012314 32.381874 36,000 301 448 832
2022-08-03 03:45:37 GMT 33.011353 32.383850 36,000 301 448 768
2022-08-03 03:45:33 GMT 33.006470 32.393639 35,925 301 448 768
2022-08-03 03:45:27 GMT 33.000557 32.405407 35,875 301 448 704
2022-08-03 03:45:22 GMT 32.995560 32.415436 35,825 301 447 640
2022-08-03 03:45:17 GMT 32.989746 32.427082 35,775 301 447 704
2022-08-03 03:45:12 GMT 32.984493 32.437637 35,700 301 446 768
2022-08-03 03:45:07 GMT 32.979263 32.448067 35,650 301 446 832
2022-08-03 03:45:02 GMT 32.973862 32.458778 35,550 301 446 768
2022-08-03 03:44:58 GMT 32.968094 32.470367 35,500 301 446 704
2022-08-03 03:44:51 GMT 32.962646 32.481243 35,425 301 445 768
2022-08-03 03:44:48 GMT 32.959076 32.488365 35,375 301 445 832
2022-08-03 03:44:46 GMT 32.957355 32.491783 35,350 301 445 896
2022-08-03 03:44:41 GMT 32.952187 32.502155 35,275 301 445 960
2022-08-03 03:44:37 GMT 32.947346 32.511742 35,200 301 445 960
2022-08-03 03:44:31 GMT 32.941223 32.523926 35,125 301 445 1024
2022-08-03 03:44:26 GMT 32.935242 32.535900 35,025 301 445 1024
2022-08-03 03:44:20 GMT 32.929642 32.547108 34,925 301 445 1088
2022-08-03 03:44:17 GMT 32.926712 32.552876 34,875 301 445 1216
2022-08-03 03:44:14 GMT 32.923920 32.558479 34,825 301 445 1216
2022-08-03 03:44:10 GMT 32.919205 32.567871 34,725 301 447 1216
2022-08-03 03:44:06 GMT 32.914948 32.576370 34,650 301 447 1216
2022-08-03 03:43:58 GMT 32.905884 32.594460 34,475 301 447 1216
2022-08-03 03:43:56 GMT 32.904007 32.598137 34,450 301 447 1216
2022-08-03 03:43:49 GMT 32.897141 32.611816 34,325 301 448 1152
2022-08-03 03:43:46 GMT 32.893391 32.619247 34,250 301 449 1088
2022-08-03 03:43:40 GMT 32.886978 32.631977 34,150 301 449 1088
2022-08-03 03:43:36 GMT 32.882221 32.641445 34,050 301 449 1152
2022-08-03 03:43:29 GMT 32.876076 32.653664 33,925 301 449 1344
2022-08-03 03:43:25 GMT 32.871281 32.663193 33,825 301 449 1344
2022-08-03 03:43:17 GMT 32.863132 32.679279 33,650 301 450 1344
2022-08-03 03:43:15 GMT 32.860573 32.684383 33,600 301 451 1344
2022-08-03 03:43:09 GMT 32.853825 32.697723 33,450 301 452 1472
2022-08-03 03:43:06 GMT 32.851639 32.702015 33,400 301 452 1472
2022-08-03 03:43:04 GMT 32.848377 32.708542 33,325 301 453 1600
2022-08-03 03:42:59 GMT 32.843079 32.718987 33,175 301 454 1664
2022-08-03 03:42:55 GMT 32.838272 32.728493 33,050 301 455 1664
2022-08-03 03:42:46 GMT 32.829475 32.745930 32,825 301 457 1728
2022-08-03 03:42:44 GMT 32.827240 32.750355 32,775 301 457 1728
2022-08-03 03:42:36 GMT 32.818630 32.767395 32,550 301 460 1728
2022-08-03 03:42:34 GMT 32.815838 32.772888 32,475 301 460 1728
2022-08-03 03:42:26 GMT 32.806778 32.790894 32,225 301 462 1792
2022-08-03 03:42:24 GMT 32.805130 32.794189 32,200 301 463 1728
2022-08-03 03:42:17 GMT 32.796616 32.811001 31,975 301 465 1728
2022-08-03 03:42:14 GMT 32.793411 32.817314 31,900 301 466 1600
2022-08-03 03:42:07 GMT 32.785538 32.832806 31,725 301 466 1408
2022-08-03 03:42:03 GMT 32.782551 32.838753 31,675 301 467 1344
2022-08-03 03:41:55 GMT 32.774174 32.855286 31,500 302 467 1344
2022-08-03 03:41:53 GMT 32.770962 32.861622 31,425 302 467 1344
2022-08-03 03:41:46 GMT 32.763233 32.876812 31,275 302 467 1216
2022-08-03 03:41:42 GMT 32.758858 32.885498 31,200 302 467 1152
2022-08-03 03:41:36 GMT 32.752213 32.898560 31,075 302 467 1280
2022-08-03 03:41:32 GMT 32.747543 32.907787 31,000 301 468 1344
2022-08-03 03:41:25 GMT 32.739491 32.923615 30,850 301 468 1216
2022-08-03 03:41:22 GMT 32.736786 32.928993 30,800 302 467 1152
2022-08-03 03:41:15 GMT 32.728775 32.944756 30,650 302 467 1280
2022-08-03 03:41:11 GMT 32.724380 32.953438 30,550 302 467 1216
2022-08-03 03:41:05 GMT 32.717606 32.966785 30,450 302 467 1152
2022-08-03 03:41:00 GMT 32.711929 32.977936 30,325 301 467 1408
2022-08-03 03:40:55 GMT 32.706158 32.989307 30,200 301 468 1408
2022-08-03 03:40:51 GMT 32.701584 32.998371 30,125 301 468 1280
2022-08-03 03:40:45 GMT 32.694847 33.011620 29,975 302 468 1472
2022-08-03 03:40:41 GMT 32.689865 33.021385 29,875 302 469 1536
2022-08-03 03:40:35 GMT 32.683350 33.034149 29,725 302 469 1536
2022-08-03 03:40:31 GMT 32.678600 33.043510 29,625 302 469 1600
2022-08-03 03:40:24 GMT 32.671783 33.056980 29,475 302 470 1600
2022-08-03 03:40:20 GMT 32.667343 33.065662 29,350 302 470 1472
2022-08-03 03:40:15 GMT 32.661072 33.077965 29,250 302 470 1152
2022-08-03 03:40:09 GMT 32.654938 33.090050 29,125 302 470 1088
2022-08-03 03:40:04 GMT 32.648621 33.102425 29,025 302 469 1152
2022-08-03 03:40:00 GMT 32.643921 33.111671 28,950 302 469 1280
2022-08-03 03:39:53 GMT 32.636673 33.125923 28,825 302 469 1152
2022-08-03 03:39:49 GMT 32.632233 33.134655 28,750 302 469 960
2022-08-03 03:39:45 GMT 32.625111 33.148609 28,650 302 467 1024
2022-08-03 03:39:38 GMT 32.620316 33.158028 28,550 302 467 1280
2022-08-03 03:39:33 GMT 32.614151 33.170143 28,450 302 466 1024
2022-08-03 03:39:28 GMT 32.609051 33.180058 28,375 302 466 1088
2022-08-03 03:39:23 GMT 32.602859 33.192276 28,250 302 466 1280
2022-08-03 03:39:19 GMT 32.597992 33.201836 28,175 302 465 1088
2022-08-03 03:39:14 GMT 32.593224 33.211166 28,100 302 464 1216
2022-08-03 03:39:12 GMT 32.590988 33.215569 28,050 302 464 1344
2022-08-03 03:39:08 GMT 32.586426 33.224506 27,950 302 464 1152
2022-08-03 03:39:02 GMT 32.579773 33.237488 27,850 302 463 1024
2022-08-03 03:38:58 GMT 32.575195 33.246441 27,775 302 462 1216
2022-08-03 03:38:52 GMT 32.568363 33.259819 27,650 302 462 1344
2022-08-03 03:38:48 GMT 32.564163 33.268028 27,575 302 462 1152
2022-08-03 03:38:44 GMT 32.559128 33.277916 27,500 302 461 1088
2022-08-03 03:38:38 GMT 32.552864 33.290146 27,375 302 460 1216
2022-08-03 03:38:34 GMT 32.547775 33.300110 27,275 302 460 1280
2022-08-03 03:38:27 GMT 32.541046 33.313240 27,150 302 459 1216
2022-08-03 03:38:21 GMT 32.534500 33.325981 27,050 302 458 1216
2022-08-03 03:38:17 GMT 32.529877 33.335045 26,950 302 458 1408
2022-08-03 03:38:07 GMT 32.518742 33.356678 26,775 302 457 704
2022-08-03 03:37:55 GMT 32.505611 33.382294 26,525 302 454 1408
2022-08-03 03:37:51 GMT 32.500771 33.391712 26,425 302 453 1216
2022-08-03 03:37:46 GMT 32.496021 33.401016 26,350 302 453 1152
2022-08-03 03:37:40 GMT 32.489506 33.413685 26,225 302 452 1088
2022-08-03 03:37:37 GMT 32.485931 33.420574 26,175 302 451 1152
2022-08-03 03:37:30 GMT 32.478790 33.434582 26,025 302 450 1280
2022-08-03 03:37:27 GMT 32.475128 33.441669 25,975 302 450 1344
2022-08-03 03:37:20 GMT 32.467712 33.456116 25,825 302 448 1216
2022-08-03 03:37:16 GMT 32.463623 33.464073 25,750 302 447 1216
2022-08-03 03:37:09 GMT 32.456177 33.478527 25,600 302 446 1344
2022-08-03 03:37:06 GMT 32.452652 33.485451 25,525 302 446 1344
2022-08-03 03:36:56 GMT 32.442352 33.505444 25,325 302 445 1280
2022-08-03 03:36:49 GMT 32.434158 33.521374 25,150 302 444 1280
2022-08-03 03:36:45 GMT 32.430862 33.527855 25,075 302 443 1344
2022-08-03 03:36:38 GMT 32.422840 33.543335 24,925 302 441 1216
2022-08-03 03:36:36 GMT 32.420837 33.547249 24,875 302 441 1216
2022-08-03 03:36:30 GMT 32.413811 33.560879 24,725 302 439 1280
2022-08-03 03:36:26 GMT 32.409992 33.568275 24,650 302 439 1344
2022-08-03 03:36:16 GMT 32.399231 33.589161 24,425 302 436 1216
2022-08-03 03:36:08 GMT 32.391232 33.604599 24,275 302 435 1536
2022-08-03 03:36:05 GMT 32.387329 33.612232 24,175 302 435 1536
2022-08-03 03:35:58 GMT 32.381039 33.624329 24,025 302 434 1472
2022-08-03 03:35:55 GMT 32.378082 33.630138 23,950 302 434 1472
2022-08-03 03:35:47 GMT 32.369820 33.646133 23,750 302 433 1472
2022-08-03 03:35:45 GMT 32.367680 33.650284 23,700 302 433 1536
2022-08-03 03:35:39 GMT 32.360825 33.663540 23,525 302 432 1664
2022-08-03 03:35:36 GMT 32.357300 33.670349 23,425 302 431 1664
2022-08-03 03:35:29 GMT 32.350315 33.683857 23,225 302 431 1984
2022-08-03 03:35:25 GMT 32.346588 33.691002 23,100 302 431 1920
2022-08-03 03:35:15 GMT 32.335968 33.711548 22,825 302 430 1536
2022-08-03 03:35:09 GMT 32.329178 33.724720 22,650 302 428 1408
2022-08-03 03:35:05 GMT 32.325314 33.732174 22,575 302 428 1408
2022-08-03 03:34:58 GMT 32.318333 33.745628 22,400 302 426 1600
2022-08-03 03:34:54 GMT 32.308548 33.764610 22,100 302 426 1856
2022-08-03 03:34:47 GMT 32.307487 33.766590 22,075 302 424 1856
2022-08-03 03:34:45 GMT 32.304611 33.772137 22,000 302 424 1728
2022-08-03 03:34:34 GMT 32.293945 33.792736 21,675 302 424 1792
2022-08-03 03:34:24 GMT 32.283875 33.812183 21,400 302 421 1856
2022-08-03 03:34:14 GMT 32.273483 33.832176 21,100 302 419 1920
2022-08-03 03:34:05 GMT 32.264286 33.849831 20,775 302 418 1920
2022-08-03 03:34:03 GMT 32.262909 33.852501 20,725 302 418 1856
2022-08-03 03:33:54 GMT 32.253159 33.871288 20,425 302 416 2048
2022-08-03 03:33:44 GMT 32.242905 33.891010 20,100 302 415 1600
2022-08-03 03:33:34 GMT 32.232536 33.910984 19,825 302 410 1792
2022-08-03 03:33:24 GMT 32.222992 33.929352 19,400 302 409 2240
2022-08-03 03:33:14 GMT 32.212921 33.948578 19,150 302 408 2112
2022-08-03 03:33:04 GMT 32.203720 33.966267 18,825 302 407 2304
2022-08-03 03:32:55 GMT 32.193924 33.984997 18,450 302 406 2048
2022-08-03 03:32:52 GMT 32.191944 33.988785 18,375 302 405 1984
2022-08-03 03:32:45 GMT 32.184074 34.003918 18,125 302 403 1984
2022-08-03 03:32:43 GMT 32.182728 34.006554 18,075 302 403 1984
2022-08-03 03:32:35 GMT 32.174240 34.022793 17,800 302 401 1920
2022-08-03 03:32:33 GMT 32.172810 34.025497 17,750 302 401 1920
2022-08-03 03:32:25 GMT 32.164848 34.040634 17,500 302 399 2048
2022-08-03 03:32:23 GMT 32.163033 34.043995 17,425 302 398 2048
2022-08-03 03:32:15 GMT 32.155212 34.059803 17,175 299 395 1600
2022-08-03 03:32:13 GMT 32.153629 34.063278 17,125 298 393 1600
2022-08-03 03:32:05 GMT 32.147160 34.078861 16,900 294 389 1728
2022-08-03 03:32:02 GMT 32.145309 34.083763 16,825 294 388 1728
2022-08-03 03:31:55 GMT 32.140274 34.098927 16,600 290 385 1792
2022-08-03 03:31:52 GMT 32.138901 34.103539 16,525 289 384 1792
2022-08-03 03:31:44 GMT 32.134552 34.119362 16,300 288 381 1728
2022-08-03 03:31:41 GMT 32.133179 34.124359 16,225 288 379 1984
2022-08-03 03:31:34 GMT 32.129288 34.138531 15,950 289 378 2176
2022-08-03 03:31:31 GMT 32.127777 34.144024 15,850 289 378 2176
2022-08-03 03:31:28 GMT 32.125946 34.150616 15,725 289 377 2176
2022-08-03 03:31:24 GMT 32.123932 34.157810 15,600 289 377 2304
2022-08-03 03:31:21 GMT 32.121964 34.164955 15,450 289 376 2304
2022-08-03 03:31:17 GMT 32.120022 34.172020 15,325 289 376 2176
2022-08-03 03:31:14 GMT 32.118576 34.177120 15,150 289 375 1984
2022-08-03 03:31:10 GMT 32.116104 34.186047 15,075 289 374 1984
2022-08-03 03:31:04 GMT 32.112946 34.197529 14,850 289 373 2688
2022-08-03 03:31:00 GMT 32.110794 34.205273 14,650 289 374 2688
2022-08-03 03:30:58 GMT 32.109741 34.208954 14,575 288 374 2496
2022-08-03 03:30:54 GMT 32.107590 34.216862 14,425 289 374 2560
2022-08-03 03:30:50 GMT 32.105217 34.225384 14,225 289 374 2432
2022-08-03 03:30:48 GMT 32.104099 34.229362 14,150 288 373 2368
2022-08-03 03:30:44 GMT 32.102234 34.236145 14,000 288 373 2304
2022-08-03 03:30:39 GMT 32.099770 34.245056 13,825 288 372 2176
2022-08-03 03:30:36 GMT 32.098114 34.251087 13,725 288 372 2176
2022-08-03 03:30:33 GMT 32.096695 34.256142 13,625 289 371 2240
2022-08-03 03:30:30 GMT 32.094696 34.263500 13,475 288 370 2112
2022-08-03 03:30:24 GMT 32.091484 34.275101 13,275 288 369 1920
2022-08-03 03:30:20 GMT 32.089279 34.283058 13,125 288 366 2176
2022-08-03 03:30:17 GMT 32.087757 34.288441 13,025 288 365 2240
2022-08-03 03:30:13 GMT 32.085945 34.295055 12,925 289 364 2304
2022-08-03 03:30:10 GMT 32.083969 34.302174 12,750 289 364 2304
2022-08-03 03:30:05 GMT 32.081429 34.311367 12,550 289 363 2112
2022-08-03 03:30:03 GMT 32.080917 34.313217 12,525 289 363 2176
2022-08-03 03:29:58 GMT 32.077560 34.325298 12,250 289 361 2944
2022-08-03 03:29:55 GMT 32.075638 34.332275 12,050 289 361 2944
2022-08-03 03:29:49 GMT 32.073212 34.340900 11,825 289 363 2944
2022-08-03 03:29:47 GMT 32.071884 34.345791 11,700 289 363 2816
2022-08-03 03:29:44 GMT 32.070465 34.350842 11,575 289 363 2624
2022-08-03 03:29:39 GMT 32.068020 34.359684 11,375 289 361 2624
2022-08-03 03:29:37 GMT 32.066952 34.363499 11,300 289 361 2752
2022-08-03 03:29:34 GMT 32.065273 34.369549 11,175 289 360 2880
2022-08-03 03:29:28 GMT 32.061970 34.381435 10,850 289 360 2624
2022-08-03 03:29:24 GMT 32.060211 34.387699 10,700 289 359 2560
2022-08-03 03:29:21 GMT 32.058884 34.392426 10,600 289 358 2368
2022-08-03 03:29:17 GMT 32.056709 34.400322 10,425 289 357 2304
2022-08-03 03:29:15 GMT 32.055359 34.405144 10,325 289 356 2176
2022-08-03 03:29:13 GMT 32.054752 34.407219 10,300 289 356 2240
2022-08-03 03:29:08 GMT 32.051495 34.418987 10,050 289 354 2368
2022-08-03 03:29:04 GMT 32.049683 34.425495 9,900 289 352 2496
2022-08-03 03:28:58 GMT 32.046654 34.436478 9,650 289 351 2560
2022-08-03 03:28:55 GMT 32.045349 34.441185 9,525 289 350 2496
2022-08-03 03:28:53 GMT 32.044373 34.444611 9,450 289 349 2432
2022-08-03 03:28:47 GMT 32.041489 34.455158 9,225 287 346 2688
2022-08-03 03:28:45 GMT 32.040207 34.460155 9,100 286 345 2944
2022-08-03 03:28:38 GMT 32.037598 34.471912 8,775 283 344 3072
2022-08-03 03:28:36 GMT 32.037186 34.473888 8,725 281 343 2688
2022-08-03 03:28:34 GMT 32.036087 34.480087 8,575 281 343 2560
2022-08-03 03:28:27 GMT 32.034504 34.491241 8,400 278 341 1472
2022-08-03 03:28:23 GMT 32.033760 34.498695 8,300 275 341 896
2022-08-03 03:28:17 GMT 32.033020 34.510201 8,225 274 339 576
2022-08-03 03:28:13 GMT 32.032654 34.517448 8,200 274 338 256
2022-08-03 03:28:08 GMT 32.032059 34.527996 8,150 274 337 960
2022-08-03 03:28:05 GMT 32.031712 34.533897 8,100 274 337 1024
2022-08-03 03:28:03 GMT 32.031601 34.535744 8,075 274 336 1024
2022-08-03 03:27:57 GMT 32.030869 34.548706 7,950 274 336 1024
2022-08-03 03:27:53 GMT 32.030548 34.554527 7,900 274 335 1088
2022-08-03 03:27:47 GMT 32.029861 34.566063 7,775 274 333 1152
2022-08-03 03:27:45 GMT 32.029633 34.569908 7,725 274 332 1152
2022-08-03 03:27:43 GMT 32.029449 34.573372 7,700 274 332 1152
2022-08-03 03:27:36 GMT 32.028778 34.585800 7,550 274 330 1152
2022-08-03 03:27:33 GMT 32.028534 34.591167 7,500 274 329 1152
2022-08-03 03:27:27 GMT 32.027985 34.602337 7,375 274 328 1344
2022-08-03 03:27:25 GMT 32.027802 34.605869 7,325 274 328 1600
2022-08-03 03:27:23 GMT 32.027660 34.609177 7,250 274 328 1792
2022-08-03 03:27:20 GMT 32.027382 34.613659 7,175 275 328 1856
2022-08-03 03:27:17 GMT 32.026978 34.619129 7,075 277 328 2112
2022-08-03 03:27:13 GMT 32.026123 34.627113 6,925 280 328 1984
2022-08-03 03:27:06 GMT 32.024231 34.638519 6,750 283 325 2176
2022-08-03 03:27:03 GMT 32.022961 34.644489 6,575 286 323 2560
2022-08-03 03:27:01 GMT 32.022400 34.647011 6,500 286 323 2624
2022-08-03 03:26:56 GMT 32.020447 34.654465 6,325 290 320 1856
2022-08-03 03:26:53 GMT 32.018417 34.661152 6,225 290 316 1472
2022-08-03 03:26:45 GMT 32.012970 34.678455 6,050 291 306 1664
2022-08-03 03:26:42 GMT 32.012970 34.678455 5,925 291 303 1600
2022-08-03 03:26:32 GMT 32.008026 34.693890 5,675 291 290 1536
2022-08-03 03:26:22 GMT 32.003407 34.708279 5,375 291 279 2048
2022-08-03 03:25:51 GMT 31.993057 34.750908 4,425 275 249 1536
2022-08-03 03:25:47 GMT 31.993057 34.760029 4,200 266 233 1088
2022-08-03 03:25:44 GMT 31.993057 34.760029 4,225 268 237 1216
2022-08-03 03:25:37 GMT 31.994385 34.770905 4,025 259 216 1024
2022-08-03 03:25:35 GMT 31.994385 34.770905 4,050 259 216 1024
2022-08-03 03:25:32 GMT 31.995167 34.775204 3,975 259 211 1152
2022-08-03 03:25:24 GMT 31.996628 34.783649 3,850 259 201 1344
2022-08-03 03:25:14 GMT 31.998379 34.793591 3,625 258 183 1280
2022-08-03 03:25:04 GMT 32.000149 34.802952 3,350 258 175 1920
2022-08-03 03:24:54 GMT 32.001938 34.811993 2,925 256 172 2624
2022-08-03 03:24:50 GMT 32.002754 34.815731 2,750 256 170 2560
2022-08-03 03:24:46 GMT 32.003452 34.818756 2,300 256 170 2560
2022-08-03 03:24:44 GMT 32.004013 34.821392 2,475 256 170 2496
2022-08-03 03:24:37 GMT 32.005371 34.827595 2,175 257 168 2496
2022-08-03 03:24:34 GMT 32.005920 34.830231 2,050 256 169 2496
2022-08-03 03:24:32 GMT 32.006199 34.831650 2,000 256 168 2432
2022-08-03 03:24:31 GMT 32.006516 34.832977 1,900 255 168 2368
2022-08-03 03:24:30 GMT 32.006973 34.835175 1,825 254 168 2304
2022-08-03 03:24:28 GMT 32.007614 34.837757 1,725 254 168 2240
2022-08-03 03:24:26 GMT 32.007614 34.837757 1,725 254 168 2240
2022-08-03 03:24:25 GMT 32.007828 34.838600 1,675 253 167 2176
2022-08-03 03:24:23 GMT 32.008301 34.840446 1,600 253 166 2240
2022-08-03 03:24:21 GMT 32.008667 34.841877 1,550 253 166 2240
2022-08-03 03:24:20 GMT 32.008804 34.842262 1,475 252 171 2240
2022-08-03 03:24:19 GMT 32.013336 34.863190 1,425 253 167 2304
2022-08-03 03:23:58 GMT 32.013336 34.863190 575 261 164 2112
2022-08-03 03:23:52 GMT 32.014114 34.868645 375 260 158 384
2022-08-03 03:23:50 GMT 32.014206 34.869541 375 260 158 384
2022-08-03 03:23:46 GMT 32.014954 34.874416 325 260 152 128
2022-08-03 03:23:44 GMT 32.015076 34.875221 325 260 146 64
2022-08-03 03:23:43 GMT 32.015442 34.877525 325 260 139 0
2022-08-03 03:23:40 GMT 32.015442 34.877525 325 260 136 0
2022-08-03 03:23:39 GMT 32.015511 34.878227 325 261 133 0
2022-08-03 03:23:29 GMT 32.016563 34.885010 0 258 96
2022-08-03 03:23:28 GMT 32.016655 34.885616 0 258 88
2022-08-03 03:23:27 GMT 32.016735 34.886150 0 258 84
2022-08-03 03:23:26 GMT 32.016766 34.886383 0 258 84
2022-08-03 03:23:25 GMT 32.016918 34.887318 0 258 76
2022-08-03 03:23:23 GMT 32.017033 34.888073 0 258 66
2022-08-03 03:23:21 GMT 32.017090 34.888474 0 258 62
2022-08-03 03:23:20 GMT 32.017136 34.888802 0 258 58
2022-08-03 03:23:19 GMT 32.017216 34.889297 0 258 48
2022-08-03 03:23:18 GMT 32.017281 34.889717 0 258 39
2022-08-03 03:23:16 GMT 32.017319 34.889969 0 258 34
2022-08-03 03:23:15 GMT 32.017353 34.890175 0 258 30
2022-08-03 03:23:14 GMT 32.017387 34.890396 0 258 25
2022-08-03 03:23:12 GMT 32.017433 34.890671 0 258 16
2022-08-03 03:23:11 GMT 32.017445 34.890724 0 258 12
2022-08-03 03:23:10 GMT 32.017452 34.890812 0 258 9
2022-08-03 03:23:07 GMT 32.017467 34.890915 0 261 8
2022-08-03 03:23:05 GMT 32.017475 34.890938 0 261 7
2022-08-03 03:23:04 GMT 32.017490 34.890980 0 264 6
2022-08-03 03:23:02 GMT 32.017502 34.891037 0 270 5
2022-08-03 03:23:01 GMT 32.017502 34.891083 0 278 5
2022-08-03 03:23:00 GMT 32.017513 34.891094 0 281 5
2022-08-03 03:22:59 GMT 32.017513 34.891121 0 286 5
2022-08-03 03:22:58 GMT 32.017513 34.891148 0 292 5
2022-08-03 03:22:56 GMT 32.017513 34.891205 0 312 5
2022-08-03 03:22:55 GMT 32.017513 34.891220 0 315 5
2022-08-03 03:22:54 GMT 32.017502 34.891262 0 329 5
2022-08-03 03:22:53 GMT 32.017490 34.891289 0 334 5
2022-08-03 03:22:52 GMT 32.017479 34.891300 0 340 5
2022-08-03 03:22:50 GMT 32.017433 34.891327 0 351 6
2022-08-03 03:22:49 GMT 32.017422 34.891342 0 354 6
2022-08-03 03:22:48 GMT 32.017387 34.891342 0 357 7
2022-08-03 03:22:47 GMT 32.017338 34.891346 0 357 8
2022-08-03 03:22:45 GMT 32.017292 34.891346 0 354 9
2022-08-03 03:22:44 GMT 32.017250 34.891357 0 351 9
2022-08-03 03:22:43 GMT 32.017216 34.891357 0 351 10
2022-08-03 03:22:41 GMT 32.017128 34.891373 0 351 11
2022-08-03 03:22:40 GMT 32.017094 34.891373 0 351 11
2022-08-03 03:22:38 GMT 32.017021 34.891396 0 348 11
2022-08-03 03:22:36 GMT 32.016930 34.891411 0 348 12
2022-08-03 03:22:35 GMT 32.016872 34.891430 0 348 12
2022-08-03 03:22:34 GMT 32.016815 34.891441 0 348 12
2022-08-03 03:22:32 GMT 32.016689 34.891464 0 348 13
2022-08-03 03:22:31 GMT 32.016632 34.891479 0 348 13
2022-08-03 03:22:30 GMT 32.016605 34.891483 0 348 13
2022-08-03 03:22:29 GMT 32.016472 34.891521 0 348 13
2022-08-03 03:22:27 GMT 32.016418 34.891525 0 348 13
2022-08-03 03:22:26 GMT 32.016361 34.891541 0 348 13
2022-08-03 03:22:24 GMT 32.016243 34.891563 0 348 13
2022-08-03 03:22:23 GMT 32.016151 34.891582 0 351 12
2022-08-03 03:22:22 GMT 32.016033 34.891609 0 354 12
2022-08-03 03:22:20 GMT 32.015980 34.891617 0 357 12
2022-08-03 03:22:19 GMT 32.015930 34.891624 0 0 11
2022-08-03 03:22:18 GMT 32.015869 34.891624 0 5 11
2022-08-03 03:22:17 GMT 32.015766 34.891624 0 16 11
2022-08-03 03:22:15 GMT 32.015720 34.891624 0 25 11
2022-08-03 03:22:14 GMT 32.015671 34.891590 0 30 11
2022-08-03 03:22:13 GMT 32.015636 34.891582 0 36 11
2022-08-03 03:22:11 GMT 32.015522 34.891479 0 56 11
2022-08-03 03:22:09 GMT 32.015499 34.891464 0 59 11
2022-08-03 03:22:08 GMT 32.015442 34.891357 0 70 11
2022-08-03 03:22:06 GMT 32.015419 34.891289 0 75 11
2022-08-03 03:22:05 GMT 32.015408 34.891258 0 75 12
2022-08-03 03:22:04 GMT 32.015396 34.891220 0 78 13
2022-08-03 03:21:55 GMT 32.015224 34.890064 0 81 26
2022-08-03 03:21:44 GMT 32.014999 34.888542 0 78 26

Making use of Plane Finder data

You are free to use the raw flight data, aircraft information and images provided in this report for your own purposes provided the data is correctly attributed to Plane Finder. We ask that you please credit Plane Finder and link to planefinder.net in close proximity to the content.

Optionally one of the following logos (no smaller then 150x24px) can be used and must link to planefinder.net

Embedding the Plane Finder map

You are welcome to embed the Plane Finder playback map on your website to offer visitors a more interactive experience. We suggest using the following HTML code:

<iframe src="//planefinder.net/data/report/LY385-4X-EKH-7700-squawk-2022-08-03/map" width="800" height="600" seamless="seamless"></iframe>

Where our data comes from

Plane Finder has a global network of data feeds and antenna radars that receive data broadcast directly from aircraft. The primary technologies used are ADS-B and MLAT. We also show feeds from the FAA and a FLARM glider feed.

Click here to find out more about the Plane Finder network.

How we collect our data